Wetterdaten: Montag, 23.03.2026
Datum Zeit Temp. I. Temp. A. Feuchte I. Feuchte A. Luftdruck Regen Wind Richtung Richtung Sonnenschein Solar Taupunkt Windchill Windböen
23.03.2026 00:00 21,8 °C 1,7 °C 47 % 82 % 1016,5 hPa 0,0 l/m² 0,0 km/h (0 Bft) W-SW 244 ° 0 min 0 W/m² -1,0 °C 1,7 °C 0,0 km/h (0 Bft)
23.03.2026 00:01 21,8 °C 1,7 °C 47 % 82 % 1016,5 hPa 0,0 l/m² 0,0 km/h (0 Bft) W-SW 244 ° 0 min 0 W/m² -1,0 °C 1,7 °C 0,0 km/h (0 Bft)
23.03.2026 00:02 21,8 °C 1,7 °C 47 % 82 % 1016,4 hPa 0,0 l/m² 0,0 km/h (0 Bft) W-SW 244 ° 0 min 0 W/m² -1,0 °C 1,7 °C 0,0 km/h (0 Bft)
23.03.2026 00:03 21,8 °C 1,7 °C 47 % 82 % 1016,4 hPa 0,0 l/m² 0,0 km/h (0 Bft) W-SW 244 ° 0 min 0 W/m² -1,0 °C 1,7 °C 0,0 km/h (0 Bft)
23.03.2026 00:04 21,8 °C 1,7 °C 47 % 82 % 1016,4 hPa 0,0 l/m² 0,0 km/h (0 Bft) W-SW 244 ° 0 min 0 W/m² -1,0 °C 1,7 °C 0,0 km/h (0 Bft)
23.03.2026 00:06 21,8 °C 1,7 °C 47 % 82 % 1016,4 hPa 0,0 l/m² 0,0 km/h (0 Bft) W-SW 244 ° 0 min 0 W/m² -1,0 °C 1,7 °C 0,0 km/h (0 Bft)
23.03.2026 00:08 21,8 °C 1,6 °C 47 % 83 % 1016,4 hPa 0,0 l/m² 0,0 km/h (0 Bft) W-SW 244 ° 0 min 0 W/m² -1,0 °C 1,6 °C 0,0 km/h (0 Bft)
23.03.2026 00:09 21,8 °C 1,6 °C 47 % 83 % 1016,4 hPa 0,0 l/m² 0,0 km/h (0 Bft) W-SW 244 ° 0 min 0 W/m² -1,0 °C 1,6 °C 0,0 km/h (0 Bft)
23.03.2026 00:11 21,8 °C 1,6 °C 47 % 83 % 1016,4 hPa 0,0 l/m² 0,0 km/h (0 Bft) W-SW 244 ° 0 min 0 W/m² -1,0 °C 1,6 °C 0,0 km/h (0 Bft)
23.03.2026 00:12 21,8 °C 1,6 °C 47 % 83 % 1016,4 hPa 0,0 l/m² 0,0 km/h (0 Bft) W-SW 244 ° 0 min 0 W/m² -1,0 °C 1,6 °C 0,0 km/h (0 Bft)
23.03.2026 00:13 21,8 °C 1,6 °C 47 % 83 % 1016,4 hPa 0,0 l/m² 0,0 km/h (0 Bft) W-SW 244 ° 0 min 0 W/m² -1,0 °C 1,6 °C 0,0 km/h (0 Bft)
23.03.2026 00:14 21,8 °C 1,5 °C 47 % 83 % 1016,4 hPa 0,0 l/m² 0,0 km/h (0 Bft) W-SW 244 ° 0 min 0 W/m² -1,1 °C 1,5 °C 0,0 km/h (0 Bft)
23.03.2026 00:15 21,8 °C 1,6 °C 47 % 83 % 1016,3 hPa 0,0 l/m² 0,0 km/h (0 Bft) W-SW 244 ° 0 min 0 W/m² -1,0 °C 1,6 °C 0,0 km/h (0 Bft)
23.03.2026 00:17 21,8 °C 1,5 °C 47 % 83 % 1016,4 hPa 0,0 l/m² 0,0 km/h (0 Bft) W-SW 244 ° 0 min 0 W/m² -1,1 °C 1,5 °C 0,0 km/h (0 Bft)
23.03.2026 00:19 21,8 °C 1,5 °C 47 % 83 % 1016,3 hPa 0,0 l/m² 0,0 km/h (0 Bft) W-SW 244 ° 0 min 0 W/m² -1,1 °C 1,5 °C 0,0 km/h (0 Bft)
23.03.2026 00:21 21,8 °C 1,4 °C 47 % 84 % 1016,4 hPa 0,0 l/m² 3,1 km/h (1 Bft) W-SW 244 ° 0 min 0 W/m² -1,0 °C 1,4 °C 4,8 km/h (1 Bft)
23.03.2026 00:22 21,8 °C 1,4 °C 47 % 84 % 1016,4 hPa 0,0 l/m² 3,5 km/h (1 Bft) W-SW 244 ° 0 min 0 W/m² -1,0 °C 1,4 °C 4,8 km/h (1 Bft)
23.03.2026 00:23 21,8 °C 1,4 °C 47 % 84 % 1016,4 hPa 0,0 l/m² 3,4 km/h (1 Bft) W-SW 244 ° 0 min 0 W/m² -1,0 °C 1,4 °C 4,8 km/h (1 Bft)
23.03.2026 00:25 21,8 °C 1,4 °C 47 % 84 % 1016,4 hPa 0,0 l/m² 2,0 km/h (1 Bft) W-SW 244 ° 0 min 0 W/m² -1,0 °C 1,4 °C 3,2 km/h (1 Bft)
23.03.2026 00:27 21,8 °C 1,4 °C 47 % 84 % 1016,4 hPa 0,0 l/m² 3,4 km/h (1 Bft) W-SW 244 ° 0 min 0 W/m² -1,0 °C 1,4 °C 4,8 km/h (1 Bft)
23.03.2026 00:29 21,9 °C 1,4 °C 47 % 84 % 1016,5 hPa 0,0 l/m² 1,9 km/h (1 Bft) W-SW 244 ° 0 min 0 W/m² -1,0 °C 1,4 °C 3,2 km/h (1 Bft)
23.03.2026 00:31 21,8 °C 1,4 °C 47 % 84 % 1016,5 hPa 0,0 l/m² 2,0 km/h (1 Bft) W-SW 244 ° 0 min 0 W/m² -1,0 °C 1,4 °C 3,2 km/h (1 Bft)
23.03.2026 00:32 21,8 °C 1,4 °C 47 % 84 % 1016,4 hPa 0,0 l/m² 1,9 km/h (1 Bft) W-SW 244 ° 0 min 0 W/m² -1,0 °C 1,4 °C 3,2 km/h (1 Bft)
23.03.2026 00:33 21,8 °C 1,4 °C 47 % 84 % 1016,5 hPa 0,0 l/m² 1,6 km/h (1 Bft) W-SW 244 ° 0 min 0 W/m² -1,0 °C 1,4 °C 3,2 km/h (1 Bft)
23.03.2026 00:35 21,9 °C 1,4 °C 47 % 85 % 1016,4 hPa 0,0 l/m² 1,4 km/h (1 Bft) W-SW 244 ° 0 min 0 W/m² -0,8 °C 1,4 °C 3,2 km/h (1 Bft)
23.03.2026 00:37 21,9 °C 1,4 °C 47 % 85 % 1016,5 hPa 0,0 l/m² 2,6 km/h (1 Bft) W-SW 244 ° 0 min 0 W/m² -0,8 °C 1,4 °C 4,8 km/h (1 Bft)
23.03.2026 00:39 21,9 °C 1,4 °C 47 % 85 % 1016,4 hPa 0,0 l/m² 2,2 km/h (1 Bft) W-SW 244 ° 0 min 0 W/m² -0,8 °C 1,4 °C 3,2 km/h (1 Bft)
23.03.2026 00:41 21,9 °C 1,4 °C 47 % 85 % 1016,5 hPa 0,0 l/m² 2,2 km/h (1 Bft) W-SW 244 ° 0 min 0 W/m² -0,8 °C 1,4 °C 3,2 km/h (1 Bft)
23.03.2026 00:43 21,9 °C 1,3 °C 47 % 85 % 1016,5 hPa 0,0 l/m² 0,3 km/h (0 Bft) W-SW 244 ° 0 min 0 W/m² -0,9 °C 1,3 °C 1,6 km/h (1 Bft)
23.03.2026 00:44 21,9 °C 1,3 °C 47 % 85 % 1016,5 hPa 0,0 l/m² 0,0 km/h (0 Bft) W-SW 244 ° 0 min 0 W/m² -0,9 °C 1,3 °C 1,6 km/h (1 Bft)
23.03.2026 00:45 21,9 °C 1,3 °C 47 % 85 % 1016,5 hPa 0,0 l/m² 0,0 km/h (0 Bft) W-SW 244 ° 0 min 0 W/m² -0,9 °C 1,3 °C 0,0 km/h (0 Bft)
23.03.2026 00:46 21,9 °C 1,3 °C 47 % 85 % 1016,5 hPa 0,0 l/m² 0,0 km/h (0 Bft) W-SW 244 ° 0 min 0 W/m² -0,9 °C 1,3 °C 0,0 km/h (0 Bft)
23.03.2026 00:48 21,9 °C 1,3 °C 47 % 85 % 1016,5 hPa 0,0 l/m² 0,0 km/h (0 Bft) W-SW 244 ° 0 min 0 W/m² -0,9 °C 1,3 °C 0,0 km/h (0 Bft)
23.03.2026 00:50 21,9 °C 1,3 °C 47 % 85 % 1016,5 hPa 0,0 l/m² 0,0 km/h (0 Bft) W-SW 244 ° 0 min 0 W/m² -0,9 °C 1,3 °C 0,0 km/h (0 Bft)
23.03.2026 00:52 21,9 °C 1,3 °C 47 % 85 % 1016,6 hPa 0,0 l/m² 0,0 km/h (0 Bft) W-SW 244 ° 0 min 0 W/m² -0,9 °C 1,3 °C 0,0 km/h (0 Bft)
23.03.2026 00:53 21,9 °C 1,3 °C 47 % 85 % 1016,5 hPa 0,0 l/m² 0,0 km/h (0 Bft) W-SW 244 ° 0 min 0 W/m² -0,9 °C 1,3 °C 0,0 km/h (0 Bft)
23.03.2026 00:54 21,9 °C 1,3 °C 47 % 85 % 1016,6 hPa 0,0 l/m² 0,0 km/h (0 Bft) W-SW 244 ° 0 min 0 W/m² -0,9 °C 1,3 °C 0,0 km/h (0 Bft)
23.03.2026 00:56 21,9 °C 1,3 °C 47 % 85 % 1016,5 hPa 0,0 l/m² 0,4 km/h (0 Bft) W-SW 244 ° 0 min 0 W/m² -0,9 °C 1,3 °C 1,6 km/h (1 Bft)
23.03.2026 00:58 21,9 °C 1,2 °C 47 % 85 % 1016,5 hPa 0,0 l/m² 1,6 km/h (1 Bft) W-SW 244 ° 0 min 0 W/m² -1,0 °C 1,2 °C 4,8 km/h (1 Bft)
23.03.2026 01:00 21,9 °C 1,2 °C 47 % 85 % 1016,5 hPa 0,0 l/m² 3,0 km/h (1 Bft) W-SW 244 ° 0 min 0 W/m² -1,0 °C 1,2 °C 4,8 km/h (1 Bft)
23.03.2026 01:02 21,9 °C 1,2 °C 46 % 86 % 1016,5 hPa 0,0 l/m² 2,8 km/h (1 Bft) W-SW 244 ° 0 min 0 W/m² -0,9 °C 1,2 °C 3,2 km/h (1 Bft)
23.03.2026 01:03 21,9 °C 1,2 °C 47 % 86 % 1016,5 hPa 0,0 l/m² 2,6 km/h (1 Bft) W-SW 244 ° 0 min 0 W/m² -0,9 °C 1,2 °C 3,2 km/h (1 Bft)
23.03.2026 01:05 21,9 °C 1,2 °C 47 % 86 % 1016,4 hPa 0,0 l/m² 3,1 km/h (1 Bft) W-SW 244 ° 0 min 0 W/m² -0,9 °C 1,2 °C 4,8 km/h (1 Bft)
23.03.2026 01:07 21,9 °C 1,2 °C 47 % 86 % 1016,5 hPa 0,0 l/m² 3,3 km/h (1 Bft) W-SW 244 ° 0 min 0 W/m² -0,9 °C 1,2 °C 4,8 km/h (1 Bft)
23.03.2026 01:09 21,9 °C 1,2 °C 47 % 86 % 1016,5 hPa 0,0 l/m² 2,2 km/h (1 Bft) W-SW 244 ° 0 min 0 W/m² -0,9 °C 1,2 °C 3,2 km/h (1 Bft)
23.03.2026 01:11 21,9 °C 1,2 °C 47 % 86 % 1016,5 hPa 0,0 l/m² 0,5 km/h (0 Bft) W-SW 244 ° 0 min 0 W/m² -0,9 °C 1,2 °C 3,2 km/h (1 Bft)
23.03.2026 01:12 21,9 °C 1,2 °C 47 % 86 % 1016,4 hPa 0,0 l/m² 0,6 km/h (0 Bft) W-SW 244 ° 0 min 0 W/m² -0,9 °C 1,2 °C 3,2 km/h (1 Bft)
23.03.2026 01:13 21,9 °C 1,2 °C 47 % 86 % 1016,5 hPa 0,0 l/m² 2,5 km/h (1 Bft) W-SW 244 ° 0 min 0 W/m² -0,9 °C 1,2 °C 4,8 km/h (1 Bft)
23.03.2026 01:15 21,9 °C 1,1 °C 47 % 86 % 1016,5 hPa 0,0 l/m² 0,1 km/h (0 Bft) W-SW 244 ° 0 min 0 W/m² -1,0 °C 1,1 °C 1,6 km/h (1 Bft)
23.03.2026 01:16 21,9 °C 1,1 °C 47 % 86 % 1016,5 hPa 0,0 l/m² 0,0 km/h (0 Bft) W-SW 244 ° 0 min 0 W/m² -1,0 °C 1,1 °C 0,0 km/h (0 Bft)
23.03.2026 01:17 21,9 °C 1,1 °C 47 % 86 % 1016,4 hPa 0,0 l/m² 0,0 km/h (0 Bft) W-SW 244 ° 0 min 0 W/m² -1,0 °C 1,1 °C 0,0 km/h (0 Bft)
23.03.2026 01:18 21,9 °C 1,1 °C 47 % 86 % 1016,5 hPa 0,0 l/m² 0,0 km/h (0 Bft) W-SW 244 ° 0 min 0 W/m² -1,0 °C 1,1 °C 0,0 km/h (0 Bft)
23.03.2026 01:20 21,9 °C 1,1 °C 47 % 86 % 1016,4 hPa 0,0 l/m² 0,0 km/h (0 Bft) W-SW 244 ° 0 min 0 W/m² -1,0 °C 1,1 °C 0,0 km/h (0 Bft)
23.03.2026 01:23 21,9 °C 1,1 °C 47 % 86 % 1016,5 hPa 0,0 l/m² 0,0 km/h (0 Bft) W-SW 244 ° 0 min 0 W/m² -1,0 °C 1,1 °C 0,0 km/h (0 Bft)
23.03.2026 01:25 21,9 °C 1,1 °C 47 % 86 % 1016,4 hPa 0,0 l/m² 0,0 km/h (0 Bft) W-SW 244 ° 0 min 0 W/m² -1,0 °C 1,1 °C 0,0 km/h (0 Bft)
23.03.2026 01:27 21,9 °C 1,0 °C 47 % 86 % 1016,5 hPa 0,0 l/m² 0,0 km/h (0 Bft) W-SW 244 ° 0 min 0 W/m² -1,1 °C 1,0 °C 0,0 km/h (0 Bft)
23.03.2026 01:29 21,8 °C 1,0 °C 47 % 86 % 1016,5 hPa 0,0 l/m² 0,0 km/h (0 Bft) W-SW 244 ° 0 min 0 W/m² -1,1 °C 1,0 °C 0,0 km/h (0 Bft)
23.03.2026 01:31 21,9 °C 1,0 °C 46 % 86 % 1016,4 hPa 0,0 l/m² 0,0 km/h (0 Bft) W-SW 244 ° 0 min 0 W/m² -1,1 °C 1,0 °C 0,0 km/h (0 Bft)
23.03.2026 01:32 21,9 °C 0,9 °C 47 % 86 % 1016,5 hPa 0,0 l/m² 0,0 km/h (0 Bft) W-SW 244 ° 0 min 0 W/m² -1,2 °C 0,9 °C 0,0 km/h (0 Bft)
23.03.2026 01:33 21,9 °C 0,9 °C 47 % 86 % 1016,5 hPa 0,0 l/m² 0,0 km/h (0 Bft) W-SW 244 ° 0 min 0 W/m² -1,2 °C 0,9 °C 0,0 km/h (0 Bft)
23.03.2026 01:35 21,9 °C 0,9 °C 47 % 86 % 1016,3 hPa 0,0 l/m² 0,0 km/h (0 Bft) W-SW 244 ° 0 min 0 W/m² -1,2 °C 0,9 °C 0,0 km/h (0 Bft)
23.03.2026 01:36 21,9 °C 0,9 °C 47 % 86 % 1016,4 hPa 0,0 l/m² 0,0 km/h (0 Bft) W-SW 244 ° 0 min 0 W/m² -1,2 °C 0,9 °C 0,0 km/h (0 Bft)
23.03.2026 01:37 21,9 °C 0,9 °C 47 % 86 % 1016,3 hPa 0,0 l/m² 0,0 km/h (0 Bft) W-SW 244 ° 0 min 0 W/m² -1,2 °C 0,9 °C 0,0 km/h (0 Bft)
23.03.2026 01:38 21,9 °C 0,9 °C 47 % 86 % 1016,3 hPa 0,0 l/m² 0,0 km/h (0 Bft) W-SW 244 ° 0 min 0 W/m² -1,2 °C 0,9 °C 0,0 km/h (0 Bft)
23.03.2026 01:40 21,9 °C 0,9 °C 47 % 86 % 1016,2 hPa 0,0 l/m² 0,0 km/h (0 Bft) W-SW 244 ° 0 min 0 W/m² -1,2 °C 0,9 °C 0,0 km/h (0 Bft)
23.03.2026 01:43 21,9 °C 0,8 °C 47 % 86 % 1016,3 hPa 0,0 l/m² 0,0 km/h (0 Bft) W-SW 244 ° 0 min 0 W/m² -1,3 °C 0,8 °C 0,0 km/h (0 Bft)
23.03.2026 01:45 21,9 °C 0,8 °C 47 % 86 % 1016,3 hPa 0,0 l/m² 0,0 km/h (0 Bft) W-SW 244 ° 0 min 0 W/m² -1,3 °C 0,8 °C 0,0 km/h (0 Bft)
23.03.2026 01:47 21,9 °C 0,8 °C 46 % 86 % 1016,2 hPa 0,0 l/m² 0,0 km/h (0 Bft) W-SW 244 ° 0 min 0 W/m² -1,3 °C 0,8 °C 0,0 km/h (0 Bft)
23.03.2026 01:49 21,9 °C 0,8 °C 47 % 86 % 1016,3 hPa 0,0 l/m² 0,0 km/h (0 Bft) W-SW 244 ° 0 min 0 W/m² -1,3 °C 0,8 °C 0,0 km/h (0 Bft)
23.03.2026 01:51 21,9 °C 0,8 °C 47 % 86 % 1016,3 hPa 0,0 l/m² 0,0 km/h (0 Bft) W-SW 244 ° 0 min 0 W/m² -1,3 °C 0,8 °C 0,0 km/h (0 Bft)
23.03.2026 01:52 21,9 °C 0,7 °C 47 % 86 % 1016,3 hPa 0,0 l/m² 0,0 km/h (0 Bft) W-SW 244 ° 0 min 0 W/m² -1,4 °C 0,7 °C 0,0 km/h (0 Bft)
23.03.2026 01:53 21,9 °C 0,7 °C 47 % 86 % 1016,3 hPa 0,0 l/m² 0,2 km/h (0 Bft) W-SW 244 ° 0 min 0 W/m² -1,4 °C 0,7 °C 1,6 km/h (1 Bft)
23.03.2026 01:54 21,8 °C 0,7 °C 47 % 86 % 1016,2 hPa 0,0 l/m² 1,3 km/h (1 Bft) W-SW 244 ° 0 min 0 W/m² -1,4 °C 0,7 °C 3,2 km/h (1 Bft)
23.03.2026 01:56 21,8 °C 0,7 °C 47 % 86 % 1016,3 hPa 0,0 l/m² 0,3 km/h (0 Bft) W-SW 244 ° 0 min 0 W/m² -1,4 °C 0,7 °C 1,6 km/h (1 Bft)
23.03.2026 01:58 21,9 °C 0,7 °C 47 % 86 % 1016,3 hPa 0,0 l/m² 0,0 km/h (0 Bft) W-SW 244 ° 0 min 0 W/m² -1,4 °C 0,7 °C 0,0 km/h (0 Bft)
23.03.2026 02:00 21,9 °C 0,7 °C 47 % 86 % 1016,2 hPa 0,0 l/m² 0,0 km/h (0 Bft) W-SW 244 ° 0 min 0 W/m² -1,4 °C 0,7 °C 0,0 km/h (0 Bft)
23.03.2026 02:03 21,8 °C 0,7 °C 47 % 86 % 1016,3 hPa 0,0 l/m² 1,6 km/h (1 Bft) W-SW 244 ° 0 min 0 W/m² -1,4 °C 0,7 °C 3,2 km/h (1 Bft)
23.03.2026 02:05 21,9 °C 0,6 °C 47 % 86 % 1016,4 hPa 0,0 l/m² 2,8 km/h (1 Bft) W-SW 244 ° 0 min 0 W/m² -1,5 °C 0,6 °C 4,8 km/h (1 Bft)
23.03.2026 02:07 21,8 °C 0,6 °C 47 % 86 % 1016,3 hPa 0,0 l/m² 4,0 km/h (1 Bft) W-SW 244 ° 0 min 0 W/m² -1,5 °C 0,6 °C 4,8 km/h (1 Bft)
23.03.2026 02:09 21,8 °C 0,6 °C 47 % 86 % 1016,2 hPa 0,0 l/m² 4,4 km/h (1 Bft) W-SW 244 ° 0 min 0 W/m² -1,5 °C 0,6 °C 4,8 km/h (1 Bft)
23.03.2026 02:11 21,9 °C 0,6 °C 47 % 86 % 1016,3 hPa 0,0 l/m² 2,7 km/h (1 Bft) W-SW 244 ° 0 min 0 W/m² -1,5 °C 0,6 °C 4,8 km/h (1 Bft)
23.03.2026 02:12 21,8 °C 0,6 °C 47 % 87 % 1016,3 hPa 0,0 l/m² 0,9 km/h (0 Bft) W-SW 244 ° 0 min 0 W/m² -1,3 °C 0,6 °C 3,2 km/h (1 Bft)
23.03.2026 02:13 21,9 °C 0,6 °C 47 % 87 % 1016,2 hPa 0,0 l/m² 0,0 km/h (0 Bft) W-SW 244 ° 0 min 0 W/m² -1,3 °C 0,6 °C 0,0 km/h (0 Bft)
23.03.2026 02:14 21,8 °C 0,6 °C 47 % 87 % 1016,3 hPa 0,0 l/m² 0,0 km/h (0 Bft) W-SW 244 ° 0 min 0 W/m² -1,3 °C 0,6 °C 0,0 km/h (0 Bft)
23.03.2026 02:16 21,8 °C 0,6 °C 47 % 87 % 1016,3 hPa 0,0 l/m² 0,0 km/h (0 Bft) W-SW 244 ° 0 min 0 W/m² -1,3 °C 0,6 °C 0,0 km/h (0 Bft)
23.03.2026 02:18 21,8 °C 0,6 °C 47 % 87 % 1016,3 hPa 0,0 l/m² 0,0 km/h (0 Bft) W-SW 244 ° 0 min 0 W/m² -1,3 °C 0,6 °C 0,0 km/h (0 Bft)
23.03.2026 02:20 21,8 °C 0,6 °C 47 % 87 % 1016,2 hPa 0,0 l/m² 0,0 km/h (0 Bft) W-SW 244 ° 0 min 0 W/m² -1,3 °C 0,6 °C 0,0 km/h (0 Bft)
23.03.2026 02:23 21,8 °C 0,6 °C 47 % 87 % 1016,2 hPa 0,0 l/m² 0,0 km/h (0 Bft) W-SW 244 ° 0 min 0 W/m² -1,3 °C 0,6 °C 0,0 km/h (0 Bft)
23.03.2026 02:25 21,8 °C 0,6 °C 47 % 87 % 1016,2 hPa 0,0 l/m² 0,7 km/h (0 Bft) W-SW 244 ° 0 min 0 W/m² -1,3 °C 0,6 °C 3,2 km/h (1 Bft)
23.03.2026 02:27 21,8 °C 0,6 °C 47 % 87 % 1016,3 hPa 0,0 l/m² 0,0 km/h (0 Bft) W-SW 244 ° 0 min 0 W/m² -1,3 °C 0,6 °C 0,0 km/h (0 Bft)
23.03.2026 02:29 21,8 °C 0,6 °C 47 % 87 % 1016,3 hPa 0,0 l/m² 0,0 km/h (0 Bft) W-SW 244 ° 0 min 0 W/m² -1,3 °C 0,6 °C 0,0 km/h (0 Bft)
23.03.2026 02:31 21,8 °C 0,6 °C 47 % 87 % 1016,3 hPa 0,0 l/m² 0,0 km/h (0 Bft) W-SW 244 ° 0 min 0 W/m² -1,3 °C 0,6 °C 0,0 km/h (0 Bft)
23.03.2026 02:32 21,8 °C 0,5 °C 47 % 87 % 1016,3 hPa 0,0 l/m² 0,0 km/h (0 Bft) W-SW 244 ° 0 min 0 W/m² -1,4 °C 0,5 °C 0,0 km/h (0 Bft)
23.03.2026 02:33 21,8 °C 0,5 °C 47 % 87 % 1016,3 hPa 0,0 l/m² 0,0 km/h (0 Bft) W-SW 244 ° 0 min 0 W/m² -1,4 °C 0,5 °C 0,0 km/h (0 Bft)
23.03.2026 02:35 21,8 °C 0,5 °C 47 % 87 % 1016,3 hPa 0,0 l/m² 0,0 km/h (0 Bft) W-SW 244 ° 0 min 0 W/m² -1,4 °C 0,5 °C 1,6 km/h (1 Bft)
23.03.2026 02:36 21,8 °C 0,5 °C 47 % 87 % 1016,3 hPa 0,0 l/m² 0,1 km/h (0 Bft) W-SW 244 ° 0 min 0 W/m² -1,4 °C 0,5 °C 1,6 km/h (1 Bft)
23.03.2026 02:37 21,8 °C 0,4 °C 47 % 87 % 1016,3 hPa 0,0 l/m² 0,0 km/h (0 Bft) W-SW 244 ° 0 min 0 W/m² -1,5 °C 0,4 °C 0,0 km/h (0 Bft)
23.03.2026 02:38 21,8 °C 0,5 °C 47 % 87 % 1016,3 hPa 0,0 l/m² 0,3 km/h (0 Bft) W-SW 244 ° 0 min 0 W/m² -1,4 °C 0,5 °C 1,6 km/h (1 Bft)
23.03.2026 02:40 21,8 °C 0,4 °C 47 % 87 % 1016,3 hPa 0,0 l/m² 1,1 km/h (1 Bft) W-SW 244 ° 0 min 0 W/m² -1,5 °C 0,4 °C 3,2 km/h (1 Bft)
23.03.2026 02:43 21,8 °C 0,4 °C 47 % 87 % 1016,3 hPa 0,0 l/m² 1,8 km/h (1 Bft) W-SW 244 ° 0 min 0 W/m² -1,5 °C 0,4 °C 3,2 km/h (1 Bft)
23.03.2026 02:45 21,8 °C 0,4 °C 47 % 87 % 1016,3 hPa 0,0 l/m² 2,5 km/h (1 Bft) W-SW 244 ° 0 min 0 W/m² -1,5 °C 0,4 °C 4,8 km/h (1 Bft)
23.03.2026 02:47 21,8 °C 0,4 °C 47 % 87 % 1016,4 hPa 0,0 l/m² 2,3 km/h (1 Bft) W-SW 244 ° 0 min 0 W/m² -1,5 °C 0,4 °C 4,8 km/h (1 Bft)
23.03.2026 02:49 21,8 °C 0,4 °C 47 % 87 % 1016,3 hPa 0,0 l/m² 0,7 km/h (0 Bft) W-SW 244 ° 0 min 0 W/m² -1,5 °C 0,4 °C 1,6 km/h (1 Bft)
23.03.2026 02:51 21,8 °C 0,3 °C 47 % 87 % 1016,4 hPa 0,0 l/m² 0,3 km/h (0 Bft) W-SW 244 ° 0 min 0 W/m² -1,6 °C 0,3 °C 1,6 km/h (1 Bft)
23.03.2026 02:52 21,8 °C 0,3 °C 47 % 87 % 1016,4 hPa 0,0 l/m² 0,3 km/h (0 Bft) W-SW 244 ° 0 min 0 W/m² -1,6 °C 0,3 °C 1,6 km/h (1 Bft)
23.03.2026 02:53 21,8 °C 0,3 °C 47 % 87 % 1016,4 hPa 0,0 l/m² 2,4 km/h (1 Bft) W-SW 244 ° 0 min 0 W/m² -1,6 °C 0,3 °C 3,2 km/h (1 Bft)
23.03.2026 02:55 21,8 °C 0,3 °C 47 % 87 % 1016,4 hPa 0,0 l/m² 2,3 km/h (1 Bft) W-SW 244 ° 0 min 0 W/m² -1,6 °C 0,3 °C 3,2 km/h (1 Bft)
23.03.2026 02:56 21,8 °C 0,3 °C 47 % 87 % 1016,4 hPa 0,0 l/m² 1,5 km/h (1 Bft) W-SW 244 ° 0 min 0 W/m² -1,6 °C 0,3 °C 3,2 km/h (1 Bft)
23.03.2026 02:57 21,8 °C 0,3 °C 47 % 87 % 1016,4 hPa 0,0 l/m² 0,7 km/h (0 Bft) W-SW 244 ° 0 min 0 W/m² -1,6 °C 0,3 °C 1,6 km/h (1 Bft)
23.03.2026 02:58 21,8 °C 0,3 °C 47 % 87 % 1016,3 hPa 0,0 l/m² 0,0 km/h (0 Bft) W-SW 244 ° 0 min 0 W/m² -1,6 °C 0,3 °C 0,0 km/h (0 Bft)
23.03.2026 03:00 21,8 °C 0,3 °C 47 % 87 % 1016,4 hPa 0,0 l/m² 0,0 km/h (0 Bft) W-SW 244 ° 0 min 0 W/m² -1,6 °C 0,3 °C 0,0 km/h (0 Bft)
23.03.2026 03:02 21,8 °C 0,3 °C 47 % 87 % 1016,4 hPa 0,0 l/m² 0,0 km/h (0 Bft) W-SW 244 ° 0 min 0 W/m² -1,6 °C 0,3 °C 0,0 km/h (0 Bft)
23.03.2026 03:03 21,8 °C 0,3 °C 47 % 87 % 1016,4 hPa 0,0 l/m² 0,0 km/h (0 Bft) W-SW 244 ° 0 min 0 W/m² -1,6 °C 0,3 °C 0,0 km/h (0 Bft)
23.03.2026 03:04 21,8 °C 0,3 °C 47 % 87 % 1016,4 hPa 0,0 l/m² 0,0 km/h (0 Bft) W-SW 244 ° 0 min 0 W/m² -1,6 °C 0,3 °C 0,0 km/h (0 Bft)
23.03.2026 03:06 21,8 °C 0,3 °C 47 % 87 % 1016,3 hPa 0,0 l/m² 0,0 km/h (0 Bft) W-SW 244 ° 0 min 0 W/m² -1,6 °C 0,3 °C 0,0 km/h (0 Bft)
23.03.2026 03:08 21,8 °C 0,2 °C 47 % 87 % 1016,3 hPa 0,0 l/m² 0,0 km/h (0 Bft) W-SW 244 ° 0 min 0 W/m² -1,7 °C 0,2 °C 0,0 km/h (0 Bft)
23.03.2026 03:10 21,8 °C 0,2 °C 47 % 87 % 1016,4 hPa 0,0 l/m² 0,0 km/h (0 Bft) W-SW 244 ° 0 min 0 W/m² -1,7 °C 0,2 °C 0,0 km/h (0 Bft)
23.03.2026 03:12 21,8 °C 0,2 °C 47 % 87 % 1016,3 hPa 0,0 l/m² 0,1 km/h (0 Bft) W-SW 244 ° 0 min 0 W/m² -1,7 °C 0,2 °C 1,6 km/h (1 Bft)
23.03.2026 03:13 21,8 °C 0,2 °C 47 % 87 % 1016,4 hPa 0,0 l/m² 0,0 km/h (0 Bft) W-SW 244 ° 0 min 0 W/m² -1,7 °C 0,2 °C 0,0 km/h (0 Bft)
23.03.2026 03:15 21,8 °C 0,2 °C 47 % 87 % 1016,3 hPa 0,0 l/m² 0,0 km/h (0 Bft) W-SW 244 ° 0 min 0 W/m² -1,7 °C 0,2 °C 0,0 km/h (0 Bft)
23.03.2026 03:17 21,8 °C 0,1 °C 47 % 87 % 1016,4 hPa 0,0 l/m² 0,0 km/h (0 Bft) W-SW 244 ° 0 min 0 W/m² -1,8 °C 0,1 °C 0,0 km/h (0 Bft)
23.03.2026 03:19 21,8 °C 0,1 °C 47 % 87 % 1016,3 hPa 0,0 l/m² 0,0 km/h (0 Bft) W-SW 244 ° 0 min 0 W/m² -1,8 °C 0,1 °C 0,0 km/h (0 Bft)
23.03.2026 03:21 21,8 °C 0,1 °C 47 % 87 % 1016,3 hPa 0,0 l/m² 0,0 km/h (0 Bft) W-SW 244 ° 0 min 0 W/m² -1,8 °C 0,1 °C 0,0 km/h (0 Bft)
23.03.2026 03:22 21,8 °C 0,1 °C 47 % 87 % 1016,4 hPa 0,0 l/m² 0,0 km/h (0 Bft) W-SW 244 ° 0 min 0 W/m² -1,8 °C 0,1 °C 0,0 km/h (0 Bft)
23.03.2026 03:23 21,8 °C 0,1 °C 47 % 87 % 1016,4 hPa 0,0 l/m² 0,5 km/h (0 Bft) W-SW 244 ° 0 min 0 W/m² -1,8 °C 0,1 °C 1,6 km/h (1 Bft)
23.03.2026 03:25 21,8 °C 0,0 °C 47 % 87 % 1016,2 hPa 0,0 l/m² 0,0 km/h (0 Bft) W-SW 244 ° 0 min 0 W/m² -1,9 °C 0,0 °C 1,6 km/h (1 Bft)
23.03.2026 03:26 21,8 °C 0,0 °C 47 % 87 % 1016,4 hPa 0,0 l/m² 0,0 km/h (0 Bft) W-SW 244 ° 0 min 0 W/m² -1,9 °C 0,0 °C 0,0 km/h (0 Bft)
23.03.2026 03:27 21,8 °C -0,1 °C 47 % 87 % 1016,4 hPa 0,0 l/m² 0,0 km/h (0 Bft) W-SW 244 ° 0 min 0 W/m² -2,0 °C -0,1 °C 0,0 km/h (0 Bft)
23.03.2026 03:28 21,8 °C -0,1 °C 47 % 87 % 1016,3 hPa 0,0 l/m² 0,0 km/h (0 Bft) W-SW 244 ° 0 min 0 W/m² -2,0 °C -0,1 °C 0,0 km/h (0 Bft)
23.03.2026 03:30 21,9 °C -0,1 °C 47 % 87 % 1016,4 hPa 0,0 l/m² 0,0 km/h (0 Bft) W-SW 244 ° 0 min 0 W/m² -2,0 °C -0,1 °C 0,0 km/h (0 Bft)
23.03.2026 03:33 21,9 °C -0,1 °C 47 % 87 % 1016,4 hPa 0,0 l/m² 0,0 km/h (0 Bft) W-SW 244 ° 0 min 0 W/m² -2,0 °C -0,1 °C 0,0 km/h (0 Bft)
23.03.2026 03:35 21,8 °C -0,1 °C 47 % 87 % 1016,4 hPa 0,0 l/m² 0,0 km/h (0 Bft) W-SW 244 ° 0 min 0 W/m² -2,0 °C -0,1 °C 0,0 km/h (0 Bft)
23.03.2026 03:37 21,9 °C -0,1 °C 47 % 87 % 1016,4 hPa 0,0 l/m² 0,0 km/h (0 Bft) W-SW 244 ° 0 min 0 W/m² -2,0 °C -0,1 °C 0,0 km/h (0 Bft)
23.03.2026 03:39 21,9 °C -0,2 °C 46 % 87 % 1016,5 hPa 0,0 l/m² 0,0 km/h (0 Bft) W-SW 244 ° 0 min 0 W/m² -2,1 °C -0,2 °C 0,0 km/h (0 Bft)
23.03.2026 03:41 21,8 °C -0,2 °C 46 % 87 % 1016,4 hPa 0,0 l/m² 0,0 km/h (0 Bft) W-SW 244 ° 0 min 0 W/m² -2,1 °C -0,2 °C 0,0 km/h (0 Bft)
23.03.2026 03:42 21,9 °C -0,2 °C 47 % 87 % 1016,4 hPa 0,0 l/m² 0,0 km/h (0 Bft) W-SW 244 ° 0 min 0 W/m² -2,1 °C -0,2 °C 0,0 km/h (0 Bft)
23.03.2026 03:43 21,9 °C -0,2 °C 47 % 87 % 1016,4 hPa 0,0 l/m² 0,0 km/h (0 Bft) W-SW 244 ° 0 min 0 W/m² -2,1 °C -0,2 °C 0,0 km/h (0 Bft)
23.03.2026 03:45 21,9 °C -0,2 °C 46 % 87 % 1016,4 hPa 0,0 l/m² 0,0 km/h (0 Bft) W-SW 244 ° 0 min 0 W/m² -2,1 °C -0,2 °C 0,0 km/h (0 Bft)
23.03.2026 03:48 21,9 °C -0,2 °C 47 % 87 % 1016,4 hPa 0,0 l/m² 0,0 km/h (0 Bft) W-SW 244 ° 0 min 0 W/m² -2,1 °C -0,2 °C 0,0 km/h (0 Bft)
23.03.2026 03:50 21,9 °C -0,3 °C 47 % 87 % 1016,5 hPa 0,0 l/m² 0,0 km/h (0 Bft) W-SW 244 ° 0 min 0 W/m² -2,2 °C -0,3 °C 0,0 km/h (0 Bft)
23.03.2026 03:53 21,9 °C -0,3 °C 47 % 87 % 1016,5 hPa 0,0 l/m² 0,0 km/h (0 Bft) W-SW 244 ° 0 min 0 W/m² -2,2 °C -0,3 °C 0,0 km/h (0 Bft)
23.03.2026 03:55 21,9 °C -0,3 °C 46 % 87 % 1016,5 hPa 0,0 l/m² 0,0 km/h (0 Bft) W-SW 244 ° 0 min 0 W/m² -2,2 °C -0,3 °C 0,0 km/h (0 Bft)
23.03.2026 03:57 21,9 °C -0,3 °C 46 % 88 % 1016,6 hPa 0,0 l/m² 0,0 km/h (0 Bft) W-SW 244 ° 0 min 0 W/m² -2,0 °C -0,3 °C 0,0 km/h (0 Bft)
23.03.2026 03:59 21,9 °C -0,3 °C 46 % 88 % 1016,5 hPa 0,0 l/m² 0,0 km/h (0 Bft) W-SW 244 ° 0 min 0 W/m² -2,0 °C -0,3 °C 0,0 km/h (0 Bft)
23.03.2026 04:01 21,9 °C -0,4 °C 46 % 87 % 1016,6 hPa 0,0 l/m² 0,0 km/h (0 Bft) W-SW 244 ° 0 min 0 W/m² -2,3 °C -0,4 °C 0,0 km/h (0 Bft)
23.03.2026 04:02 21,9 °C -0,4 °C 46 % 87 % 1016,5 hPa 0,0 l/m² 0,1 km/h (0 Bft) W-SW 244 ° 0 min 0 W/m² -2,3 °C -0,4 °C 1,6 km/h (1 Bft)
23.03.2026 04:03 21,9 °C -0,4 °C 46 % 87 % 1016,6 hPa 0,0 l/m² 0,0 km/h (0 Bft) W-SW 244 ° 0 min 0 W/m² -2,3 °C -0,4 °C 0,0 km/h (0 Bft)
23.03.2026 04:05 21,9 °C -0,4 °C 46 % 88 % 1016,6 hPa 0,0 l/m² 0,0 km/h (0 Bft) W-SW 244 ° 0 min 0 W/m² -2,1 °C -0,4 °C 0,0 km/h (0 Bft)
23.03.2026 04:07 21,9 °C -0,4 °C 47 % 88 % 1016,6 hPa 0,0 l/m² 0,0 km/h (0 Bft) W-SW 244 ° 0 min 0 W/m² -2,1 °C -0,4 °C 0,0 km/h (0 Bft)
23.03.2026 04:09 21,9 °C -0,4 °C 46 % 88 % 1016,7 hPa 0,0 l/m² 0,0 km/h (0 Bft) W-SW 244 ° 0 min 0 W/m² -2,1 °C -0,4 °C 0,0 km/h (0 Bft)
23.03.2026 04:11 21,9 °C -0,4 °C 47 % 88 % 1016,6 hPa 0,0 l/m² 0,0 km/h (0 Bft) W-SW 244 ° 0 min 0 W/m² -2,1 °C -0,4 °C 0,0 km/h (0 Bft)
23.03.2026 04:12 21,9 °C -0,4 °C 46 % 88 % 1016,7 hPa 0,0 l/m² 0,0 km/h (0 Bft) W-SW 244 ° 0 min 0 W/m² -2,1 °C -0,4 °C 0,0 km/h (0 Bft)
23.03.2026 04:13 21,9 °C -0,4 °C 46 % 88 % 1016,7 hPa 0,0 l/m² 0,0 km/h (0 Bft) W-SW 244 ° 0 min 0 W/m² -2,1 °C -0,4 °C 0,0 km/h (0 Bft)
23.03.2026 04:14 21,9 °C -0,4 °C 46 % 88 % 1016,7 hPa 0,0 l/m² 0,0 km/h (0 Bft) W-SW 244 ° 0 min 0 W/m² -2,1 °C -0,4 °C 0,0 km/h (0 Bft)
23.03.2026 04:16 21,9 °C -0,4 °C 46 % 88 % 1016,7 hPa 0,0 l/m² 0,0 km/h (0 Bft) W-SW 244 ° 0 min 0 W/m² -2,1 °C -0,4 °C 0,0 km/h (0 Bft)
23.03.2026 04:18 22,0 °C -0,4 °C 46 % 88 % 1016,7 hPa 0,0 l/m² 0,0 km/h (0 Bft) W-SW 244 ° 0 min 0 W/m² -2,1 °C -0,4 °C 0,0 km/h (0 Bft)
23.03.2026 04:20 21,9 °C -0,5 °C 46 % 88 % 1016,7 hPa 0,0 l/m² 0,0 km/h (0 Bft) W-SW 244 ° 0 min 0 W/m² -2,2 °C -0,5 °C 0,0 km/h (0 Bft)
23.03.2026 04:23 21,9 °C -0,5 °C 46 % 88 % 1016,7 hPa 0,0 l/m² 0,0 km/h (0 Bft) W-SW 244 ° 0 min 0 W/m² -2,2 °C -0,5 °C 0,0 km/h (0 Bft)
23.03.2026 04:25 21,9 °C -0,6 °C 46 % 88 % 1016,7 hPa 0,0 l/m² 0,0 km/h (0 Bft) W-SW 244 ° 0 min 0 W/m² -2,3 °C -0,6 °C 0,0 km/h (0 Bft)
23.03.2026 04:27 22,0 °C -0,5 °C 46 % 88 % 1016,7 hPa 0,0 l/m² 0,0 km/h (0 Bft) W-SW 244 ° 0 min 0 W/m² -2,2 °C -0,5 °C 0,0 km/h (0 Bft)
23.03.2026 04:29 22,0 °C -0,6 °C 46 % 88 % 1016,7 hPa 0,0 l/m² 0,0 km/h (0 Bft) W-SW 244 ° 0 min 0 W/m² -2,3 °C -0,6 °C 0,0 km/h (0 Bft)
23.03.2026 04:31 22,0 °C -0,6 °C 46 % 88 % 1016,7 hPa 0,0 l/m² 0,0 km/h (0 Bft) W-SW 244 ° 0 min 0 W/m² -2,3 °C -0,6 °C 0,0 km/h (0 Bft)
23.03.2026 04:32 22,0 °C -0,6 °C 46 % 88 % 1016,7 hPa 0,0 l/m² 0,0 km/h (0 Bft) W-SW 244 ° 0 min 0 W/m² -2,3 °C -0,6 °C 0,0 km/h (0 Bft)
23.03.2026 04:33 22,0 °C -0,7 °C 46 % 88 % 1016,7 hPa 0,0 l/m² 0,0 km/h (0 Bft) W-SW 244 ° 0 min 0 W/m² -2,4 °C -0,7 °C 0,0 km/h (0 Bft)
23.03.2026 04:35 22,0 °C -0,7 °C 46 % 88 % 1016,7 hPa 0,0 l/m² 0,0 km/h (0 Bft) W-SW 244 ° 0 min 0 W/m² -2,4 °C -0,7 °C 0,0 km/h (0 Bft)
23.03.2026 04:36 22,0 °C -0,7 °C 46 % 88 % 1016,7 hPa 0,0 l/m² 0,0 km/h (0 Bft) W-SW 244 ° 0 min 0 W/m² -2,4 °C -0,7 °C 0,0 km/h (0 Bft)
23.03.2026 04:37 22,0 °C -0,7 °C 46 % 88 % 1016,7 hPa 0,0 l/m² 0,0 km/h (0 Bft) W-SW 244 ° 0 min 0 W/m² -2,4 °C -0,7 °C 0,0 km/h (0 Bft)
23.03.2026 04:38 21,9 °C -0,7 °C 46 % 88 % 1016,7 hPa 0,0 l/m² 0,0 km/h (0 Bft) W-SW 244 ° 0 min 0 W/m² -2,4 °C -0,7 °C 0,0 km/h (0 Bft)
23.03.2026 04:40 21,9 °C -0,7 °C 46 % 88 % 1016,7 hPa 0,0 l/m² 0,0 km/h (0 Bft) W-SW 244 ° 0 min 0 W/m² -2,4 °C -0,7 °C 0,0 km/h (0 Bft)
23.03.2026 04:43 21,9 °C -0,8 °C 46 % 88 % 1016,7 hPa 0,0 l/m² 0,0 km/h (0 Bft) W-SW 244 ° 0 min 0 W/m² -2,5 °C -0,8 °C 0,0 km/h (0 Bft)
23.03.2026 04:45 22,0 °C -0,8 °C 46 % 88 % 1016,7 hPa 0,0 l/m² 0,0 km/h (0 Bft) W-SW 244 ° 0 min 0 W/m² -2,5 °C -0,8 °C 0,0 km/h (0 Bft)
23.03.2026 04:47 22,0 °C -0,8 °C 46 % 88 % 1016,7 hPa 0,0 l/m² 0,0 km/h (0 Bft) W-SW 244 ° 0 min 0 W/m² -2,5 °C -0,8 °C 0,0 km/h (0 Bft)
23.03.2026 04:49 21,9 °C -0,8 °C 46 % 88 % 1016,6 hPa 0,0 l/m² 0,0 km/h (0 Bft) W-SW 244 ° 0 min 0 W/m² -2,5 °C -0,8 °C 0,0 km/h (0 Bft)
23.03.2026 04:51 22,0 °C -0,8 °C 46 % 88 % 1016,6 hPa 0,0 l/m² 0,0 km/h (0 Bft) W-SW 244 ° 0 min 0 W/m² -2,5 °C -0,8 °C 0,0 km/h (0 Bft)
23.03.2026 04:52 22,0 °C -0,8 °C 46 % 88 % 1016,7 hPa 0,0 l/m² 0,0 km/h (0 Bft) W-SW 244 ° 0 min 0 W/m² -2,5 °C -0,8 °C 0,0 km/h (0 Bft)
23.03.2026 04:53 22,0 °C -0,8 °C 46 % 88 % 1016,7 hPa 0,0 l/m² 0,0 km/h (0 Bft) W-SW 244 ° 0 min 0 W/m² -2,5 °C -0,8 °C 0,0 km/h (0 Bft)
23.03.2026 04:55 22,0 °C -0,9 °C 46 % 88 % 1016,7 hPa 0,0 l/m² 0,0 km/h (0 Bft) W-SW 244 ° 0 min 0 W/m² -2,6 °C -0,9 °C 0,0 km/h (0 Bft)
23.03.2026 04:56 22,0 °C -0,9 °C 46 % 88 % 1016,7 hPa 0,0 l/m² 0,0 km/h (0 Bft) W-SW 244 ° 0 min 0 W/m² -2,6 °C -0,9 °C 0,0 km/h (0 Bft)
23.03.2026 04:57 22,0 °C -0,9 °C 47 % 88 % 1016,7 hPa 0,0 l/m² 0,0 km/h (0 Bft) W-SW 244 ° 0 min 0 W/m² -2,6 °C -0,9 °C 0,0 km/h (0 Bft)
23.03.2026 04:58 22,0 °C -0,9 °C 47 % 88 % 1016,7 hPa 0,0 l/m² 0,0 km/h (0 Bft) W-SW 244 ° 0 min 0 W/m² -2,6 °C -0,9 °C 0,0 km/h (0 Bft)
23.03.2026 05:00 22,0 °C -0,9 °C 47 % 88 % 1016,7 hPa 0,0 l/m² 0,0 km/h (0 Bft) W-SW 244 ° 0 min 0 W/m² -2,6 °C -0,9 °C 0,0 km/h (0 Bft)
23.03.2026 05:02 22,0 °C -1,0 °C 47 % 88 % 1016,7 hPa 0,0 l/m² 0,0 km/h (0 Bft) W-SW 244 ° 0 min 0 W/m² -2,7 °C -1,0 °C 0,0 km/h (0 Bft)
23.03.2026 05:03 22,0 °C -1,1 °C 47 % 88 % 1016,7 hPa 0,0 l/m² 0,0 km/h (0 Bft) W-SW 244 ° 0 min 0 W/m² -2,8 °C -1,1 °C 0,0 km/h (0 Bft)
23.03.2026 05:04 22,0 °C -1,1 °C 47 % 88 % 1016,8 hPa 0,0 l/m² 0,0 km/h (0 Bft) W-SW 244 ° 0 min 0 W/m² -2,8 °C -1,1 °C 0,0 km/h (0 Bft)
23.03.2026 05:06 22,0 °C -1,1 °C 47 % 88 % 1016,8 hPa 0,0 l/m² 0,0 km/h (0 Bft) W-SW 244 ° 0 min 0 W/m² -2,8 °C -1,1 °C 0,0 km/h (0 Bft)
23.03.2026 05:08 22,0 °C -1,1 °C 47 % 88 % 1016,7 hPa 0,0 l/m² 0,0 km/h (0 Bft) W-SW 244 ° 0 min 0 W/m² -2,8 °C -1,1 °C 0,0 km/h (0 Bft)
23.03.2026 05:10 22,1 °C -1,1 °C 47 % 88 % 1016,7 hPa 0,0 l/m² 0,0 km/h (0 Bft) W-SW 244 ° 0 min 0 W/m² -2,8 °C -1,1 °C 0,0 km/h (0 Bft)
23.03.2026 05:12 22,1 °C -1,1 °C 47 % 88 % 1016,8 hPa 0,0 l/m² 0,0 km/h (0 Bft) W-SW 244 ° 0 min 0 W/m² -2,8 °C -1,1 °C 0,0 km/h (0 Bft)
23.03.2026 05:13 22,1 °C -1,1 °C 47 % 88 % 1016,8 hPa 0,0 l/m² 0,0 km/h (0 Bft) W-SW 244 ° 0 min 0 W/m² -2,8 °C -1,1 °C 0,0 km/h (0 Bft)
23.03.2026 05:15 22,1 °C -1,2 °C 47 % 88 % 1016,9 hPa 0,0 l/m² 0,0 km/h (0 Bft) W-SW 244 ° 0 min 0 W/m² -2,9 °C -1,2 °C 0,0 km/h (0 Bft)
23.03.2026 05:17 22,0 °C -1,2 °C 47 % 88 % 1016,8 hPa 0,0 l/m² 0,0 km/h (0 Bft) W-SW 244 ° 0 min 0 W/m² -2,9 °C -1,2 °C 0,0 km/h (0 Bft)
23.03.2026 05:19 22,1 °C -1,2 °C 47 % 88 % 1016,8 hPa 0,0 l/m² 0,0 km/h (0 Bft) W-SW 244 ° 0 min 0 W/m² -2,9 °C -1,2 °C 0,0 km/h (0 Bft)
23.03.2026 05:21 22,1 °C -1,3 °C 47 % 88 % 1016,8 hPa 0,0 l/m² 0,0 km/h (0 Bft) W-SW 244 ° 0 min 0 W/m² -3,0 °C -1,3 °C 0,0 km/h (0 Bft)
23.03.2026 05:22 22,0 °C -1,3 °C 47 % 88 % 1016,8 hPa 0,0 l/m² 0,0 km/h (0 Bft) W-SW 244 ° 0 min 0 W/m² -3,0 °C -1,3 °C 0,0 km/h (0 Bft)
23.03.2026 05:23 22,1 °C -1,3 °C 47 % 88 % 1016,8 hPa 0,0 l/m² 0,0 km/h (0 Bft) W-SW 244 ° 0 min 0 W/m² -3,0 °C -1,3 °C 0,0 km/h (0 Bft)
23.03.2026 05:25 22,1 °C -1,3 °C 47 % 88 % 1016,8 hPa 0,0 l/m² 0,0 km/h (0 Bft) W-SW 244 ° 0 min 0 W/m² -3,0 °C -1,3 °C 0,0 km/h (0 Bft)
23.03.2026 05:26 22,1 °C -1,3 °C 47 % 88 % 1016,8 hPa 0,0 l/m² 0,0 km/h (0 Bft) W-SW 244 ° 0 min 0 W/m² -3,0 °C -1,3 °C 0,0 km/h (0 Bft)
23.03.2026 05:28 22,1 °C -1,4 °C 47 % 88 % 1016,8 hPa 0,0 l/m² 0,0 km/h (0 Bft) W-SW 244 ° 0 min 0 W/m² -3,1 °C -1,4 °C 0,0 km/h (0 Bft)
23.03.2026 05:30 22,0 °C -1,4 °C 46 % 88 % 1016,7 hPa 0,0 l/m² 0,0 km/h (0 Bft) W-SW 244 ° 0 min 0 W/m² -3,1 °C -1,4 °C 0,0 km/h (0 Bft)
23.03.2026 05:33 22,1 °C -1,4 °C 47 % 88 % 1016,8 hPa 0,0 l/m² 0,0 km/h (0 Bft) W-SW 244 ° 0 min 0 W/m² -3,1 °C -1,4 °C 0,0 km/h (0 Bft)
23.03.2026 05:35 22,0 °C -1,5 °C 46 % 87 % 1016,8 hPa 0,0 l/m² 0,0 km/h (0 Bft) W-SW 244 ° 0 min 0 W/m² -3,4 °C -1,5 °C 0,0 km/h (0 Bft)
23.03.2026 05:37 22,1 °C -1,5 °C 46 % 88 % 1016,9 hPa 0,0 l/m² 0,0 km/h (0 Bft) W-SW 244 ° 0 min 0 W/m² -3,2 °C -1,5 °C 0,0 km/h (0 Bft)
23.03.2026 05:39 22,1 °C -1,6 °C 46 % 87 % 1016,9 hPa 0,0 l/m² 0,0 km/h (0 Bft) W-SW 244 ° 0 min 0 W/m² -3,5 °C -1,6 °C 0,0 km/h (0 Bft)
23.03.2026 05:41 22,0 °C -1,6 °C 46 % 88 % 1016,9 hPa 0,0 l/m² 0,0 km/h (0 Bft) W-SW 244 ° 0 min 0 W/m² -3,3 °C -1,6 °C 0,0 km/h (0 Bft)
23.03.2026 05:42 22,0 °C -1,6 °C 46 % 88 % 1016,9 hPa 0,0 l/m² 0,0 km/h (0 Bft) W-SW 244 ° 0 min 0 W/m² -3,3 °C -1,6 °C 0,0 km/h (0 Bft)
23.03.2026 05:43 22,1 °C -1,6 °C 46 % 88 % 1016,9 hPa 0,0 l/m² 0,0 km/h (0 Bft) W-SW 244 ° 0 min 0 W/m² -3,3 °C -1,6 °C 0,0 km/h (0 Bft)
23.03.2026 05:45 22,1 °C -1,6 °C 46 % 88 % 1016,9 hPa 0,0 l/m² 0,0 km/h (0 Bft) W-SW 244 ° 0 min 0 W/m² -3,3 °C -1,6 °C 0,0 km/h (0 Bft)
23.03.2026 05:46 22,0 °C -1,7 °C 47 % 88 % 1016,9 hPa 0,0 l/m² 0,0 km/h (0 Bft) W-SW 244 ° 0 min 0 W/m² -3,4 °C -1,7 °C 0,0 km/h (0 Bft)
23.03.2026 05:47 22,0 °C -1,7 °C 46 % 88 % 1016,9 hPa 0,0 l/m² 0,0 km/h (0 Bft) W-SW 244 ° 0 min 0 W/m² -3,4 °C -1,7 °C 0,0 km/h (0 Bft)
23.03.2026 05:48 22,1 °C -1,7 °C 46 % 88 % 1016,9 hPa 0,0 l/m² 0,0 km/h (0 Bft) W-SW 244 ° 0 min 0 W/m² -3,4 °C -1,7 °C 0,0 km/h (0 Bft)
23.03.2026 05:50 22,0 °C -1,7 °C 46 % 88 % 1016,9 hPa 0,0 l/m² 0,0 km/h (0 Bft) W-SW 244 ° 0 min 0 W/m² -3,4 °C -1,7 °C 0,0 km/h (0 Bft)
23.03.2026 05:53 22,1 °C -1,7 °C 46 % 88 % 1017,0 hPa 0,0 l/m² 0,0 km/h (0 Bft) W-SW 244 ° 0 min 0 W/m² -3,4 °C -1,7 °C 0,0 km/h (0 Bft)
23.03.2026 05:55 22,1 °C -1,7 °C 46 % 88 % 1016,9 hPa 0,0 l/m² 0,0 km/h (0 Bft) W-SW 244 ° 0 min 0 W/m² -3,4 °C -1,7 °C 0,0 km/h (0 Bft)
23.03.2026 05:57 22,1 °C -1,7 °C 46 % 88 % 1017,0 hPa 0,0 l/m² 0,0 km/h (0 Bft) W-SW 244 ° 0 min 0 W/m² -3,4 °C -1,7 °C 0,0 km/h (0 Bft)
23.03.2026 05:59 22,1 °C -1,7 °C 46 % 88 % 1017,0 hPa 0,0 l/m² 0,0 km/h (0 Bft) W-SW 244 ° 0 min 0 W/m² -3,4 °C -1,7 °C 0,0 km/h (0 Bft)
23.03.2026 06:01 22,0 °C -1,8 °C 46 % 88 % 1017,0 hPa 0,0 l/m² 0,0 km/h (0 Bft) W-SW 244 ° 0 min 0 W/m² -3,5 °C -1,8 °C 0,0 km/h (0 Bft)
23.03.2026 06:02 22,1 °C -1,7 °C 46 % 88 % 1017,0 hPa 0,0 l/m² 0,0 km/h (0 Bft) W-SW 244 ° 0 min 0 W/m² -3,4 °C -1,7 °C 0,0 km/h (0 Bft)
23.03.2026 06:03 22,1 °C -1,8 °C 46 % 88 % 1017,0 hPa 0,0 l/m² 0,0 km/h (0 Bft) W-SW 244 ° 0 min 0 W/m² -3,5 °C -1,8 °C 0,0 km/h (0 Bft)
23.03.2026 06:05 22,0 °C -1,8 °C 46 % 88 % 1017,0 hPa 0,0 l/m² 0,0 km/h (0 Bft) W-SW 244 ° 0 min 0 W/m² -3,5 °C -1,8 °C 0,0 km/h (0 Bft)
23.03.2026 06:07 22,1 °C -1,8 °C 46 % 88 % 1017,0 hPa 0,0 l/m² 0,0 km/h (0 Bft) W-SW 244 ° 0 min 0 W/m² -3,5 °C -1,8 °C 0,0 km/h (0 Bft)
23.03.2026 06:09 22,0 °C -1,8 °C 46 % 88 % 1017,1 hPa 0,0 l/m² 0,0 km/h (0 Bft) W-SW 244 ° 0 min 5 W/m² -3,5 °C -1,8 °C 0,0 km/h (0 Bft)
23.03.2026 06:11 22,1 °C -1,8 °C 46 % 88 % 1017,1 hPa 0,0 l/m² 0,0 km/h (0 Bft) W-SW 244 ° 0 min 5 W/m² -3,5 °C -1,8 °C 0,0 km/h (0 Bft)
23.03.2026 06:12 22,1 °C -1,8 °C 46 % 88 % 1017,1 hPa 0,0 l/m² 0,0 km/h (0 Bft) W-SW 244 ° 0 min 5 W/m² -3,5 °C -1,8 °C 0,0 km/h (0 Bft)
23.03.2026 06:13 22,1 °C -1,8 °C 46 % 88 % 1017,1 hPa 0,0 l/m² 0,0 km/h (0 Bft) W-SW 244 ° 0 min 7 W/m² -3,5 °C -1,8 °C 0,0 km/h (0 Bft)
23.03.2026 06:15 22,1 °C -1,8 °C 46 % 88 % 1017,0 hPa 0,0 l/m² 0,0 km/h (0 Bft) W-SW 244 ° 0 min 7 W/m² -3,5 °C -1,8 °C 0,0 km/h (0 Bft)
23.03.2026 06:16 22,1 °C -1,8 °C 46 % 88 % 1017,1 hPa 0,0 l/m² 0,0 km/h (0 Bft) W-SW 244 ° 0 min 9 W/m² -3,5 °C -1,8 °C 0,0 km/h (0 Bft)
23.03.2026 06:17 22,1 °C -1,8 °C 46 % 88 % 1017,1 hPa 0,0 l/m² 0,0 km/h (0 Bft) W-SW 244 ° 0 min 9 W/m² -3,5 °C -1,8 °C 0,0 km/h (0 Bft)
23.03.2026 06:18 22,1 °C -1,8 °C 47 % 88 % 1017,1 hPa 0,0 l/m² 0,0 km/h (0 Bft) W-SW 244 ° 0 min 9 W/m² -3,5 °C -1,8 °C 0,0 km/h (0 Bft)
23.03.2026 06:20 22,1 °C -1,8 °C 47 % 88 % 1017,1 hPa 0,0 l/m² 0,0 km/h (0 Bft) W-SW 244 ° 0 min 11 W/m² -3,5 °C -1,8 °C 0,0 km/h (0 Bft)
23.03.2026 06:23 22,1 °C -1,8 °C 47 % 88 % 1017,2 hPa 0,0 l/m² 0,0 km/h (0 Bft) W-SW 244 ° 0 min 12 W/m² -3,5 °C -1,8 °C 0,0 km/h (0 Bft)
23.03.2026 06:25 22,1 °C -1,9 °C 47 % 88 % 1017,2 hPa 0,0 l/m² 0,0 km/h (0 Bft) W-SW 244 ° 0 min 14 W/m² -3,6 °C -1,9 °C 0,0 km/h (0 Bft)
23.03.2026 06:27 22,1 °C -1,9 °C 47 % 88 % 1017,2 hPa 0,0 l/m² 0,0 km/h (0 Bft) W-SW 244 ° 0 min 16 W/m² -3,6 °C -1,9 °C 0,0 km/h (0 Bft)
23.03.2026 06:29 22,1 °C -1,9 °C 47 % 88 % 1017,2 hPa 0,0 l/m² 0,0 km/h (0 Bft) W-SW 244 ° 0 min 16 W/m² -3,6 °C -1,9 °C 0,0 km/h (0 Bft)
23.03.2026 06:31 22,1 °C -1,9 °C 47 % 88 % 1017,2 hPa 0,0 l/m² 0,0 km/h (0 Bft) W-SW 244 ° 0 min 18 W/m² -3,6 °C -1,9 °C 0,0 km/h (0 Bft)
23.03.2026 06:32 22,1 °C -1,9 °C 47 % 88 % 1017,3 hPa 0,0 l/m² 0,0 km/h (0 Bft) W-SW 244 ° 0 min 18 W/m² -3,6 °C -1,9 °C 0,0 km/h (0 Bft)
23.03.2026 06:33 22,1 °C -1,9 °C 47 % 88 % 1017,3 hPa 0,0 l/m² 0,0 km/h (0 Bft) W-SW 244 ° 0 min 19 W/m² -3,6 °C -1,9 °C 0,0 km/h (0 Bft)
23.03.2026 06:35 22,1 °C -1,9 °C 47 % 88 % 1017,2 hPa 0,0 l/m² 0,0 km/h (0 Bft) W-SW 244 ° 0 min 19 W/m² -3,6 °C -1,9 °C 0,0 km/h (0 Bft)
23.03.2026 06:36 22,1 °C -1,9 °C 47 % 88 % 1017,3 hPa 0,0 l/m² 0,0 km/h (0 Bft) W-SW 244 ° 0 min 21 W/m² -3,6 °C -1,9 °C 0,0 km/h (0 Bft)
23.03.2026 06:38 22,1 °C -1,9 °C 47 % 88 % 1017,3 hPa 0,0 l/m² 0,0 km/h (0 Bft) W-SW 244 ° 0 min 23 W/m² -3,6 °C -1,9 °C 0,0 km/h (0 Bft)
23.03.2026 06:40 22,1 °C -1,8 °C 47 % 88 % 1017,3 hPa 0,0 l/m² 0,0 km/h (0 Bft) W-SW 244 ° 0 min 25 W/m² -3,5 °C -1,8 °C 0,0 km/h (0 Bft)
23.03.2026 06:43 22,1 °C -1,8 °C 45 % 89 % 1017,3 hPa 0,0 l/m² 0,0 km/h (0 Bft) W-SW 244 ° 0 min 30 W/m² -3,4 °C -1,8 °C 0,0 km/h (0 Bft)
23.03.2026 06:46 22,1 °C -1,8 °C 45 % 89 % 1017,4 hPa 0,0 l/m² 0,0 km/h (0 Bft) W-SW 244 ° 0 min 35 W/m² -3,4 °C -1,8 °C 0,0 km/h (0 Bft)
23.03.2026 06:48 22,1 °C -1,7 °C 44 % 89 % 1017,4 hPa 0,0 l/m² 0,0 km/h (0 Bft) W-SW 244 ° 0 min 39 W/m² -3,3 °C -1,7 °C 0,0 km/h (0 Bft)
23.03.2026 06:50 22,1 °C -1,7 °C 44 % 89 % 1017,5 hPa 0,0 l/m² 0,0 km/h (0 Bft) W-SW 244 ° 0 min 44 W/m² -3,3 °C -1,7 °C 0,0 km/h (0 Bft)
23.03.2026 06:53 22,0 °C -1,6 °C 44 % 89 % 1017,4 hPa 0,0 l/m² 0,7 km/h (0 Bft) W-SW 244 ° 0 min 51 W/m² -3,2 °C -1,6 °C 3,2 km/h (1 Bft)
23.03.2026 06:55 22,0 °C -1,5 °C 44 % 89 % 1017,4 hPa 0,0 l/m² 1,6 km/h (1 Bft) W-SW 244 ° 2 min 56 W/m² -3,1 °C -1,5 °C 3,2 km/h (1 Bft)
23.03.2026 06:57 22,0 °C -1,4 °C 44 % 89 % 1017,5 hPa 0,0 l/m² 2,6 km/h (1 Bft) W-SW 244 ° 2 min 60 W/m² -3,0 °C -1,4 °C 4,8 km/h (1 Bft)
23.03.2026 06:59 22,0 °C -1,3 °C 44 % 89 % 1017,5 hPa 0,0 l/m² 2,0 km/h (1 Bft) W-SW 244 ° 2 min 63 W/m² -2,9 °C -1,3 °C 3,2 km/h (1 Bft)
23.03.2026 07:01 22,0 °C -1,3 °C 45 % 89 % 1017,5 hPa 0,0 l/m² 1,5 km/h (1 Bft) W-SW 244 ° 2 min 70 W/m² -2,9 °C -1,3 °C 3,2 km/h (1 Bft)
23.03.2026 07:02 22,0 °C -1,3 °C 45 % 89 % 1017,4 hPa 0,0 l/m² 2,1 km/h (1 Bft) W-SW 244 ° 1 min 72 W/m² -2,9 °C -1,3 °C 3,2 km/h (1 Bft)
23.03.2026 07:03 22,0 °C -1,2 °C 45 % 90 % 1017,5 hPa 0,0 l/m² 0,9 km/h (0 Bft) W-SW 244 ° 1 min 76 W/m² -2,6 °C -1,2 °C 3,2 km/h (1 Bft)
23.03.2026 07:05 22,1 °C -1,2 °C 45 % 90 % 1017,5 hPa 0,0 l/m² 1,0 km/h (0 Bft) W-SW 244 ° 2 min 79 W/m² -2,6 °C -1,2 °C 3,2 km/h (1 Bft)
23.03.2026 07:06 22,1 °C -1,1 °C 45 % 90 % 1017,5 hPa 0,0 l/m² 0,3 km/h (0 Bft) W-SW 244 ° 1 min 84 W/m² -2,5 °C -1,1 °C 1,6 km/h (1 Bft)
23.03.2026 07:07 22,1 °C -1,1 °C 44 % 90 % 1017,5 hPa 0,0 l/m² 1,8 km/h (1 Bft) W-SW 244 ° 1 min 86 W/m² -2,5 °C -1,1 °C 3,2 km/h (1 Bft)
23.03.2026 07:08 22,1 °C -1,1 °C 44 % 90 % 1017,5 hPa 0,0 l/m² 4,2 km/h (1 Bft) W-SW 249 ° 1 min 88 W/m² -2,5 °C -1,1 °C 4,8 km/h (1 Bft)
23.03.2026 07:10 22,1 °C -0,9 °C 44 % 90 % 1017,5 hPa 0,0 l/m² 3,9 km/h (1 Bft) W-SW 249 ° 2 min 91 W/m² -2,3 °C -0,9 °C 4,8 km/h (1 Bft)
23.03.2026 07:12 22,1 °C -0,8 °C 44 % 90 % 1017,6 hPa 0,0 l/m² 3,1 km/h (1 Bft) W-SW 249 ° 2 min 98 W/m² -2,2 °C -0,8 °C 4,8 km/h (1 Bft)
23.03.2026 07:13 22,1 °C -0,8 °C 44 % 90 % 1017,5 hPa 0,0 l/m² 3,8 km/h (1 Bft) W-SW 249 ° 1 min 102 W/m² -2,2 °C -0,8 °C 4,8 km/h (1 Bft)
23.03.2026 07:14 22,1 °C -0,8 °C 44 % 90 % 1017,5 hPa 0,0 l/m² 2,7 km/h (1 Bft) W-SW 249 ° 1 min 104 W/m² -2,2 °C -0,8 °C 4,8 km/h (1 Bft)
23.03.2026 07:16 22,1 °C -0,7 °C 44 % 90 % 1017,6 hPa 0,0 l/m² 3,0 km/h (1 Bft) W-SW 249 ° 2 min 105 W/m² -2,1 °C -0,7 °C 4,8 km/h (1 Bft)
23.03.2026 07:18 22,0 °C -0,6 °C 44 % 90 % 1017,6 hPa 0,0 l/m² 1,8 km/h (1 Bft) W-SW 249 ° 2 min 111 W/m² -2,0 °C -0,6 °C 3,2 km/h (1 Bft)
23.03.2026 07:20 22,1 °C -0,5 °C 44 % 90 % 1017,5 hPa 0,0 l/m² 0,6 km/h (0 Bft) W-SW 249 ° 2 min 114 W/m² -1,9 °C -0,5 °C 3,2 km/h (1 Bft)
23.03.2026 07:23 22,0 °C -0,3 °C 44 % 90 % 1017,5 hPa 0,0 l/m² 1,7 km/h (1 Bft) W-SW 249 ° 3 min 121 W/m² -1,7 °C -0,3 °C 4,8 km/h (1 Bft)
23.03.2026 07:25 22,0 °C -0,3 °C 43 % 90 % 1017,6 hPa 0,0 l/m² 2,7 km/h (1 Bft) W-SW 249 ° 2 min 125 W/m² -1,7 °C -0,3 °C 4,8 km/h (1 Bft)
23.03.2026 07:27 22,0 °C -0,2 °C 43 % 90 % 1017,5 hPa 0,0 l/m² 3,7 km/h (1 Bft) W-SW 244 ° 2 min 130 W/m² -1,6 °C -0,2 °C 4,8 km/h (1 Bft)
23.03.2026 07:29 22,0 °C -0,1 °C 43 % 91 % 1017,6 hPa 0,0 l/m² 3,6 km/h (1 Bft) W-SW 238 ° 2 min 137 W/m² -1,4 °C -0,1 °C 6,4 km/h (2 Bft)
23.03.2026 07:31 22,0 °C 0,1 °C 43 % 91 % 1017,6 hPa 0,0 l/m² 2,9 km/h (1 Bft) W-SW 237 ° 2 min 141 W/m² -1,2 °C 0,1 °C 4,8 km/h (1 Bft)
23.03.2026 07:32 22,0 °C 0,1 °C 43 % 91 % 1017,6 hPa 0,0 l/m² 1,3 km/h (1 Bft) W-SW 238 ° 1 min 142 W/m² -1,2 °C 0,1 °C 3,2 km/h (1 Bft)
23.03.2026 07:33 22,0 °C 0,1 °C 43 % 91 % 1017,6 hPa 0,0 l/m² 2,7 km/h (1 Bft) W-SW 238 ° 1 min 144 W/m² -1,2 °C 0,1 °C 3,2 km/h (1 Bft)
23.03.2026 07:35 22,0 °C 0,2 °C 43 % 91 % 1017,6 hPa 0,0 l/m² 2,3 km/h (1 Bft) W-SW 240 ° 2 min 151 W/m² -1,1 °C 0,2 °C 4,8 km/h (1 Bft)
23.03.2026 07:36 22,1 °C 0,3 °C 44 % 91 % 1017,7 hPa 0,0 l/m² 4,3 km/h (1 Bft) W-SW 240 ° 1 min 153 W/m² -1,0 °C 0,3 °C 6,4 km/h (2 Bft)
23.03.2026 07:37 22,1 °C 0,3 °C 44 % 91 % 1017,7 hPa 0,0 l/m² 2,3 km/h (1 Bft) W-SW 240 ° 1 min 156 W/m² -1,0 °C 0,3 °C 4,8 km/h (1 Bft)
23.03.2026 07:38 22,0 °C 0,4 °C 44 % 91 % 1017,6 hPa 0,0 l/m² 2,5 km/h (1 Bft) W-SW 239 ° 1 min 158 W/m² -0,9 °C 0,4 °C 3,2 km/h (1 Bft)
23.03.2026 07:40 22,1 °C 0,5 °C 44 % 91 % 1017,7 hPa 0,0 l/m² 3,7 km/h (1 Bft) W-SW 240 ° 2 min 163 W/m² -0,8 °C 0,5 °C 6,4 km/h (2 Bft)
23.03.2026 07:43 22,0 °C 0,7 °C 44 % 91 % 1017,6 hPa 0,0 l/m² 2,8 km/h (1 Bft) W-SW 241 ° 3 min 172 W/m² -0,6 °C 0,7 °C 6,4 km/h (2 Bft)
23.03.2026 07:45 22,0 °C 0,8 °C 44 % 91 % 1017,6 hPa 0,0 l/m² 2,8 km/h (1 Bft) W-SW 241 ° 2 min 178 W/m² -0,5 °C 0,8 °C 4,8 km/h (1 Bft)
23.03.2026 07:47 22,1 °C 0,9 °C 44 % 91 % 1017,7 hPa 0,0 l/m² 4,1 km/h (1 Bft) W-SW 246 ° 2 min 186 W/m² -0,4 °C 0,9 °C 6,4 km/h (2 Bft)
23.03.2026 07:49 22,0 °C 1,1 °C 44 % 91 % 1017,7 hPa 0,0 l/m² 4,7 km/h (1 Bft) W-SW 246 ° 2 min 192 W/m² -0,2 °C 1,1 °C 6,4 km/h (2 Bft)
23.03.2026 07:51 22,1 °C 1,2 °C 44 % 91 % 1017,7 hPa 0,0 l/m² 4,7 km/h (1 Bft) W-SW 248 ° 2 min 197 W/m² -0,1 °C 1,2 °C 6,4 km/h (2 Bft)
23.03.2026 07:52 22,1 °C 1,2 °C 44 % 91 % 1017,7 hPa 0,0 l/m² 4,3 km/h (1 Bft) W-SW 248 ° 1 min 197 W/m² -0,1 °C 1,2 °C 4,8 km/h (1 Bft)
23.03.2026 07:53 22,1 °C 1,3 °C 44 % 91 % 1017,7 hPa 0,0 l/m² 5,3 km/h (1 Bft) W-SW 248 ° 1 min 195 W/m² -0,0 °C 1,3 °C 6,4 km/h (2 Bft)
23.03.2026 07:55 22,1 °C 1,4 °C 44 % 91 % 1017,7 hPa 0,0 l/m² 3,7 km/h (1 Bft) W-SW 248 ° 2 min 202 W/m² 0,1 °C 1,4 °C 6,4 km/h (2 Bft)
23.03.2026 07:56 22,1 °C 1,4 °C 44 % 91 % 1017,7 hPa 0,0 l/m² 3,6 km/h (1 Bft) W-SW 248 ° 1 min 211 W/m² 0,1 °C 1,4 °C 6,4 km/h (2 Bft)
23.03.2026 07:57 22,0 °C 1,5 °C 44 % 91 % 1017,7 hPa 0,0 l/m² 4,4 km/h (1 Bft) W-SW 248 ° 1 min 214 W/m² 0,2 °C 1,5 °C 6,4 km/h (2 Bft)
23.03.2026 07:58 22,0 °C 1,6 °C 44 % 91 % 1017,7 hPa 0,0 l/m² 5,5 km/h (2 Bft) W-SW 248 ° 1 min 216 W/m² 0,3 °C 1,6 °C 6,4 km/h (2 Bft)
23.03.2026 08:00 22,1 °C 1,7 °C 44 % 91 % 1017,8 hPa 0,0 l/m² 4,7 km/h (1 Bft) W-SW 248 ° 2 min 223 W/m² 0,4 °C 1,7 °C 6,4 km/h (2 Bft)
23.03.2026 08:03 22,1 °C 1,9 °C 44 % 91 % 1017,7 hPa 0,0 l/m² 4,5 km/h (1 Bft) W-SW 248 ° 3 min 230 W/m² 0,6 °C 1,9 °C 6,4 km/h (2 Bft)
23.03.2026 08:05 22,1 °C 1,9 °C 44 % 91 % 1017,8 hPa 0,0 l/m² 4,4 km/h (1 Bft) W-SW 250 ° 2 min 239 W/m² 0,6 °C 1,9 °C 8,0 km/h (2 Bft)
23.03.2026 08:07 22,1 °C 2,1 °C 44 % 91 % 1017,8 hPa 0,0 l/m² 5,7 km/h (2 Bft) W-SW 250 ° 2 min 244 W/m² 0,8 °C 2,1 °C 6,4 km/h (2 Bft)
23.03.2026 08:09 22,1 °C 2,2 °C 44 % 91 % 1017,8 hPa 0,0 l/m² 5,5 km/h (2 Bft) W-SW 250 ° 2 min 248 W/m² 0,9 °C 2,2 °C 8,0 km/h (2 Bft)
23.03.2026 08:11 22,1 °C 2,3 °C 44 % 91 % 1017,8 hPa 0,0 l/m² 5,4 km/h (2 Bft) W-SW 250 ° 2 min 255 W/m² 1,0 °C 2,3 °C 8,0 km/h (2 Bft)
23.03.2026 08:12 22,1 °C 2,4 °C 44 % 91 % 1017,9 hPa 0,0 l/m² 5,2 km/h (1 Bft) W-SW 250 ° 1 min 257 W/m² 1,1 °C 2,4 °C 6,4 km/h (2 Bft)
23.03.2026 08:13 22,1 °C 2,4 °C 44 % 91 % 1017,9 hPa 0,0 l/m² 4,6 km/h (1 Bft) W-SW 250 ° 1 min 260 W/m² 1,1 °C 2,4 °C 6,4 km/h (2 Bft)
23.03.2026 08:15 22,1 °C 2,6 °C 44 % 91 % 1017,9 hPa 0,0 l/m² 5,7 km/h (2 Bft) W-SW 250 ° 2 min 267 W/m² 1,3 °C 2,6 °C 8,0 km/h (2 Bft)
23.03.2026 08:16 22,1 °C 2,7 °C 44 % 91 % 1017,9 hPa 0,0 l/m² 6,0 km/h (2 Bft) W-SW 250 ° 1 min 272 W/m² 1,4 °C 2,7 °C 6,4 km/h (2 Bft)
23.03.2026 08:17 22,1 °C 2,8 °C 44 % 91 % 1017,9 hPa 0,0 l/m² 6,1 km/h (2 Bft) W-SW 250 ° 1 min 276 W/m² 1,5 °C 2,8 °C 8,0 km/h (2 Bft)
23.03.2026 08:18 22,1 °C 2,8 °C 44 % 91 % 1017,9 hPa 0,0 l/m² 5,9 km/h (2 Bft) W-SW 250 ° 1 min 278 W/m² 1,5 °C 2,8 °C 6,4 km/h (2 Bft)
23.03.2026 08:20 22,1 °C 3,0 °C 44 % 91 % 1017,9 hPa 0,0 l/m² 5,5 km/h (2 Bft) W-SW 250 ° 2 min 285 W/m² 1,7 °C 3,0 °C 8,0 km/h (2 Bft)
23.03.2026 08:23 22,1 °C 3,2 °C 44 % 91 % 1017,9 hPa 0,0 l/m² 5,6 km/h (2 Bft) W-SW 250 ° 3 min 295 W/m² 1,9 °C 3,2 °C 8,0 km/h (2 Bft)
23.03.2026 08:25 22,1 °C 3,3 °C 44 % 90 % 1017,9 hPa 0,0 l/m² 4,1 km/h (1 Bft) W-SW 250 ° 2 min 301 W/m² 1,8 °C 3,3 °C 6,4 km/h (2 Bft)
23.03.2026 08:27 22,1 °C 3,5 °C 44 % 90 % 1017,9 hPa 0,0 l/m² 4,9 km/h (1 Bft) W-SW 250 ° 2 min 304 W/m² 2,0 °C 3,5 °C 6,4 km/h (2 Bft)
23.03.2026 08:29 22,2 °C 3,7 °C 44 % 90 % 1017,8 hPa 0,0 l/m² 3,2 km/h (1 Bft) W-SW 250 ° 2 min 311 W/m² 2,2 °C 3,7 °C 4,8 km/h (1 Bft)
23.03.2026 08:31 22,2 °C 3,8 °C 44 % 90 % 1017,8 hPa 0,0 l/m² 4,4 km/h (1 Bft) SW 232 ° 2 min 316 W/m² 2,3 °C 3,8 °C 6,4 km/h (2 Bft)
23.03.2026 08:32 22,1 °C 3,9 °C 44 % 90 % 1017,9 hPa 0,0 l/m² 4,2 km/h (1 Bft) SW 233 ° 1 min 318 W/m² 2,4 °C 3,9 °C 6,4 km/h (2 Bft)
23.03.2026 08:33 22,2 °C 3,9 °C 44 % 90 % 1017,9 hPa 0,0 l/m² 3,5 km/h (1 Bft) SW 232 ° 1 min 318 W/m² 2,4 °C 3,9 °C 4,8 km/h (1 Bft)
23.03.2026 08:35 22,2 °C 4,1 °C 44 % 89 % 1017,9 hPa 0,0 l/m² 5,1 km/h (1 Bft) W-SW 241 ° 2 min 329 W/m² 2,5 °C 4,1 °C 8,0 km/h (2 Bft)
23.03.2026 08:37 22,2 °C 4,3 °C 44 % 89 % 1017,9 hPa 0,0 l/m² 4,8 km/h (1 Bft) W-SW 242 ° 2 min 325 W/m² 2,7 °C 4,3 °C 6,4 km/h (2 Bft)
23.03.2026 08:39 22,2 °C 4,4 °C 44 % 89 % 1018,0 hPa 0,0 l/m² 3,9 km/h (1 Bft) W-SW 242 ° 2 min 323 W/m² 2,7 °C 4,4 °C 6,4 km/h (2 Bft)
23.03.2026 08:41 22,2 °C 4,6 °C 44 % 88 % 1017,9 hPa 0,0 l/m² 2,9 km/h (1 Bft) W-SW 242 ° 2 min 325 W/m² 2,8 °C 4,6 °C 4,8 km/h (1 Bft)
23.03.2026 08:42 22,2 °C 4,7 °C 44 % 88 % 1017,9 hPa 0,0 l/m² 5,2 km/h (1 Bft) W-SW 242 ° 1 min 329 W/m² 2,9 °C 4,7 °C 6,4 km/h (2 Bft)
23.03.2026 08:43 22,2 °C 4,7 °C 44 % 88 % 1017,9 hPa 0,0 l/m² 4,0 km/h (1 Bft) W-SW 242 ° 1 min 330 W/m² 2,9 °C 4,7 °C 6,4 km/h (2 Bft)
23.03.2026 08:45 22,2 °C 4,8 °C 44 % 88 % 1017,8 hPa 0,0 l/m² 3,4 km/h (1 Bft) W-SW 242 ° 2 min 338 W/m² 3,0 °C 4,8 °C 4,8 km/h (1 Bft)
23.03.2026 08:46 22,2 °C 4,9 °C 44 % 87 % 1017,9 hPa 0,0 l/m² 2,1 km/h (1 Bft) W-SW 242 ° 1 min 339 W/m² 2,9 °C 4,9 °C 6,4 km/h (2 Bft)
23.03.2026 08:47 22,2 °C 5,0 °C 44 % 87 % 1017,9 hPa 0,0 l/m² 3,5 km/h (1 Bft) W-SW 243 ° 1 min 343 W/m² 3,0 °C 5,0 °C 4,8 km/h (1 Bft)
23.03.2026 08:48 22,2 °C 5,1 °C 44 % 87 % 1017,9 hPa 0,0 l/m² 3,7 km/h (1 Bft) W-SW 242 ° 1 min 346 W/m² 3,1 °C 5,1 °C 4,8 km/h (1 Bft)
23.03.2026 08:50 22,2 °C 5,2 °C 44 % 87 % 1017,9 hPa 0,0 l/m² 2,7 km/h (1 Bft) W-SW 242 ° 2 min 357 W/m² 3,2 °C 5,2 °C 4,8 km/h (1 Bft)
23.03.2026 08:53 22,2 °C 5,4 °C 44 % 86 % 1017,9 hPa 0,0 l/m² 5,2 km/h (1 Bft) W-SW 244 ° 3 min 376 W/m² 3,3 °C 5,4 °C 8,0 km/h (2 Bft)
23.03.2026 08:55 22,3 °C 5,7 °C 44 % 85 % 1017,9 hPa 0,0 l/m² 4,6 km/h (1 Bft) W-SW 252 ° 2 min 380 W/m² 3,4 °C 5,7 °C 8,0 km/h (2 Bft)
23.03.2026 08:57 22,2 °C 5,8 °C 44 % 85 % 1018,0 hPa 0,0 l/m² 3,8 km/h (1 Bft) W-SW 255 ° 2 min 388 W/m² 3,5 °C 5,8 °C 6,4 km/h (2 Bft)
23.03.2026 08:59 22,3 °C 5,9 °C 44 % 85 % 1018,0 hPa 0,0 l/m² 4,3 km/h (1 Bft) W-SW 255 ° 2 min 385 W/m² 3,6 °C 5,9 °C 6,4 km/h (2 Bft)
23.03.2026 09:01 22,3 °C 6,1 °C 44 % 84 % 1018,0 hPa 0,0 l/m² 4,3 km/h (1 Bft) W-SW 255 ° 2 min 392 W/m² 3,6 °C 6,1 °C 6,4 km/h (2 Bft)
23.03.2026 09:02 22,3 °C 6,2 °C 44 % 84 % 1017,9 hPa 0,0 l/m² 5,2 km/h (1 Bft) W-SW 256 ° 1 min 399 W/m² 3,7 °C 6,2 °C 11,3 km/h (2 Bft)
23.03.2026 09:03 22,3 °C 6,4 °C 44 % 84 % 1018,0 hPa 0,0 l/m² 3,7 km/h (1 Bft) W-SW 256 ° 1 min 399 W/m² 3,9 °C 6,4 °C 6,4 km/h (2 Bft)
23.03.2026 09:05 22,3 °C 6,5 °C 44 % 83 % 1018,0 hPa 0,0 l/m² 5,1 km/h (1 Bft) W-SW 258 ° 2 min 404 W/m² 3,8 °C 6,5 °C 9,7 km/h (2 Bft)
23.03.2026 09:06 22,3 °C 6,7 °C 44 % 82 % 1018,0 hPa 0,0 l/m² 4,6 km/h (1 Bft) W-SW 258 ° 1 min 408 W/m² 3,8 °C 6,7 °C 9,7 km/h (2 Bft)
23.03.2026 09:07 22,3 °C 6,7 °C 44 % 82 % 1018,0 hPa 0,0 l/m² 5,5 km/h (2 Bft) W-SW 258 ° 1 min 413 W/m² 3,8 °C 6,7 °C 6,4 km/h (2 Bft)
23.03.2026 09:09 22,3 °C 6,9 °C 44 % 81 % 1018,0 hPa 0,0 l/m² 6,5 km/h (2 Bft) W-SW 258 ° 2 min 420 W/m² 3,9 °C 6,8 °C 9,7 km/h (2 Bft)
23.03.2026 09:11 22,3 °C 7,1 °C 44 % 80 % 1017,9 hPa 0,0 l/m² 6,3 km/h (2 Bft) W 259 ° 2 min 427 W/m² 3,9 °C 7,1 °C 11,3 km/h (2 Bft)
23.03.2026 09:12 22,3 °C 7,2 °C 44 % 80 % 1018,0 hPa 0,0 l/m² 5,0 km/h (1 Bft) W-SW 258 ° 1 min 429 W/m² 4,0 °C 7,2 °C 6,4 km/h (2 Bft)
23.03.2026 09:13 22,3 °C 7,3 °C 44 % 79 % 1018,0 hPa 0,0 l/m² 7,0 km/h (2 Bft) W-SW 258 ° 1 min 431 W/m² 3,9 °C 6,8 °C 9,7 km/h (2 Bft)
23.03.2026 09:15 22,3 °C 7,5 °C 44 % 79 % 1017,9 hPa 0,0 l/m² 5,3 km/h (1 Bft) W 259 ° 2 min 439 W/m² 4,1 °C 7,5 °C 9,7 km/h (2 Bft)
23.03.2026 09:16 22,3 °C 7,7 °C 44 % 79 % 1018,0 hPa 0,0 l/m² 5,1 km/h (1 Bft) W 259 ° 1 min 439 W/m² 4,3 °C 7,7 °C 9,7 km/h (2 Bft)
23.03.2026 09:17 22,3 °C 7,7 °C 44 % 78 % 1018,0 hPa 0,0 l/m² 6,1 km/h (2 Bft) W 259 ° 1 min 438 W/m² 4,1 °C 7,7 °C 9,7 km/h (2 Bft)
23.03.2026 09:18 22,3 °C 7,8 °C 44 % 78 % 1018,0 hPa 0,0 l/m² 6,0 km/h (2 Bft) W-SW 257 ° 1 min 436 W/m² 4,2 °C 7,8 °C 8,0 km/h (2 Bft)
23.03.2026 09:20 22,3 °C 8,0 °C 44 % 77 % 1018,0 hPa 0,0 l/m² 5,6 km/h (2 Bft) W 261 ° 2 min 439 W/m² 4,2 °C 8,0 °C 11,3 km/h (2 Bft)
23.03.2026 09:23 22,3 °C 8,3 °C 44 % 76 % 1018,0 hPa 0,0 l/m² 7,4 km/h (2 Bft) W 265 ° 3 min 450 W/m² 4,3 °C 7,5 °C 11,3 km/h (2 Bft)
23.03.2026 09:25 22,3 °C 8,5 °C 44 % 75 % 1018,0 hPa 0,0 l/m² 7,4 km/h (2 Bft) W 261 ° 2 min 454 W/m² 4,3 °C 7,7 °C 9,7 km/h (2 Bft)
23.03.2026 09:27 22,3 °C 8,7 °C 44 % 74 % 1018,1 hPa 0,0 l/m² 6,6 km/h (2 Bft) W 277 ° 2 min 462 W/m² 4,3 °C 8,6 °C 11,3 km/h (2 Bft)
23.03.2026 09:29 22,3 °C 8,9 °C 45 % 74 % 1018,0 hPa 0,0 l/m² 6,2 km/h (2 Bft) W 273 ° 2 min 464 W/m² 4,5 °C 8,9 °C 9,7 km/h (2 Bft)
23.03.2026 09:31 22,3 °C 9,0 °C 45 % 73 % 1018,0 hPa 0,0 l/m² 6,2 km/h (2 Bft) W 277 ° 2 min 466 W/m² 4,4 °C 9,0 °C 11,3 km/h (2 Bft)
23.03.2026 09:32 22,3 °C 9,1 °C 45 % 72 % 1018,0 hPa 0,0 l/m² 5,6 km/h (2 Bft) W 281 ° 1 min 471 W/m² 4,3 °C 9,1 °C 11,3 km/h (2 Bft)
23.03.2026 09:33 22,3 °C 9,2 °C 45 % 72 % 1018,0 hPa 0,0 l/m² 5,5 km/h (2 Bft) W 274 ° 1 min 475 W/m² 4,4 °C 9,2 °C 9,7 km/h (2 Bft)
23.03.2026 09:35 22,3 °C 9,3 °C 45 % 71 % 1018,0 hPa 0,0 l/m² 7,4 km/h (2 Bft) W 273 ° 2 min 473 W/m² 4,3 °C 8,6 °C 11,3 km/h (2 Bft)
23.03.2026 09:36 22,3 °C 9,4 °C 45 % 71 % 1018,0 hPa 0,0 l/m² 7,6 km/h (2 Bft) W 274 ° 1 min 469 W/m² 4,4 °C 8,5 °C 9,7 km/h (2 Bft)
23.03.2026 09:37 22,3 °C 9,5 °C 45 % 70 % 1018,0 hPa 0,0 l/m² 3,3 km/h (1 Bft) W 274 ° 1 min 471 W/m² 4,3 °C 9,5 °C 4,8 km/h (1 Bft)
23.03.2026 09:38 22,3 °C 9,6 °C 45 % 71 % 1018,0 hPa 0,0 l/m² 4,0 km/h (1 Bft) W 272 ° 1 min 476 W/m² 4,6 °C 9,6 °C 6,4 km/h (2 Bft)
23.03.2026 09:40 22,3 °C 9,7 °C 45 % 70 % 1018,0 hPa 0,0 l/m² 4,2 km/h (1 Bft) W 270 ° 2 min 485 W/m² 4,5 °C 9,7 °C 9,7 km/h (2 Bft)
23.03.2026 09:43 22,4 °C 9,9 °C 45 % 69 % 1018,1 hPa 0,0 l/m² 2,6 km/h (1 Bft) W 273 ° 3 min 480 W/m² 4,5 °C 9,9 °C 6,4 km/h (2 Bft)
23.03.2026 09:46 22,4 °C 10,2 °C 45 % 69 % 1018,0 hPa 0,0 l/m² 4,2 km/h (1 Bft) W 270 ° 3 min 492 W/m² 4,8 °C 10,2 °C 6,4 km/h (2 Bft)
23.03.2026 09:48 22,4 °C 10,3 °C 45 % 68 % 1018,0 hPa 0,0 l/m² 4,0 km/h (1 Bft) W 263 ° 2 min 489 W/m² 4,7 °C 10,3 °C 6,4 km/h (2 Bft)
23.03.2026 09:50 22,4 °C 10,4 °C 45 % 68 % 1018,0 hPa 0,0 l/m² 4,6 km/h (1 Bft) W 265 ° 2 min 524 W/m² 4,8 °C 10,4 °C 6,4 km/h (2 Bft)
23.03.2026 09:53 22,4 °C 10,7 °C 45 % 67 % 1018,0 hPa 0,0 l/m² 4,2 km/h (1 Bft) W 259 ° 3 min 527 W/m² 4,8 °C 10,7 °C 6,4 km/h (2 Bft)
23.03.2026 09:55 22,4 °C 10,8 °C 45 % 66 % 1018,0 hPa 0,0 l/m² 3,4 km/h (1 Bft) W-SW 242 ° 2 min 531 W/m² 4,7 °C 10,8 °C 8,0 km/h (2 Bft)
23.03.2026 09:57 22,4 °C 11,0 °C 45 % 66 % 1018,1 hPa 0,0 l/m² 3,9 km/h (1 Bft) W-SW 245 ° 2 min 536 W/m² 4,9 °C 11,0 °C 6,4 km/h (2 Bft)
23.03.2026 09:59 22,4 °C 11,2 °C 45 % 66 % 1018,2 hPa 0,0 l/m² 3,0 km/h (1 Bft) W-SW 241 ° 2 min 541 W/m² 5,1 °C 11,2 °C 6,4 km/h (2 Bft)
23.03.2026 10:01 22,4 °C 11,3 °C 45 % 65 % 1018,1 hPa 0,0 l/m² 1,8 km/h (1 Bft) W 267 ° 2 min 548 W/m² 5,0 °C 11,3 °C 8,0 km/h (2 Bft)
23.03.2026 10:02 22,4 °C 11,4 °C 45 % 65 % 1018,1 hPa 0,0 l/m² 1,0 km/h (0 Bft) W 268 ° 1 min 548 W/m² 5,1 °C 11,4 °C 4,8 km/h (1 Bft)
23.03.2026 10:03 22,4 °C 11,4 °C 45 % 65 % 1018,1 hPa 0,0 l/m² 1,5 km/h (1 Bft) W-SW 244 ° 1 min 552 W/m² 5,1 °C 11,4 °C 3,2 km/h (1 Bft)
23.03.2026 10:05 22,4 °C 11,6 °C 45 % 65 % 1018,1 hPa 0,0 l/m² 3,7 km/h (1 Bft) W-SW 238 ° 2 min 555 W/m² 5,2 °C 11,6 °C 6,4 km/h (2 Bft)
23.03.2026 10:06 22,4 °C 11,7 °C 45 % 65 % 1018,1 hPa 0,0 l/m² 3,0 km/h (1 Bft) S-SW 196 ° 1 min 557 W/m² 5,3 °C 11,7 °C 6,4 km/h (2 Bft)
23.03.2026 10:07 22,4 °C 11,8 °C 45 % 64 % 1018,1 hPa 0,0 l/m² 3,8 km/h (1 Bft) SW 225 ° 1 min 559 W/m² 5,2 °C 11,8 °C 6,4 km/h (2 Bft)
23.03.2026 10:08 22,4 °C 11,8 °C 45 % 64 % 1018,1 hPa 0,0 l/m² 5,0 km/h (1 Bft) SW 224 ° 1 min 561 W/m² 5,2 °C 11,8 °C 6,4 km/h (2 Bft)
23.03.2026 10:10 22,4 °C 12,0 °C 45 % 63 % 1018,1 hPa 0,0 l/m² 3,0 km/h (1 Bft) SW 225 ° 2 min 564 W/m² 5,2 °C 12,0 °C 6,4 km/h (2 Bft)
23.03.2026 10:13 22,4 °C 12,2 °C 45 % 63 % 1018,1 hPa 0,0 l/m² 2,2 km/h (1 Bft) SW 226 ° 3 min 570 W/m² 5,4 °C 12,2 °C 4,8 km/h (1 Bft)
23.03.2026 10:15 22,4 °C 12,4 °C 45 % 63 % 1018,1 hPa 0,0 l/m² 5,4 km/h (2 Bft) S-SW 211 ° 2 min 573 W/m² 5,6 °C 12,4 °C 8,0 km/h (2 Bft)
23.03.2026 10:17 22,4 °C 12,5 °C 45 % 63 % 1018,2 hPa 0,0 l/m² 5,8 km/h (2 Bft) S-SW 205 ° 2 min 578 W/m² 5,7 °C 12,5 °C 8,0 km/h (2 Bft)
23.03.2026 10:19 22,4 °C 12,7 °C 45 % 62 % 1018,2 hPa 0,0 l/m² 5,8 km/h (2 Bft) S 178 ° 2 min 580 W/m² 5,6 °C 12,7 °C 6,4 km/h (2 Bft)
23.03.2026 10:21 22,4 °C 12,8 °C 45 % 62 % 1018,2 hPa 0,0 l/m² 4,0 km/h (1 Bft) W-SW 252 ° 2 min 584 W/m² 5,7 °C 12,8 °C 6,4 km/h (2 Bft)
23.03.2026 10:22 22,4 °C 12,9 °C 45 % 62 % 1018,1 hPa 0,0 l/m² 1,5 km/h (1 Bft) SW 222 ° 1 min 587 W/m² 5,8 °C 12,9 °C 3,2 km/h (1 Bft)
23.03.2026 10:23 22,4 °C 12,9 °C 45 % 61 % 1018,1 hPa 0,0 l/m² 0,0 km/h (0 Bft) SW 222 ° 1 min 589 W/m² 5,6 °C 12,9 °C 0,0 km/h (0 Bft)
23.03.2026 10:25 22,4 °C 13,1 °C 45 % 62 % 1018,2 hPa 0,0 l/m² 0,2 km/h (0 Bft) SW 225 ° 2 min 592 W/m² 6,0 °C 13,1 °C 1,6 km/h (1 Bft)
23.03.2026 10:26 22,4 °C 13,2 °C 45 % 62 % 1018,2 hPa 0,0 l/m² 2,6 km/h (1 Bft) S-SW 202 ° 1 min 596 W/m² 6,1 °C 13,2 °C 4,8 km/h (1 Bft)
23.03.2026 10:27 22,4 °C 13,2 °C 45 % 61 % 1018,2 hPa 0,0 l/m² 0,0 km/h (0 Bft) S-SW 202 ° 1 min 599 W/m² 5,8 °C 13,2 °C 0,0 km/h (0 Bft)
23.03.2026 10:28 22,4 °C 13,3 °C 45 % 61 % 1018,2 hPa 0,0 l/m² 0,3 km/h (0 Bft) S-SW 202 ° 1 min 598 W/m² 5,9 °C 13,3 °C 1,6 km/h (1 Bft)
23.03.2026 10:30 22,4 °C 13,4 °C 45 % 60 % 1018,1 hPa 0,0 l/m² 0,1 km/h (0 Bft) S-SW 198 ° 2 min 599 W/m² 5,8 °C 13,4 °C 1,6 km/h (1 Bft)
23.03.2026 10:33 22,4 °C 13,6 °C 45 % 60 % 1018,2 hPa 0,0 l/m² 2,0 km/h (1 Bft) S-SW 198 ° 3 min 606 W/m² 6,0 °C 13,6 °C 4,8 km/h (1 Bft)
23.03.2026 10:35 22,4 °C 13,7 °C 45 % 60 % 1018,2 hPa 0,0 l/m² 1,3 km/h (1 Bft) S-SO 161 ° 2 min 610 W/m² 6,1 °C 13,7 °C 6,4 km/h (2 Bft)
23.03.2026 10:37 22,5 °C 13,9 °C 45 % 58 % 1018,2 hPa 0,0 l/m² 0,7 km/h (0 Bft) S-SO 161 ° 2 min 613 W/m² 5,8 °C 13,9 °C 3,2 km/h (1 Bft)
23.03.2026 10:39 22,5 °C 14,0 °C 45 % 58 % 1018,2 hPa 0,0 l/m² 0,9 km/h (0 Bft) S 186 ° 2 min 613 W/m² 5,9 °C 14,0 °C 3,2 km/h (1 Bft)
23.03.2026 10:41 22,5 °C 14,2 °C 45 % 57 % 1018,2 hPa 0,0 l/m² 3,7 km/h (1 Bft) S 188 ° 2 min 621 W/m² 5,8 °C 14,2 °C 8,0 km/h (2 Bft)
23.03.2026 10:42 22,5 °C 14,2 °C 45 % 56 % 1018,3 hPa 0,0 l/m² 4,6 km/h (1 Bft) S 187 ° 1 min 621 W/m² 5,6 °C 14,2 °C 6,4 km/h (2 Bft)
23.03.2026 10:43 22,5 °C 14,2 °C 45 % 56 % 1018,3 hPa 0,0 l/m² 4,6 km/h (1 Bft) S 174 ° 1 min 624 W/m² 5,6 °C 14,2 °C 6,4 km/h (2 Bft)
23.03.2026 10:45 22,6 °C 14,3 °C 45 % 56 % 1018,3 hPa 0,0 l/m² 1,3 km/h (1 Bft) S 174 ° 2 min 626 W/m² 5,6 °C 14,3 °C 4,8 km/h (1 Bft)
23.03.2026 10:46 22,5 °C 14,3 °C 45 % 55 % 1018,3 hPa 0,0 l/m² 2,4 km/h (1 Bft) S-SO 165 ° 1 min 624 W/m² 5,4 °C 14,3 °C 4,8 km/h (1 Bft)
23.03.2026 10:47 22,5 °C 14,4 °C 45 % 54 % 1018,3 hPa 0,0 l/m² 1,8 km/h (1 Bft) S-SO 155 ° 1 min 629 W/m² 5,2 °C 14,4 °C 4,8 km/h (1 Bft)
23.03.2026 10:48 22,5 °C 14,4 °C 45 % 54 % 1018,3 hPa 0,0 l/m² 1,4 km/h (1 Bft) S-SO 155 ° 1 min 628 W/m² 5,2 °C 14,4 °C 4,8 km/h (1 Bft)
23.03.2026 10:50 22,5 °C 14,5 °C 45 % 55 % 1018,3 hPa 0,0 l/m² 0,0 km/h (0 Bft) S-SO 155 ° 2 min 631 W/m² 5,6 °C 14,5 °C 0,0 km/h (0 Bft)
23.03.2026 10:53 22,6 °C 14,7 °C 45 % 54 % 1018,3 hPa 0,0 l/m² 3,6 km/h (1 Bft) O 79 ° 3 min 633 W/m² 5,5 °C 14,7 °C 8,0 km/h (2 Bft)
23.03.2026 10:55 22,5 °C 14,8 °C 45 % 53 % 1018,3 hPa 0,0 l/m² 2,9 km/h (1 Bft) O-SO 111 ° 2 min 633 W/m² 5,3 °C 14,8 °C 11,3 km/h (2 Bft)
23.03.2026 10:57 22,6 °C 14,9 °C 45 % 52 % 1018,3 hPa 0,0 l/m² 4,2 km/h (1 Bft) O-SO 104 ° 2 min 642 W/m² 5,1 °C 14,9 °C 9,7 km/h (2 Bft)
23.03.2026 10:59 22,6 °C 14,9 °C 45 % 53 % 1018,3 hPa 0,0 l/m² 3,3 km/h (1 Bft) O-SO 106 ° 2 min 643 W/m² 5,4 °C 14,9 °C 6,4 km/h (2 Bft)
23.03.2026 11:01 22,6 °C 15,1 °C 45 % 52 % 1018,3 hPa 0,0 l/m² 0,8 km/h (0 Bft) O-SO 106 ° 2 min 652 W/m² 5,3 °C 15,1 °C 3,2 km/h (1 Bft)
23.03.2026 11:02 22,6 °C 15,1 °C 45 % 53 % 1018,3 hPa 0,0 l/m² 0,2 km/h (0 Bft) O-SO 105 ° 1 min 650 W/m² 5,6 °C 15,1 °C 1,6 km/h (1 Bft)
23.03.2026 11:03 22,6 °C 15,2 °C 45 % 53 % 1018,3 hPa 0,0 l/m² 4,7 km/h (1 Bft) O-SO 107 ° 1 min 649 W/m² 5,7 °C 15,2 °C 6,4 km/h (2 Bft)
23.03.2026 11:05 22,6 °C 15,2 °C 45 % 51 % 1018,3 hPa 0,0 l/m² 5,2 km/h (1 Bft) SO 127 ° 2 min 650 W/m² 5,1 °C 15,2 °C 6,4 km/h (2 Bft)
23.03.2026 11:07 22,6 °C 15,3 °C 45 % 50 % 1018,3 hPa 0,0 l/m² 3,4 km/h (1 Bft) O-SO 107 ° 2 min 656 W/m² 4,9 °C 15,3 °C 6,4 km/h (2 Bft)
23.03.2026 11:09 22,6 °C 15,3 °C 45 % 50 % 1018,4 hPa 0,0 l/m² 2,2 km/h (1 Bft) O-SO 107 ° 2 min 656 W/m² 4,9 °C 15,3 °C 6,4 km/h (2 Bft)
23.03.2026 11:11 22,6 °C 15,4 °C 45 % 50 % 1018,5 hPa 0,0 l/m² 4,6 km/h (1 Bft) O-NO 69 ° 2 min 652 W/m² 5,0 °C 15,4 °C 9,7 km/h (2 Bft)
23.03.2026 11:12 22,6 °C 15,4 °C 45 % 49 % 1018,5 hPa 0,0 l/m² 5,9 km/h (2 Bft) O-SO 117 ° 1 min 654 W/m² 4,7 °C 15,4 °C 9,7 km/h (2 Bft)
23.03.2026 11:13 22,6 °C 15,5 °C 45 % 48 % 1018,5 hPa 0,0 l/m² 6,2 km/h (2 Bft) O-SO 103 ° 1 min 656 W/m² 4,5 °C 15,5 °C 9,7 km/h (2 Bft)
23.03.2026 11:15 22,6 °C 15,5 °C 45 % 46 % 1018,4 hPa 0,0 l/m² 12,7 km/h (3 Bft) O 83 ° 2 min 661 W/m² 3,9 °C 12,6 °C 17,7 km/h (3 Bft)
23.03.2026 11:17 22,6 °C 15,5 °C 45 % 47 % 1018,4 hPa 0,0 l/m² 4,8 km/h (1 Bft) O-NO 74 ° 2 min 657 W/m² 4,2 °C 15,5 °C 11,3 km/h (2 Bft)
23.03.2026 11:19 22,7 °C 15,6 °C 45 % 47 % 1018,4 hPa 0,0 l/m² 4,2 km/h (1 Bft) O-SO 105 ° 2 min 659 W/m² 4,3 °C 15,6 °C 6,4 km/h (2 Bft)
23.03.2026 11:21 22,7 °C 15,6 °C 45 % 47 % 1018,4 hPa 0,0 l/m² 0,9 km/h (0 Bft) O 86 ° 2 min 663 W/m² 4,3 °C 15,6 °C 3,2 km/h (1 Bft)
23.03.2026 11:22 22,7 °C 15,6 °C 45 % 46 % 1018,5 hPa 0,0 l/m² 0,8 km/h (0 Bft) O 86 ° 1 min 664 W/m² 4,0 °C 15,6 °C 3,2 km/h (1 Bft)
23.03.2026 11:23 22,7 °C 15,7 °C 45 % 47 % 1018,5 hPa 0,0 l/m² 0,0 km/h (0 Bft) O 86 ° 1 min 666 W/m² 4,4 °C 15,7 °C 0,0 km/h (0 Bft)
23.03.2026 11:25 22,7 °C 15,7 °C 45 % 48 % 1018,4 hPa 0,0 l/m² 0,9 km/h (0 Bft) O 92 ° 2 min 675 W/m² 4,7 °C 15,7 °C 4,8 km/h (1 Bft)
23.03.2026 11:26 22,7 °C 15,8 °C 45 % 45 % 1018,5 hPa 0,0 l/m² 4,5 km/h (1 Bft) O 92 ° 1 min 677 W/m² 3,9 °C 15,8 °C 6,4 km/h (2 Bft)
23.03.2026 11:27 22,7 °C 15,8 °C 45 % 46 % 1018,5 hPa 0,0 l/m² 10,3 km/h (2 Bft) O 99 ° 1 min 675 W/m² 4,2 °C 13,9 °C 14,5 km/h (3 Bft)
23.03.2026 11:28 22,7 °C 15,8 °C 45 % 46 % 1018,5 hPa 0,0 l/m² 5,3 km/h (1 Bft) O 88 ° 1 min 673 W/m² 4,2 °C 15,8 °C 9,7 km/h (2 Bft)
23.03.2026 11:30 22,7 °C 15,9 °C 45 % 47 % 1018,4 hPa 0,0 l/m² 8,7 km/h (2 Bft) O-NO 57 ° 2 min 675 W/m² 4,6 °C 14,7 °C 14,5 km/h (3 Bft)
23.03.2026 11:33 22,7 °C 16,1 °C 45 % 48 % 1018,5 hPa 0,0 l/m² 7,0 km/h (2 Bft) N-NO 24 ° 3 min 675 W/m² 5,1 °C 15,8 °C 16,1 km/h (3 Bft)
23.03.2026 11:35 22,7 °C 16,2 °C 45 % 47 % 1018,5 hPa 0,0 l/m² 5,2 km/h (1 Bft) O-NO 57 ° 2 min 673 W/m² 4,9 °C 16,2 °C 11,3 km/h (2 Bft)
23.03.2026 11:37 22,7 °C 16,3 °C 45 % 47 % 1018,5 hPa 0,0 l/m² 4,8 km/h (1 Bft) NO 52 ° 2 min 677 W/m² 5,0 °C 16,3 °C 9,7 km/h (2 Bft)
23.03.2026 11:39 22,8 °C 16,4 °C 45 % 48 % 1018,5 hPa 0,0 l/m² 4,5 km/h (1 Bft) O-NO 78 ° 2 min 682 W/m² 5,4 °C 16,4 °C 6,4 km/h (2 Bft)
23.03.2026 11:41 22,8 °C 16,6 °C 45 % 45 % 1018,5 hPa 0,0 l/m² 4,4 km/h (1 Bft) O-NO 58 ° 2 min 680 W/m² 4,6 °C 16,6 °C 11,3 km/h (2 Bft)
23.03.2026 11:42 22,8 °C 16,6 °C 45 % 46 % 1018,5 hPa 0,0 l/m² 0,0 km/h (0 Bft) O-NO 58 ° 1 min 682 W/m² 4,9 °C 16,6 °C 0,0 km/h (0 Bft)
23.03.2026 11:43 22,8 °C 16,7 °C 45 % 45 % 1018,5 hPa 0,0 l/m² 1,4 km/h (1 Bft) O-NO 58 ° 1 min 682 W/m² 4,7 °C 16,7 °C 3,2 km/h (1 Bft)
23.03.2026 11:45 22,8 °C 16,7 °C 45 % 46 % 1018,6 hPa 0,0 l/m² 4,5 km/h (1 Bft) NO 54 ° 2 min 682 W/m² 5,0 °C 16,7 °C 8,0 km/h (2 Bft)
23.03.2026 11:46 22,8 °C 16,8 °C 45 % 46 % 1018,7 hPa 0,0 l/m² 0,1 km/h (0 Bft) NO 55 ° 1 min 687 W/m² 5,1 °C 16,8 °C 1,6 km/h (1 Bft)
23.03.2026 11:47 22,8 °C 16,8 °C 45 % 44 % 1018,7 hPa 0,0 l/m² 0,8 km/h (0 Bft) O-SO 111 ° 1 min 687 W/m² 4,5 °C 16,8 °C 1,6 km/h (1 Bft)
23.03.2026 11:48 22,8 °C 16,8 °C 45 % 43 % 1018,7 hPa 0,0 l/m² 0,0 km/h (0 Bft) O-SO 111 ° 1 min 689 W/m² 4,2 °C 16,8 °C 0,0 km/h (0 Bft)
23.03.2026 11:50 22,8 °C 16,9 °C 45 % 45 % 1018,7 hPa 0,0 l/m² 0,3 km/h (0 Bft) W 271 ° 2 min 686 W/m² 4,9 °C 16,9 °C 4,8 km/h (1 Bft)
23.03.2026 11:53 22,8 °C 17,1 °C 45 % 43 % 1018,7 hPa 0,0 l/m² 4,8 km/h (1 Bft) N 5 ° 3 min 689 W/m² 4,4 °C 17,1 °C 12,9 km/h (3 Bft)
23.03.2026 11:55 22,8 °C 17,1 °C 45 % 44 % 1018,7 hPa 0,0 l/m² 5,5 km/h (2 Bft) N-NO 24 ° 2 min 694 W/m² 4,8 °C 17,1 °C 12,9 km/h (3 Bft)
23.03.2026 11:57 22,9 °C 17,2 °C 45 % 43 % 1018,7 hPa 0,0 l/m² 5,5 km/h (2 Bft) NO 44 ° 2 min 696 W/m² 4,5 °C 17,2 °C 11,3 km/h (2 Bft)
23.03.2026 11:59 22,9 °C 17,2 °C 45 % 43 % 1018,7 hPa 0,0 l/m² 6,9 km/h (2 Bft) N-NO 28 ° 2 min 691 W/m² 4,5 °C 17,0 °C 16,1 km/h (3 Bft)
23.03.2026 12:00 22,9 °C 17,1 °C 45 % 42 % 1018,7 hPa 0,0 l/m² 8,0 km/h (2 Bft) NO 45 ° 1 min 694 W/m² 4,1 °C 16,3 °C 11,3 km/h (2 Bft)
23.03.2026 12:01 22,9 °C 17,1 °C 45 % 41 % 1018,8 hPa 0,0 l/m² 4,8 km/h (1 Bft) NO 45 ° 1 min 689 W/m² 3,7 °C 17,1 °C 8,0 km/h (2 Bft)
23.03.2026 12:06 22,9 °C 17,1 °C 45 % 45 % 1018,8 hPa 0,0 l/m² 3,0 km/h (1 Bft) NO 51 ° 5 min 694 W/m² 5,1 °C 17,1 °C 4,8 km/h (1 Bft)
23.03.2026 12:08 22,9 °C 17,2 °C 45 % 42 % 1018,7 hPa 0,0 l/m² 7,6 km/h (2 Bft) N 355 ° 2 min 687 W/m² 4,2 °C 16,6 °C 14,5 km/h (3 Bft)
23.03.2026 12:09 22,9 °C 17,2 °C 45 % 41 % 1018,7 hPa 0,0 l/m² 7,0 km/h (2 Bft) N 350 ° 1 min 689 W/m² 3,8 °C 16,9 °C 8,0 km/h (2 Bft)
23.03.2026 12:11 22,9 °C 17,2 °C 45 % 41 % 1018,7 hPa 0,0 l/m² 5,1 km/h (1 Bft) NW 323 ° 2 min 694 W/m² 3,8 °C 17,2 °C 12,9 km/h (3 Bft)
23.03.2026 12:12 22,9 °C 17,2 °C 45 % 42 % 1018,7 hPa 0,0 l/m² 6,6 km/h (2 Bft) W-NW 299 ° 1 min 694 W/m² 4,2 °C 17,1 °C 9,7 km/h (2 Bft)
23.03.2026 12:14 22,9 °C 17,2 °C 45 % 42 % 1018,8 hPa 0,0 l/m² 10,3 km/h (2 Bft) NW 309 ° 2 min 694 W/m² 4,2 °C 15,4 °C 17,7 km/h (3 Bft)
23.03.2026 12:15 22,9 °C 17,2 °C 45 % 41 % 1018,8 hPa 0,0 l/m² 9,7 km/h (2 Bft) N 355 ° 1 min 694 W/m² 3,8 °C 15,7 °C 14,5 km/h (3 Bft)
23.03.2026 12:16 22,9 °C 17,2 °C 45 % 40 % 1018,8 hPa 0,0 l/m² 5,7 km/h (2 Bft) NW 315 ° 1 min 696 W/m² 3,5 °C 17,2 °C 9,7 km/h (2 Bft)
23.03.2026 12:18 23,0 °C 17,2 °C 45 % 42 % 1018,8 hPa 0,0 l/m² 9,4 km/h (2 Bft) N-NW 339 ° 2 min 696 W/m² 4,2 °C 15,8 °C 16,1 km/h (3 Bft)
23.03.2026 12:20 23,0 °C 17,2 °C 45 % 41 % 1018,8 hPa 0,0 l/m² 5,9 km/h (2 Bft) N 5 ° 2 min 698 W/m² 3,8 °C 17,2 °C 9,7 km/h (2 Bft)
23.03.2026 12:22 23,0 °C 17,2 °C 45 % 42 % 1018,8 hPa 0,0 l/m² 10,9 km/h (2 Bft) N-NW 344 ° 2 min 694 W/m² 4,2 °C 15,2 °C 19,3 km/h (3 Bft)
23.03.2026 12:23 23,0 °C 17,2 °C 45 % 42 % 1018,8 hPa 0,0 l/m² 9,9 km/h (2 Bft) N 355 ° 1 min 693 W/m² 4,2 °C 15,6 °C 14,5 km/h (3 Bft)
23.03.2026 12:24 23,0 °C 17,1 °C 45 % 41 % 1018,8 hPa 0,0 l/m² 8,0 km/h (2 Bft) N 10 ° 1 min 693 W/m² 3,7 °C 16,3 °C 11,3 km/h (2 Bft)
23.03.2026 12:25 22,9 °C 17,1 °C 45 % 40 % 1018,8 hPa 0,0 l/m² 4,0 km/h (1 Bft) N 355 ° 1 min 696 W/m² 3,4 °C 17,1 °C 11,3 km/h (2 Bft)
23.03.2026 12:27 23,0 °C 17,1 °C 45 % 42 % 1018,8 hPa 0,0 l/m² 2,2 km/h (1 Bft) NO 34 ° 2 min 698 W/m² 4,1 °C 17,1 °C 6,4 km/h (2 Bft)
23.03.2026 12:29 23,0 °C 17,1 °C 45 % 44 % 1018,8 hPa 0,0 l/m² 4,1 km/h (1 Bft) NO 38 ° 2 min 698 W/m² 4,8 °C 17,1 °C 8,0 km/h (2 Bft)
23.03.2026 12:31 23,0 °C 17,1 °C 45 % 42 % 1018,8 hPa 0,0 l/m² 5,5 km/h (2 Bft) N-NO 26 ° 2 min 703 W/m² 4,1 °C 17,1 °C 12,9 km/h (3 Bft)
23.03.2026 12:32 23,0 °C 17,2 °C 45 % 42 % 1018,8 hPa 0,0 l/m² 4,9 km/h (1 Bft) N-NW 332 ° 1 min 703 W/m² 4,2 °C 17,2 °C 9,7 km/h (2 Bft)
23.03.2026 12:33 23,0 °C 17,2 °C 45 % 42 % 1018,8 hPa 0,0 l/m² 5,7 km/h (2 Bft) NW 321 ° 1 min 701 W/m² 4,2 °C 17,2 °C 11,3 km/h (2 Bft)
23.03.2026 12:35 23,0 °C 17,2 °C 45 % 40 % 1018,8 hPa 0,0 l/m² 4,6 km/h (1 Bft) NW 317 ° 2 min 694 W/m² 3,5 °C 17,2 °C 8,0 km/h (2 Bft)
23.03.2026 12:37 23,1 °C 17,3 °C 45 % 43 % 1018,8 hPa 0,0 l/m² 1,5 km/h (1 Bft) W 259 ° 2 min 693 W/m² 4,6 °C 17,3 °C 4,8 km/h (1 Bft)
23.03.2026 12:39 23,0 °C 17,4 °C 45 % 41 % 1018,7 hPa 0,0 l/m² 0,5 km/h (0 Bft) W 261 ° 2 min 689 W/m² 4,0 °C 17,4 °C 3,2 km/h (1 Bft)
23.03.2026 12:41 23,1 °C 17,4 °C 45 % 42 % 1018,7 hPa 0,0 l/m² 4,1 km/h (1 Bft) N-NO 27 ° 2 min 693 W/m² 4,4 °C 17,4 °C 11,3 km/h (2 Bft)
23.03.2026 12:42 23,1 °C 17,4 °C 45 % 41 % 1018,7 hPa 0,0 l/m² 7,9 km/h (2 Bft) NO 50 ° 1 min 689 W/m² 4,0 °C 16,7 °C 9,7 km/h (2 Bft)
23.03.2026 12:43 23,1 °C 17,4 °C 45 % 42 % 1018,7 hPa 0,0 l/m² 6,9 km/h (2 Bft) N 5 ° 1 min 694 W/m² 4,4 °C 17,2 °C 9,7 km/h (2 Bft)
23.03.2026 12:45 23,0 °C 17,5 °C 45 % 40 % 1018,7 hPa 0,0 l/m² 8,4 km/h (2 Bft) N-NW 328 ° 2 min 691 W/m² 3,8 °C 16,5 °C 12,9 km/h (3 Bft)
23.03.2026 12:47 23,0 °C 17,5 °C 45 % 41 % 1018,7 hPa 0,0 l/m² 4,7 km/h (1 Bft) O-NO 71 ° 2 min 694 W/m² 4,1 °C 17,5 °C 8,0 km/h (2 Bft)
23.03.2026 12:48 23,0 °C 17,5 °C 45 % 40 % 1018,7 hPa 0,0 l/m² 4,4 km/h (1 Bft) O 83 ° 1 min 693 W/m² 3,8 °C 17,5 °C 6,4 km/h (2 Bft)
23.03.2026 12:50 23,1 °C 17,4 °C 45 % 39 % 1018,7 hPa 0,0 l/m² 3,4 km/h (1 Bft) O 86 ° 2 min 700 W/m² 3,3 °C 17,4 °C 4,8 km/h (1 Bft)
23.03.2026 12:52 23,1 °C 17,4 °C 45 % 39 % 1018,7 hPa 0,0 l/m² 4,4 km/h (1 Bft) S-SO 160 ° 2 min 694 W/m² 3,3 °C 17,4 °C 6,4 km/h (2 Bft)
23.03.2026 12:53 23,1 °C 17,4 °C 45 % 40 % 1018,7 hPa 0,0 l/m² 4,0 km/h (1 Bft) S-SO 162 ° 1 min 694 W/m² 3,7 °C 17,4 °C 6,4 km/h (2 Bft)
23.03.2026 12:54 23,1 °C 17,4 °C 45 % 39 % 1018,6 hPa 0,0 l/m² 2,8 km/h (1 Bft) S-SO 164 ° 1 min 694 W/m² 3,3 °C 17,4 °C 6,4 km/h (2 Bft)
23.03.2026 12:56 23,1 °C 17,4 °C 45 % 40 % 1018,6 hPa 0,0 l/m² 1,6 km/h (1 Bft) N-NO 18 ° 2 min 693 W/m² 3,7 °C 17,4 °C 4,8 km/h (1 Bft)
23.03.2026 12:58 23,0 °C 17,4 °C 45 % 40 % 1018,6 hPa 0,0 l/m² 7,4 km/h (2 Bft) N-NW 348 ° 2 min 691 W/m² 3,7 °C 16,9 °C 14,5 km/h (3 Bft)
23.03.2026 13:00 23,0 °C 17,4 °C 45 % 41 % 1018,5 hPa 0,0 l/m² 8,3 km/h (2 Bft) W-NW 299 ° 2 min 689 W/m² 4,0 °C 16,5 °C 16,1 km/h (3 Bft)
23.03.2026 13:02 23,1 °C 17,4 °C 45 % 40 % 1018,6 hPa 0,0 l/m² 10,8 km/h (2 Bft) W 267 ° 2 min 689 W/m² 3,7 °C 15,5 °C 16,1 km/h (3 Bft)
23.03.2026 13:03 23,1 °C 17,4 °C 45 % 40 % 1018,6 hPa 0,0 l/m² 11,7 km/h (2 Bft) W 264 ° 1 min 687 W/m² 3,7 °C 15,1 °C 16,1 km/h (3 Bft)
23.03.2026 13:05 23,1 °C 17,4 °C 45 % 40 % 1018,6 hPa 0,0 l/m² 8,8 km/h (2 Bft) NW 310 ° 2 min 689 W/m² 3,7 °C 16,3 °C 14,5 km/h (3 Bft)
23.03.2026 13:07 23,0 °C 17,4 °C 45 % 40 % 1018,5 hPa 0,0 l/m² 11,6 km/h (2 Bft) NW 309 ° 2 min 673 W/m² 3,7 °C 15,2 °C 16,1 km/h (3 Bft)
23.03.2026 13:08 23,0 °C 17,4 °C 45 % 39 % 1018,5 hPa 0,0 l/m² 5,5 km/h (2 Bft) NW 306 ° 1 min 682 W/m² 3,3 °C 17,4 °C 12,9 km/h (3 Bft)
23.03.2026 13:09 23,0 °C 17,4 °C 45 % 41 % 1018,6 hPa 0,0 l/m² 2,2 km/h (1 Bft) NW 323 ° 1 min 677 W/m² 4,0 °C 17,4 °C 4,8 km/h (1 Bft)
23.03.2026 13:11 23,1 °C 17,3 °C 45 % 40 % 1018,6 hPa 0,0 l/m² 6,0 km/h (2 Bft) NW 305 ° 2 min 671 W/m² 3,6 °C 17,3 °C 9,7 km/h (2 Bft)
23.03.2026 13:12 23,0 °C 17,4 °C 45 % 42 % 1018,6 hPa 0,0 l/m² 11,8 km/h (2 Bft) NW 310 ° 1 min 671 W/m² 4,4 °C 15,1 °C 19,3 km/h (3 Bft)
23.03.2026 13:13 23,0 °C 17,4 °C 45 % 40 % 1018,6 hPa 0,0 l/m² 10,8 km/h (2 Bft) NO 38 ° 1 min 675 W/m² 3,7 °C 15,5 °C 14,5 km/h (3 Bft)
23.03.2026 13:15 23,0 °C 17,3 °C 45 % 40 % 1018,6 hPa 0,0 l/m² 6,7 km/h (2 Bft) N 360 ° 2 min 668 W/m² 3,6 °C 17,2 °C 14,5 km/h (3 Bft)
23.03.2026 13:16 23,0 °C 17,3 °C 45 % 40 % 1018,6 hPa 0,0 l/m² 8,4 km/h (2 Bft) NW 326 ° 1 min 671 W/m² 3,6 °C 16,3 °C 14,5 km/h (3 Bft)
23.03.2026 13:17 23,0 °C 17,3 °C 45 % 41 % 1018,6 hPa 0,0 l/m² 9,9 km/h (2 Bft) N-NW 337 ° 1 min 680 W/m² 3,9 °C 15,7 °C 16,1 km/h (3 Bft)
23.03.2026 13:18 23,0 °C 17,3 °C 45 % 40 % 1018,7 hPa 0,0 l/m² 13,0 km/h (3 Bft) NW 313 ° 1 min 680 W/m² 3,6 °C 14,6 °C 17,7 km/h (3 Bft)
23.03.2026 13:19 23,0 °C 17,3 °C 45 % 41 % 1018,7 hPa 0,0 l/m² 11,3 km/h (2 Bft) NW 315 ° 1 min 682 W/m² 3,9 °C 15,2 °C 14,5 km/h (3 Bft)
23.03.2026 13:20 23,0 °C 17,3 °C 45 % 41 % 1018,7 hPa 0,0 l/m² 6,4 km/h (2 Bft) NW 315 ° 1 min 680 W/m² 3,9 °C 17,3 °C 9,7 km/h (2 Bft)
23.03.2026 13:25 23,0 °C 17,3 °C 45 % 39 % 1018,7 hPa 0,0 l/m² 0,7 km/h (0 Bft) NW 313 ° 5 min 666 W/m² 3,2 °C 17,3 °C 1,6 km/h (1 Bft)
23.03.2026 13:27 23,0 °C 17,3 °C 45 % 40 % 1018,7 hPa 0,0 l/m² 2,1 km/h (1 Bft) W-SW 244 ° 2 min 663 W/m² 3,6 °C 17,3 °C 6,4 km/h (2 Bft)
23.03.2026 13:28 23,0 °C 17,4 °C 45 % 40 % 1018,7 hPa 0,0 l/m² 6,2 km/h (2 Bft) W-SW 254 ° 1 min 670 W/m² 3,7 °C 17,4 °C 8,0 km/h (2 Bft)
23.03.2026 13:29 22,9 °C 17,3 °C 45 % 40 % 1018,7 hPa 0,0 l/m² 4,4 km/h (1 Bft) W-SW 258 ° 1 min 668 W/m² 3,6 °C 17,3 °C 6,4 km/h (2 Bft)
23.03.2026 13:31 22,9 °C 17,3 °C 45 % 40 % 1018,7 hPa 0,0 l/m² 7,4 km/h (2 Bft) NW 309 ° 2 min 661 W/m² 3,6 °C 16,8 °C 14,5 km/h (3 Bft)
23.03.2026 13:32 22,9 °C 17,4 °C 45 % 41 % 1018,7 hPa 0,0 l/m² 9,8 km/h (2 Bft) W-NW 287 ° 1 min 659 W/m² 4,0 °C 15,8 °C 14,5 km/h (3 Bft)
23.03.2026 13:34 22,9 °C 17,4 °C 45 % 41 % 1018,7 hPa 0,0 l/m² 8,9 km/h (2 Bft) W 268 ° 2 min 657 W/m² 4,0 °C 16,2 °C 14,5 km/h (3 Bft)
23.03.2026 13:36 22,9 °C 17,4 °C 45 % 40 % 1018,7 hPa 0,0 l/m² 11,5 km/h (2 Bft) W 269 ° 2 min 659 W/m² 3,7 °C 15,2 °C 17,7 km/h (3 Bft)
23.03.2026 13:38 22,9 °C 17,4 °C 45 % 39 % 1018,7 hPa 0,0 l/m² 9,3 km/h (2 Bft) W 279 ° 2 min 659 W/m² 3,3 °C 16,1 °C 12,9 km/h (3 Bft)
23.03.2026 13:40 22,9 °C 17,4 °C 45 % 39 % 1018,7 hPa 0,0 l/m² 5,7 km/h (2 Bft) W-NW 296 ° 2 min 652 W/m² 3,3 °C 17,4 °C 12,9 km/h (3 Bft)
23.03.2026 13:41 22,9 °C 17,4 °C 45 % 41 % 1018,7 hPa 0,0 l/m² 6,5 km/h (2 Bft) N-NO 21 ° 1 min 647 W/m² 4,0 °C 17,4 °C 14,5 km/h (3 Bft)
23.03.2026 13:42 22,9 °C 17,4 °C 45 % 41 % 1018,7 hPa 0,0 l/m² 11,3 km/h (2 Bft) N-NW 327 ° 1 min 645 W/m² 4,0 °C 15,3 °C 20,9 km/h (4 Bft)
23.03.2026 13:44 22,9 °C 17,4 °C 45 % 40 % 1018,7 hPa 0,0 l/m² 9,4 km/h (2 Bft) N 5 ° 2 min 645 W/m² 3,7 °C 16,0 °C 14,5 km/h (3 Bft)
23.03.2026 13:46 22,9 °C 17,4 °C 45 % 39 % 1018,7 hPa 0,0 l/m² 2,6 km/h (1 Bft) NO 47 ° 2 min 649 W/m² 3,3 °C 17,4 °C 8,0 km/h (2 Bft)
23.03.2026 13:48 22,9 °C 17,4 °C 45 % 41 % 1018,8 hPa 0,0 l/m² 4,1 km/h (1 Bft) N-NW 340 ° 2 min 642 W/m² 4,0 °C 17,4 °C 12,9 km/h (3 Bft)
23.03.2026 13:50 22,9 °C 17,4 °C 45 % 40 % 1018,7 hPa 0,0 l/m² 8,2 km/h (2 Bft) N-NW 338 ° 2 min 636 W/m² 3,7 °C 16,5 °C 14,5 km/h (3 Bft)
23.03.2026 13:51 22,9 °C 17,4 °C 45 % 41 % 1018,7 hPa 0,0 l/m² 13,9 km/h (3 Bft) NW 311 ° 1 min 633 W/m² 4,0 °C 14,4 °C 19,3 km/h (3 Bft)
23.03.2026 13:52 22,9 °C 17,4 °C 45 % 39 % 1018,7 hPa 0,0 l/m² 10,2 km/h (2 Bft) N-NW 328 ° 1 min 631 W/m² 3,3 °C 15,7 °C 16,1 km/h (3 Bft)
23.03.2026 13:54 22,9 °C 17,5 °C 45 % 40 % 1018,6 hPa 0,0 l/m² 9,5 km/h (2 Bft) W-NW 290 ° 2 min 628 W/m² 3,8 °C 16,1 °C 14,5 km/h (3 Bft)
23.03.2026 13:56 22,9 °C 17,4 °C 45 % 39 % 1018,6 hPa 0,0 l/m² 4,2 km/h (1 Bft) N-NW 342 ° 2 min 624 W/m² 3,3 °C 17,4 °C 9,7 km/h (2 Bft)
23.03.2026 13:58 22,9 °C 17,4 °C 45 % 40 % 1018,5 hPa 0,0 l/m² 5,4 km/h (2 Bft) N-NO 15 ° 2 min 624 W/m² 3,7 °C 17,4 °C 14,5 km/h (3 Bft)
23.03.2026 14:00 22,9 °C 17,5 °C 45 % 40 % 1018,5 hPa 0,0 l/m² 8,7 km/h (2 Bft) N-NO 26 ° 2 min 626 W/m² 3,8 °C 16,4 °C 17,7 km/h (3 Bft)
23.03.2026 14:01 22,9 °C 17,5 °C 45 % 40 % 1018,5 hPa 0,0 l/m² 7,9 km/h (2 Bft) N-NO 19 ° 1 min 619 W/m² 3,8 °C 16,8 °C 14,5 km/h (3 Bft)
23.03.2026 14:02 22,9 °C 17,5 °C 45 % 40 % 1018,5 hPa 0,0 l/m² 7,1 km/h (2 Bft) N 360 ° 1 min 612 W/m² 3,8 °C 17,2 °C 11,3 km/h (2 Bft)
23.03.2026 14:04 22,9 °C 17,5 °C 45 % 40 % 1018,6 hPa 0,0 l/m² 5,0 km/h (1 Bft) N-NW 333 ° 2 min 610 W/m² 3,8 °C 17,5 °C 8,0 km/h (2 Bft)
23.03.2026 14:06 22,8 °C 17,6 °C 45 % 40 % 1018,6 hPa 0,0 l/m² 4,2 km/h (1 Bft) NW 319 ° 2 min 608 W/m² 3,8 °C 17,6 °C 6,4 km/h (2 Bft)
23.03.2026 14:08 22,9 °C 17,6 °C 45 % 40 % 1018,6 hPa 0,0 l/m² 2,4 km/h (1 Bft) W 272 ° 2 min 606 W/m² 3,8 °C 17,6 °C 8,0 km/h (2 Bft)
23.03.2026 14:10 22,9 °C 17,6 °C 45 % 40 % 1018,6 hPa 0,0 l/m² 0,1 km/h (0 Bft) W-NW 288 ° 2 min 619 W/m² 3,8 °C 17,6 °C 1,6 km/h (1 Bft)
23.03.2026 14:11 22,8 °C 17,7 °C 45 % 40 % 1018,5 hPa 0,0 l/m² 0,1 km/h (0 Bft) O 80 ° 1 min 617 W/m² 3,9 °C 17,7 °C 1,6 km/h (1 Bft)
23.03.2026 14:12 22,8 °C 17,7 °C 45 % 41 % 1018,5 hPa 0,0 l/m² 5,1 km/h (1 Bft) NO 56 ° 1 min 613 W/m² 4,3 °C 17,7 °C 9,7 km/h (2 Bft)
23.03.2026 14:14 22,8 °C 17,7 °C 45 % 41 % 1018,5 hPa 0,0 l/m² 4,0 km/h (1 Bft) O-NO 76 ° 2 min 605 W/m² 4,3 °C 17,7 °C 8,0 km/h (2 Bft)
23.03.2026 14:16 22,8 °C 17,8 °C 45 % 40 % 1018,5 hPa 0,0 l/m² 0,0 km/h (0 Bft) O-NO 76 ° 2 min 603 W/m² 4,0 °C 17,8 °C 0,0 km/h (0 Bft)
23.03.2026 14:18 22,8 °C 17,9 °C 46 % 40 % 1018,5 hPa 0,0 l/m² 3,3 km/h (1 Bft) NW 313 ° 2 min 599 W/m² 4,1 °C 17,9 °C 9,7 km/h (2 Bft)
23.03.2026 14:20 22,8 °C 18,0 °C 46 % 39 % 1018,5 hPa 0,0 l/m² 3,7 km/h (1 Bft) N 355 ° 2 min 589 W/m² 3,8 °C 18,0 °C 6,4 km/h (2 Bft)
23.03.2026 14:21 22,8 °C 18,1 °C 46 % 40 % 1018,6 hPa 0,0 l/m² 5,3 km/h (1 Bft) N 5 ° 1 min 587 W/m² 4,3 °C 18,1 °C 11,3 km/h (2 Bft)
23.03.2026 14:22 22,8 °C 18,1 °C 46 % 39 % 1018,6 hPa 0,0 l/m² 0,2 km/h (0 Bft) N-NO 15 ° 1 min 585 W/m² 3,9 °C 18,1 °C 1,6 km/h (1 Bft)
23.03.2026 14:24 22,8 °C 18,1 °C 46 % 39 % 1018,5 hPa 0,0 l/m² 2,2 km/h (1 Bft) N-NW 347 ° 2 min 587 W/m² 3,9 °C 18,1 °C 8,0 km/h (2 Bft)
23.03.2026 14:26 22,8 °C 18,1 °C 46 % 38 % 1018,5 hPa 0,0 l/m² 7,1 km/h (2 Bft) NW 311 ° 2 min 580 W/m² 3,6 °C 17,8 °C 16,1 km/h (3 Bft)
23.03.2026 14:27 22,7 °C 18,1 °C 46 % 38 % 1018,5 hPa 0,0 l/m² 4,3 km/h (1 Bft) W 281 ° 1 min 580 W/m² 3,6 °C 18,1 °C 9,7 km/h (2 Bft)
23.03.2026 14:28 22,7 °C 18,2 °C 46 % 38 % 1018,5 hPa 0,0 l/m² 6,5 km/h (2 Bft) NW 313 ° 1 min 575 W/m² 3,7 °C 18,2 °C 12,9 km/h (3 Bft)
23.03.2026 14:30 22,8 °C 18,2 °C 46 % 40 % 1018,6 hPa 0,0 l/m² 8,9 km/h (2 Bft) N-NW 327 ° 2 min 577 W/m² 4,4 °C 17,1 °C 17,7 km/h (3 Bft)
23.03.2026 14:31 22,8 °C 18,2 °C 46 % 39 % 1018,5 hPa 0,0 l/m² 9,2 km/h (2 Bft) N-NW 333 ° 1 min 577 W/m² 4,0 °C 17,0 °C 16,1 km/h (3 Bft)
23.03.2026 14:32 22,8 °C 18,2 °C 46 % 39 % 1018,5 hPa 0,0 l/m² 7,7 km/h (2 Bft) N-NW 343 ° 1 min 573 W/m² 4,0 °C 17,6 °C 12,9 km/h (3 Bft)
23.03.2026 14:34 22,7 °C 18,1 °C 46 % 38 % 1018,4 hPa 0,0 l/m² 9,1 km/h (2 Bft) NW 310 ° 2 min 564 W/m² 3,6 °C 16,9 °C 14,5 km/h (3 Bft)
23.03.2026 14:36 22,7 °C 18,2 °C 46 % 39 % 1018,4 hPa 0,0 l/m² 6,9 km/h (2 Bft) N-NW 329 ° 2 min 552 W/m² 4,0 °C 18,0 °C 16,1 km/h (3 Bft)
23.03.2026 14:38 22,7 °C 18,1 °C 46 % 39 % 1018,4 hPa 0,0 l/m² 12,2 km/h (2 Bft) NW 321 ° 2 min 543 W/m² 3,9 °C 15,8 °C 19,3 km/h (3 Bft)
23.03.2026 14:40 22,7 °C 18,1 °C 46 % 38 % 1018,4 hPa 0,0 l/m² 10,6 km/h (2 Bft) W-NW 302 ° 2 min 548 W/m² 3,6 °C 16,3 °C 16,1 km/h (3 Bft)
23.03.2026 14:41 22,7 °C 18,1 °C 46 % 39 % 1018,4 hPa 0,0 l/m² 7,2 km/h (2 Bft) NW 312 ° 1 min 545 W/m² 3,9 °C 17,7 °C 12,9 km/h (3 Bft)
23.03.2026 14:42 22,7 °C 18,1 °C 46 % 38 % 1018,4 hPa 0,0 l/m² 6,9 km/h (2 Bft) W-NW 292 ° 1 min 543 W/m² 3,6 °C 17,9 °C 12,9 km/h (3 Bft)
23.03.2026 14:44 22,7 °C 18,1 °C 46 % 38 % 1018,4 hPa 0,0 l/m² 0,7 km/h (0 Bft) W-NW 291 ° 2 min 533 W/m² 3,6 °C 18,1 °C 3,2 km/h (1 Bft)
23.03.2026 14:46 22,7 °C 18,1 °C 46 % 38 % 1018,4 hPa 0,0 l/m² 2,3 km/h (1 Bft) NW 317 ° 2 min 531 W/m² 3,6 °C 18,1 °C 6,4 km/h (2 Bft)
23.03.2026 14:48 22,7 °C 18,1 °C 46 % 38 % 1018,4 hPa 0,0 l/m² 4,2 km/h (1 Bft) N-NW 329 ° 2 min 534 W/m² 3,6 °C 18,1 °C 6,4 km/h (2 Bft)
23.03.2026 14:50 22,7 °C 18,1 °C 46 % 38 % 1018,4 hPa 0,0 l/m² 2,2 km/h (1 Bft) NO 34 ° 2 min 531 W/m² 3,6 °C 18,1 °C 6,4 km/h (2 Bft)
23.03.2026 14:51 22,7 °C 18,1 °C 46 % 38 % 1018,4 hPa 0,0 l/m² 5,4 km/h (2 Bft) N-NO 33 ° 1 min 527 W/m² 3,6 °C 18,1 °C 9,7 km/h (2 Bft)
23.03.2026 14:52 22,7 °C 18,1 °C 46 % 39 % 1018,4 hPa 0,0 l/m² 5,0 km/h (1 Bft) O-NO 57 ° 1 min 524 W/m² 3,9 °C 18,1 °C 8,0 km/h (2 Bft)
23.03.2026 14:54 22,7 °C 18,1 °C 46 % 39 % 1018,3 hPa 0,0 l/m² 5,2 km/h (1 Bft) N-NO 29 ° 2 min 519 W/m² 3,9 °C 18,1 °C 8,0 km/h (2 Bft)
23.03.2026 14:56 22,7 °C 18,1 °C 46 % 39 % 1018,3 hPa 0,0 l/m² 5,4 km/h (2 Bft) W-NW 296 ° 2 min 524 W/m² 3,9 °C 18,1 °C 16,1 km/h (3 Bft)
23.03.2026 14:58 22,7 °C 18,2 °C 46 % 39 % 1018,3 hPa 0,0 l/m² 6,4 km/h (2 Bft) NW 315 ° 2 min 524 W/m² 4,0 °C 18,2 °C 11,3 km/h (2 Bft)
23.03.2026 15:00 22,7 °C 18,2 °C 46 % 38 % 1018,2 hPa 0,0 l/m² 6,8 km/h (2 Bft) W 277 ° 2 min 515 W/m² 3,7 °C 18,0 °C 12,9 km/h (3 Bft)
23.03.2026 15:01 22,7 °C 18,2 °C 46 % 38 % 1018,2 hPa 0,0 l/m² 2,0 km/h (1 Bft) O-SO 116 ° 1 min 513 W/m² 3,7 °C 18,2 °C 4,8 km/h (1 Bft)
23.03.2026 15:02 22,7 °C 18,2 °C 46 % 38 % 1018,2 hPa 0,0 l/m² 3,2 km/h (1 Bft) O-SO 113 ° 1 min 512 W/m² 3,7 °C 18,2 °C 4,8 km/h (1 Bft)
23.03.2026 15:04 22,7 °C 18,2 °C 46 % 39 % 1018,3 hPa 0,0 l/m² 0,3 km/h (0 Bft) O-SO 113 ° 2 min 504 W/m² 4,0 °C 18,2 °C 3,2 km/h (1 Bft)
23.03.2026 15:05 22,7 °C 18,2 °C 46 % 40 % 1018,3 hPa 0,0 l/m² 1,6 km/h (1 Bft) N-NO 12 ° 1 min 497 W/m² 4,4 °C 18,2 °C 3,2 km/h (1 Bft)
23.03.2026 15:07 22,7 °C 18,2 °C 46 % 37 % 1018,2 hPa 0,0 l/m² 6,2 km/h (2 Bft) N-NO 19 ° 2 min 494 W/m² 3,3 °C 18,2 °C 12,9 km/h (3 Bft)
23.03.2026 15:09 22,7 °C 18,2 °C 46 % 38 % 1018,2 hPa 0,0 l/m² 3,4 km/h (1 Bft) NO 39 ° 2 min 494 W/m² 3,7 °C 18,2 °C 6,4 km/h (2 Bft)
23.03.2026 15:10 22,7 °C 18,2 °C 46 % 38 % 1018,2 hPa 0,0 l/m² 3,8 km/h (1 Bft) N-NW 340 ° 1 min 490 W/m² 3,7 °C 18,2 °C 9,7 km/h (2 Bft)
23.03.2026 15:12 22,7 °C 18,2 °C 46 % 37 % 1018,2 hPa 0,0 l/m² 6,9 km/h (2 Bft) N-NO 19 ° 2 min 485 W/m² 3,3 °C 18,0 °C 12,9 km/h (3 Bft)
23.03.2026 15:13 22,7 °C 18,2 °C 46 % 38 % 1018,2 hPa 0,0 l/m² 8,6 km/h (2 Bft) N-NO 20 ° 1 min 483 W/m² 3,7 °C 17,2 °C 14,5 km/h (3 Bft)
23.03.2026 15:15 22,7 °C 18,3 °C 46 % 38 % 1018,2 hPa 0,0 l/m² 5,0 km/h (1 Bft) NO 36 ° 2 min 482 W/m² 3,7 °C 18,3 °C 11,3 km/h (2 Bft)
23.03.2026 15:17 22,7 °C 18,2 °C 46 % 38 % 1018,3 hPa 0,0 l/m² 9,9 km/h (2 Bft) N-NW 344 ° 2 min 476 W/m² 3,7 °C 16,7 °C 14,5 km/h (3 Bft)
23.03.2026 15:19 22,7 °C 18,2 °C 46 % 36 % 1018,2 hPa 0,0 l/m² 5,7 km/h (2 Bft) N-NW 343 ° 2 min 468 W/m² 2,9 °C 18,2 °C 9,7 km/h (2 Bft)
23.03.2026 15:20 22,7 °C 18,2 °C 46 % 36 % 1018,3 hPa 0,0 l/m² 7,7 km/h (2 Bft) N-NO 31 ° 1 min 466 W/m² 2,9 °C 17,6 °C 12,9 km/h (3 Bft)
23.03.2026 15:21 22,7 °C 18,2 °C 46 % 38 % 1018,2 hPa 0,0 l/m² 2,2 km/h (1 Bft) N-NO 32 ° 1 min 464 W/m² 3,7 °C 18,2 °C 6,4 km/h (2 Bft)
23.03.2026 15:22 22,7 °C 18,2 °C 46 % 38 % 1018,2 hPa 0,0 l/m² 2,7 km/h (1 Bft) N-NO 30 ° 1 min 461 W/m² 3,7 °C 18,2 °C 12,9 km/h (3 Bft)
23.03.2026 15:24 22,7 °C 18,2 °C 46 % 37 % 1018,2 hPa 0,0 l/m² 5,6 km/h (2 Bft) NO 44 ° 2 min 454 W/m² 3,3 °C 18,2 °C 12,9 km/h (3 Bft)
23.03.2026 15:26 22,7 °C 18,2 °C 46 % 38 % 1018,2 hPa 0,0 l/m² 5,1 km/h (1 Bft) O 86 ° 2 min 446 W/m² 3,7 °C 18,2 °C 8,0 km/h (2 Bft)
23.03.2026 15:28 22,7 °C 18,1 °C 46 % 38 % 1018,0 hPa 0,0 l/m² 4,1 km/h (1 Bft) NO 36 ° 2 min 443 W/m² 3,6 °C 18,1 °C 11,3 km/h (2 Bft)
23.03.2026 15:30 22,7 °C 18,2 °C 46 % 38 % 1018,0 hPa 0,0 l/m² 5,2 km/h (1 Bft) N-NW 348 ° 2 min 434 W/m² 3,7 °C 18,2 °C 9,7 km/h (2 Bft)
23.03.2026 15:31 22,7 °C 18,2 °C 46 % 37 % 1017,9 hPa 0,0 l/m² 3,4 km/h (1 Bft) N-NO 28 ° 1 min 432 W/m² 3,3 °C 18,2 °C 8,0 km/h (2 Bft)
23.03.2026 15:32 22,7 °C 18,2 °C 46 % 38 % 1017,9 hPa 0,0 l/m² 4,5 km/h (1 Bft) N 355 ° 1 min 431 W/m² 3,7 °C 18,2 °C 6,4 km/h (2 Bft)
23.03.2026 15:34 22,7 °C 18,2 °C 46 % 37 % 1017,9 hPa 0,0 l/m² 6,2 km/h (2 Bft) N 355 ° 2 min 424 W/m² 3,3 °C 18,2 °C 9,7 km/h (2 Bft)
23.03.2026 15:36 22,7 °C 18,2 °C 46 % 37 % 1017,9 hPa 0,0 l/m² 6,0 km/h (2 Bft) N-NO 13 ° 2 min 420 W/m² 3,3 °C 18,2 °C 12,9 km/h (3 Bft)
23.03.2026 15:38 22,6 °C 18,1 °C 46 % 37 % 1017,8 hPa 0,0 l/m² 2,6 km/h (1 Bft) O-NO 60 ° 2 min 413 W/m² 3,2 °C 18,1 °C 8,0 km/h (2 Bft)
23.03.2026 15:40 22,7 °C 18,1 °C 46 % 37 % 1017,8 hPa 0,0 l/m² 5,9 km/h (2 Bft) O-NO 62 ° 2 min 413 W/m² 3,2 °C 18,1 °C 8,0 km/h (2 Bft)
23.03.2026 15:41 22,7 °C 18,0 °C 46 % 37 % 1017,8 hPa 0,0 l/m² 5,4 km/h (2 Bft) O-NO 63 ° 1 min 411 W/m² 3,1 °C 18,0 °C 6,4 km/h (2 Bft)
23.03.2026 15:42 22,7 °C 17,9 °C 46 % 37 % 1017,8 hPa 0,0 l/m² 5,0 km/h (1 Bft) O-NO 64 ° 1 min 410 W/m² 3,0 °C 17,9 °C 6,4 km/h (2 Bft)
23.03.2026 15:44 22,7 °C 17,8 °C 46 % 38 % 1017,8 hPa 0,0 l/m² 2,7 km/h (1 Bft) O-NO 65 ° 2 min 403 W/m² 3,3 °C 17,8 °C 6,4 km/h (2 Bft)
23.03.2026 15:46 22,7 °C 17,7 °C 46 % 38 % 1017,7 hPa 0,0 l/m² 2,4 km/h (1 Bft) O-SO 103 ° 2 min 403 W/m² 3,2 °C 17,7 °C 6,4 km/h (2 Bft)
23.03.2026 15:48 22,7 °C 17,7 °C 46 % 39 % 1017,8 hPa 0,0 l/m² 0,1 km/h (0 Bft) O-SO 103 ° 2 min 394 W/m² 3,6 °C 17,7 °C 1,6 km/h (1 Bft)
23.03.2026 15:50 22,7 °C 17,8 °C 46 % 38 % 1017,8 hPa 0,0 l/m² 0,8 km/h (0 Bft) N-NW 338 ° 2 min 390 W/m² 3,3 °C 17,8 °C 8,0 km/h (2 Bft)
23.03.2026 15:51 22,7 °C 17,7 °C 46 % 37 % 1017,8 hPa 0,0 l/m² 4,7 km/h (1 Bft) NW 324 ° 1 min 387 W/m² 2,8 °C 17,7 °C 6,4 km/h (2 Bft)
23.03.2026 15:52 22,7 °C 17,7 °C 46 % 37 % 1017,8 hPa 0,0 l/m² 2,0 km/h (1 Bft) NW 317 ° 1 min 385 W/m² 2,8 °C 17,7 °C 6,4 km/h (2 Bft)
23.03.2026 15:53 22,7 °C 17,7 °C 46 % 36 % 1017,9 hPa 0,0 l/m² 0,0 km/h (0 Bft) NW 317 ° 1 min 380 W/m² 2,4 °C 17,7 °C 0,0 km/h (0 Bft)
23.03.2026 15:54 22,7 °C 17,8 °C 46 % 37 % 1017,9 hPa 0,0 l/m² 0,0 km/h (0 Bft) NW 317 ° 1 min 378 W/m² 2,9 °C 17,8 °C 0,0 km/h (0 Bft)
23.03.2026 15:56 22,6 °C 17,8 °C 46 % 37 % 1017,9 hPa 0,0 l/m² 0,2 km/h (0 Bft) N-NW 339 ° 2 min 374 W/m² 2,9 °C 17,8 °C 1,6 km/h (1 Bft)
23.03.2026 15:58 22,6 °C 17,8 °C 46 % 37 % 1017,8 hPa 0,0 l/m² 0,0 km/h (0 Bft) N-NW 338 ° 2 min 367 W/m² 2,9 °C 17,8 °C 0,0 km/h (0 Bft)
23.03.2026 16:00 22,6 °C 17,8 °C 46 % 36 % 1018,0 hPa 0,0 l/m² 0,0 km/h (0 Bft) N-NW 333 ° 2 min 359 W/m² 2,5 °C 17,8 °C 0,0 km/h (0 Bft)
23.03.2026 16:01 22,6 °C 17,8 °C 46 % 36 % 1017,9 hPa 0,0 l/m² 0,1 km/h (0 Bft) SW 216 ° 1 min 357 W/m² 2,5 °C 17,8 °C 1,6 km/h (1 Bft)
23.03.2026 16:02 22,6 °C 17,8 °C 46 % 36 % 1017,9 hPa 0,0 l/m² 0,0 km/h (0 Bft) SW 216 ° 1 min 357 W/m² 2,5 °C 17,8 °C 0,0 km/h (0 Bft)
23.03.2026 16:04 22,6 °C 17,8 °C 46 % 37 % 1018,0 hPa 0,0 l/m² 0,0 km/h (0 Bft) SW 216 ° 2 min 352 W/m² 2,9 °C 17,8 °C 0,0 km/h (0 Bft)
23.03.2026 16:06 22,7 °C 17,9 °C 46 % 37 % 1018,0 hPa 0,0 l/m² 1,8 km/h (1 Bft) N-NO 14 ° 2 min 346 W/m² 3,0 °C 17,9 °C 6,4 km/h (2 Bft)
23.03.2026 16:08 22,6 °C 17,8 °C 46 % 38 % 1017,9 hPa 0,0 l/m² 2,9 km/h (1 Bft) N-NO 18 ° 2 min 343 W/m² 3,3 °C 17,8 °C 6,4 km/h (2 Bft)
23.03.2026 16:10 22,6 °C 17,8 °C 46 % 37 % 1017,9 hPa 0,0 l/m² 4,3 km/h (1 Bft) N-NW 334 ° 2 min 338 W/m² 2,9 °C 17,8 °C 9,7 km/h (2 Bft)
23.03.2026 16:11 22,6 °C 17,9 °C 46 % 38 % 1018,0 hPa 0,0 l/m² 4,5 km/h (1 Bft) NW 324 ° 1 min 327 W/m² 3,4 °C 17,9 °C 6,4 km/h (2 Bft)
23.03.2026 16:12 22,6 °C 17,8 °C 46 % 37 % 1018,0 hPa 0,0 l/m² 1,0 km/h (0 Bft) NW 324 ° 1 min 325 W/m² 2,9 °C 17,8 °C 3,2 km/h (1 Bft)
23.03.2026 16:14 22,6 °C 17,8 °C 46 % 37 % 1018,0 hPa 0,0 l/m² 1,1 km/h (1 Bft) N-NW 333 ° 2 min 318 W/m² 2,9 °C 17,8 °C 4,8 km/h (1 Bft)
23.03.2026 16:16 22,6 °C 17,8 °C 46 % 37 % 1018,0 hPa 0,0 l/m² 7,8 km/h (2 Bft) NW 325 ° 2 min 315 W/m² 2,9 °C 17,1 °C 12,9 km/h (3 Bft)
23.03.2026 16:18 22,6 °C 17,8 °C 46 % 37 % 1018,0 hPa 0,0 l/m² 6,8 km/h (2 Bft) N-NW 347 ° 2 min 306 W/m² 2,9 °C 17,6 °C 9,7 km/h (2 Bft)
23.03.2026 16:20 22,6 °C 17,8 °C 46 % 37 % 1018,0 hPa 0,0 l/m² 6,9 km/h (2 Bft) NW 313 ° 2 min 299 W/m² 2,9 °C 17,6 °C 9,7 km/h (2 Bft)
23.03.2026 16:21 22,6 °C 17,8 °C 46 % 36 % 1018,0 hPa 0,0 l/m² 4,6 km/h (1 Bft) N-NW 327 ° 1 min 294 W/m² 2,5 °C 17,8 °C 6,4 km/h (2 Bft)
23.03.2026 16:22 22,6 °C 17,8 °C 46 % 37 % 1018,0 hPa 0,0 l/m² 4,6 km/h (1 Bft) N-NW 343 ° 1 min 294 W/m² 2,9 °C 17,8 °C 8,0 km/h (2 Bft)
23.03.2026 16:24 22,6 °C 17,8 °C 46 % 37 % 1018,0 hPa 0,0 l/m² 4,4 km/h (1 Bft) N-NW 327 ° 2 min 288 W/m² 2,9 °C 17,8 °C 8,0 km/h (2 Bft)
23.03.2026 16:26 22,6 °C 17,7 °C 46 % 36 % 1018,0 hPa 0,0 l/m² 1,2 km/h (1 Bft) N-NW 333 ° 2 min 283 W/m² 2,4 °C 17,7 °C 4,8 km/h (1 Bft)
23.03.2026 16:28 22,6 °C 17,7 °C 46 % 36 % 1018,0 hPa 0,0 l/m² 0,3 km/h (0 Bft) N-NO 13 ° 2 min 274 W/m² 2,4 °C 17,7 °C 4,8 km/h (1 Bft)
23.03.2026 16:30 22,6 °C 17,7 °C 46 % 37 % 1018,0 hPa 0,0 l/m² 4,3 km/h (1 Bft) NW 320 ° 2 min 272 W/m² 2,8 °C 17,7 °C 6,4 km/h (2 Bft)
23.03.2026 16:31 22,6 °C 17,7 °C 46 % 37 % 1018,1 hPa 0,0 l/m² 5,5 km/h (2 Bft) N-NW 338 ° 1 min 269 W/m² 2,8 °C 17,7 °C 8,0 km/h (2 Bft)
23.03.2026 16:32 22,6 °C 17,7 °C 46 % 36 % 1018,1 hPa 0,0 l/m² 4,8 km/h (1 Bft) W-NW 301 ° 1 min 265 W/m² 2,4 °C 17,7 °C 6,4 km/h (2 Bft)
23.03.2026 16:34 22,6 °C 17,6 °C 46 % 37 % 1018,0 hPa 0,0 l/m² 4,9 km/h (1 Bft) NW 321 ° 2 min 260 W/m² 2,7 °C 17,6 °C 8,0 km/h (2 Bft)
23.03.2026 16:35 22,6 °C 17,7 °C 46 % 37 % 1018,1 hPa 0,0 l/m² 4,8 km/h (1 Bft) NW 311 ° 1 min 257 W/m² 2,8 °C 17,7 °C 6,4 km/h (2 Bft)
23.03.2026 16:37 22,6 °C 17,6 °C 47 % 36 % 1018,1 hPa 0,0 l/m² 5,0 km/h (1 Bft) NW 318 ° 2 min 251 W/m² 2,4 °C 17,6 °C 8,0 km/h (2 Bft)
23.03.2026 16:39 22,6 °C 17,6 °C 46 % 37 % 1018,1 hPa 0,0 l/m² 4,6 km/h (1 Bft) W-NW 292 ° 2 min 246 W/m² 2,7 °C 17,6 °C 6,4 km/h (2 Bft)
23.03.2026 16:40 22,6 °C 17,6 °C 46 % 38 % 1018,2 hPa 0,0 l/m² 3,9 km/h (1 Bft) NW 317 ° 1 min 243 W/m² 3,1 °C 17,6 °C 6,4 km/h (2 Bft)
23.03.2026 16:42 22,6 °C 17,6 °C 46 % 37 % 1018,1 hPa 0,0 l/m² 5,1 km/h (1 Bft) N-NW 336 ° 2 min 237 W/m² 2,7 °C 17,6 °C 8,0 km/h (2 Bft)
23.03.2026 16:43 22,6 °C 17,5 °C 46 % 38 % 1018,2 hPa 0,0 l/m² 5,0 km/h (1 Bft) NW 321 ° 1 min 234 W/m² 3,0 °C 17,5 °C 8,0 km/h (2 Bft)
23.03.2026 16:45 22,6 °C 17,5 °C 46 % 37 % 1018,2 hPa 0,0 l/m² 4,7 km/h (1 Bft) NW 319 ° 2 min 229 W/m² 2,7 °C 17,5 °C 6,4 km/h (2 Bft)
23.03.2026 16:47 22,6 °C 17,4 °C 46 % 37 % 1018,2 hPa 0,0 l/m² 2,5 km/h (1 Bft) NW 326 ° 2 min 220 W/m² 2,6 °C 17,4 °C 4,8 km/h (1 Bft)
23.03.2026 16:49 22,6 °C 17,4 °C 46 % 37 % 1018,2 hPa 0,0 l/m² 6,0 km/h (2 Bft) N-NW 332 ° 2 min 214 W/m² 2,6 °C 17,4 °C 11,3 km/h (2 Bft)
23.03.2026 16:50 22,5 °C 17,4 °C 46 % 37 % 1018,3 hPa 0,0 l/m² 4,6 km/h (1 Bft) N-NW 348 ° 1 min 211 W/m² 2,6 °C 17,4 °C 6,4 km/h (2 Bft)
23.03.2026 16:51 22,5 °C 17,4 °C 46 % 38 % 1018,3 hPa 0,0 l/m² 7,9 km/h (2 Bft) N 355 ° 1 min 207 W/m² 2,9 °C 16,7 °C 9,7 km/h (2 Bft)
23.03.2026 16:52 22,5 °C 17,3 °C 46 % 37 % 1018,3 hPa 0,0 l/m² 5,8 km/h (2 Bft) N-NW 342 ° 1 min 206 W/m² 2,5 °C 17,3 °C 6,4 km/h (2 Bft)
23.03.2026 16:54 22,5 °C 17,3 °C 46 % 38 % 1018,4 hPa 0,0 l/m² 5,2 km/h (1 Bft) NW 304 ° 2 min 204 W/m² 2,9 °C 17,3 °C 8,0 km/h (2 Bft)
23.03.2026 16:56 22,5 °C 17,3 °C 46 % 38 % 1018,3 hPa 0,0 l/m² 6,0 km/h (2 Bft) N-NW 338 ° 2 min 199 W/m² 2,9 °C 17,3 °C 8,0 km/h (2 Bft)
23.03.2026 16:58 22,5 °C 17,2 °C 46 % 37 % 1018,4 hPa 0,0 l/m² 3,5 km/h (1 Bft) N-NW 340 ° 2 min 121 W/m² 2,4 °C 17,2 °C 6,4 km/h (2 Bft)
23.03.2026 17:00 22,5 °C 17,2 °C 46 % 38 % 1018,4 hPa 0,0 l/m² 4,1 km/h (1 Bft) N-NW 347 ° 2 min 95 W/m² 2,8 °C 17,2 °C 8,0 km/h (2 Bft)
23.03.2026 17:01 22,5 °C 17,2 °C 46 % 38 % 1018,4 hPa 0,0 l/m² 3,7 km/h (1 Bft) N 355 ° 1 min 84 W/m² 2,8 °C 17,2 °C 4,8 km/h (1 Bft)
23.03.2026 17:02 22,5 °C 17,1 °C 46 % 37 % 1018,4 hPa 0,0 l/m² 2,6 km/h (1 Bft) N 355 ° 1 min 88 W/m² 2,3 °C 17,1 °C 4,8 km/h (1 Bft)
23.03.2026 17:04 22,5 °C 17,1 °C 46 % 38 % 1018,3 hPa 0,0 l/m² 3,0 km/h (1 Bft) N 350 ° 2 min 69 W/m² 2,7 °C 17,1 °C 4,8 km/h (1 Bft)
23.03.2026 17:05 22,4 °C 17,1 °C 46 % 38 % 1018,4 hPa 0,0 l/m² 0,7 km/h (0 Bft) N 350 ° 1 min 62 W/m² 2,7 °C 17,1 °C 1,6 km/h (1 Bft)
23.03.2026 17:07 22,5 °C 17,0 °C 46 % 38 % 1018,3 hPa 0,0 l/m² 0,3 km/h (0 Bft) N 350 ° 0 min 51 W/m² 2,6 °C 17,0 °C 1,6 km/h (1 Bft)
23.03.2026 17:09 22,4 °C 16,9 °C 46 % 38 % 1018,3 hPa 0,0 l/m² 1,8 km/h (1 Bft) N-NW 348 ° 0 min 49 W/m² 2,5 °C 16,9 °C 3,2 km/h (1 Bft)
23.03.2026 17:10 22,4 °C 16,9 °C 46 % 38 % 1018,3 hPa 0,0 l/m² 1,0 km/h (0 Bft) N 355 ° 0 min 49 W/m² 2,5 °C 16,9 °C 4,8 km/h (1 Bft)
23.03.2026 17:11 22,4 °C 16,8 °C 46 % 38 % 1018,4 hPa 0,0 l/m² 3,4 km/h (1 Bft) N 355 ° 0 min 51 W/m² 2,4 °C 16,8 °C 4,8 km/h (1 Bft)
23.03.2026 17:12 22,4 °C 16,8 °C 46 % 38 % 1018,4 hPa 0,0 l/m² 3,2 km/h (1 Bft) N 355 ° 0 min 51 W/m² 2,4 °C 16,8 °C 3,2 km/h (1 Bft)
23.03.2026 17:14 22,4 °C 16,8 °C 46 % 38 % 1018,4 hPa 0,0 l/m² 1,9 km/h (1 Bft) N 355 ° 2 min 53 W/m² 2,4 °C 16,8 °C 4,8 km/h (1 Bft)
23.03.2026 17:16 22,4 °C 16,7 °C 46 % 38 % 1018,4 hPa 0,0 l/m² 1,1 km/h (1 Bft) N 360 ° 2 min 54 W/m² 2,3 °C 16,7 °C 4,8 km/h (1 Bft)
23.03.2026 17:18 22,4 °C 16,6 °C 46 % 39 % 1018,4 hPa 0,0 l/m² 1,6 km/h (1 Bft) N 5 ° 2 min 56 W/m² 2,6 °C 16,6 °C 4,8 km/h (1 Bft)
23.03.2026 17:20 22,4 °C 16,5 °C 46 % 39 % 1018,4 hPa 0,0 l/m² 0,0 km/h (0 Bft) N 5 ° 2 min 56 W/m² 2,5 °C 16,5 °C 0,0 km/h (0 Bft)
23.03.2026 17:21 22,4 °C 16,4 °C 46 % 39 % 1018,5 hPa 0,0 l/m² 0,0 km/h (0 Bft) N 5 ° 1 min 60 W/m² 2,4 °C 16,4 °C 0,0 km/h (0 Bft)
23.03.2026 17:22 22,4 °C 16,4 °C 46 % 39 % 1018,5 hPa 0,0 l/m² 0,0 km/h (0 Bft) N 5 ° 1 min 63 W/m² 2,4 °C 16,4 °C 0,0 km/h (0 Bft)
23.03.2026 17:24 22,4 °C 16,3 °C 46 % 39 % 1018,5 hPa 0,0 l/m² 0,0 km/h (0 Bft) N 5 ° 2 min 62 W/m² 2,3 °C 16,3 °C 0,0 km/h (0 Bft)
23.03.2026 17:26 22,4 °C 16,3 °C 46 % 39 % 1018,5 hPa 0,0 l/m² 0,0 km/h (0 Bft) N 5 ° 2 min 62 W/m² 2,3 °C 16,3 °C 0,0 km/h (0 Bft)
23.03.2026 17:28 22,4 °C 16,2 °C 46 % 40 % 1018,5 hPa 0,0 l/m² 0,0 km/h (0 Bft) N 5 ° 2 min 65 W/m² 2,6 °C 16,2 °C 0,0 km/h (0 Bft)
23.03.2026 17:30 22,4 °C 16,1 °C 46 % 41 % 1018,4 hPa 0,0 l/m² 0,0 km/h (0 Bft) N 5 ° 2 min 67 W/m² 2,8 °C 16,1 °C 0,0 km/h (0 Bft)
23.03.2026 17:31 22,4 °C 16,0 °C 46 % 40 % 1018,5 hPa 0,0 l/m² 0,0 km/h (0 Bft) N 5 ° 1 min 67 W/m² 2,4 °C 16,0 °C 0,0 km/h (0 Bft)
23.03.2026 17:33 22,4 °C 16,0 °C 46 % 41 % 1018,5 hPa 0,0 l/m² 0,0 km/h (0 Bft) N 5 ° 2 min 63 W/m² 2,8 °C 16,0 °C 0,0 km/h (0 Bft)
23.03.2026 17:34 22,4 °C 15,9 °C 46 % 41 % 1018,5 hPa 0,0 l/m² 0,0 km/h (0 Bft) N 5 ° 1 min 63 W/m² 2,7 °C 15,9 °C 0,0 km/h (0 Bft)
23.03.2026 17:36 22,4 °C 15,9 °C 46 % 41 % 1018,5 hPa 0,0 l/m² 0,0 km/h (0 Bft) N 5 ° 2 min 62 W/m² 2,7 °C 15,9 °C 0,0 km/h (0 Bft)
23.03.2026 17:38 22,4 °C 15,8 °C 46 % 42 % 1018,7 hPa 0,0 l/m² 0,0 km/h (0 Bft) N 5 ° 2 min 60 W/m² 2,9 °C 15,8 °C 0,0 km/h (0 Bft)
23.03.2026 17:40 22,4 °C 15,7 °C 46 % 42 % 1018,6 hPa 0,0 l/m² 0,2 km/h (0 Bft) N 5 ° 2 min 56 W/m² 2,8 °C 15,7 °C 1,6 km/h (1 Bft)
23.03.2026 17:41 22,4 °C 15,7 °C 46 % 41 % 1018,6 hPa 0,0 l/m² 1,6 km/h (1 Bft) N 5 ° 1 min 54 W/m² 2,5 °C 15,7 °C 3,2 km/h (1 Bft)
23.03.2026 17:42 22,4 °C 15,7 °C 46 % 41 % 1018,6 hPa 0,0 l/m² 0,8 km/h (0 Bft) N 5 ° 1 min 54 W/m² 2,5 °C 15,7 °C 1,6 km/h (1 Bft)
23.03.2026 17:44 22,4 °C 15,6 °C 46 % 41 % 1018,7 hPa 0,0 l/m² 0,4 km/h (0 Bft) N 5 ° 0 min 49 W/m² 2,4 °C 15,6 °C 1,6 km/h (1 Bft)
23.03.2026 17:46 22,3 °C 15,5 °C 46 % 43 % 1018,6 hPa 0,0 l/m² 0,2 km/h (0 Bft) N 5 ° 0 min 47 W/m² 3,0 °C 15,5 °C 1,6 km/h (1 Bft)
23.03.2026 17:48 22,4 °C 15,4 °C 46 % 45 % 1018,6 hPa 0,0 l/m² 0,1 km/h (0 Bft) N 5 ° 0 min 44 W/m² 3,5 °C 15,4 °C 1,6 km/h (1 Bft)
23.03.2026 17:50 22,3 °C 15,3 °C 46 % 46 % 1018,6 hPa 0,0 l/m² 0,0 km/h (0 Bft) N 5 ° 0 min 42 W/m² 3,8 °C 15,3 °C 1,6 km/h (1 Bft)
23.03.2026 17:51 22,3 °C 15,2 °C 46 % 47 % 1018,5 hPa 0,0 l/m² 0,0 km/h (0 Bft) N 5 ° 0 min 40 W/m² 4,0 °C 15,2 °C 0,0 km/h (0 Bft)
23.03.2026 17:53 22,3 °C 15,1 °C 46 % 49 % 1018,5 hPa 0,0 l/m² 0,0 km/h (0 Bft) N 5 ° 0 min 39 W/m² 4,5 °C 15,1 °C 0,0 km/h (0 Bft)
23.03.2026 17:54 22,3 °C 14,9 °C 46 % 48 % 1018,5 hPa 0,0 l/m² 0,0 km/h (0 Bft) N 5 ° 0 min 37 W/m² 4,0 °C 14,9 °C 0,0 km/h (0 Bft)
23.03.2026 17:56 22,3 °C 14,8 °C 46 % 47 % 1018,6 hPa 0,0 l/m² 0,0 km/h (0 Bft) N 5 ° 0 min 33 W/m² 3,6 °C 14,8 °C 0,0 km/h (0 Bft)
23.03.2026 17:58 22,3 °C 14,7 °C 46 % 48 % 1018,5 hPa 0,0 l/m² 0,0 km/h (0 Bft) N 5 ° 0 min 30 W/m² 3,8 °C 14,7 °C 0,0 km/h (0 Bft)
23.03.2026 18:00 22,3 °C 14,6 °C 47 % 47 % 1018,6 hPa 0,0 l/m² 0,0 km/h (0 Bft) N 5 ° 0 min 26 W/m² 3,4 °C 14,6 °C 0,0 km/h (0 Bft)
23.03.2026 18:01 22,3 °C 14,6 °C 47 % 47 % 1018,7 hPa 0,0 l/m² 0,0 km/h (0 Bft) N 5 ° 0 min 23 W/m² 3,4 °C 14,6 °C 0,0 km/h (0 Bft)
23.03.2026 18:02 22,3 °C 14,6 °C 47 % 48 % 1018,7 hPa 0,0 l/m² 0,0 km/h (0 Bft) N 5 ° 0 min 21 W/m² 3,7 °C 14,6 °C 0,0 km/h (0 Bft)
23.03.2026 18:03 22,3 °C 14,5 °C 47 % 48 % 1018,7 hPa 0,0 l/m² 0,0 km/h (0 Bft) N 5 ° 0 min 21 W/m² 3,6 °C 14,5 °C 0,0 km/h (0 Bft)
23.03.2026 18:06 22,3 °C 14,3 °C 47 % 48 % 1018,7 hPa 0,0 l/m² 0,0 km/h (0 Bft) N 5 ° 0 min 16 W/m² 3,4 °C 14,3 °C 0,0 km/h (0 Bft)
23.03.2026 18:08 22,3 °C 14,2 °C 47 % 49 % 1018,7 hPa 0,0 l/m² 0,0 km/h (0 Bft) N 5 ° 0 min 14 W/m² 3,6 °C 14,2 °C 0,0 km/h (0 Bft)
23.03.2026 18:10 22,3 °C 14,2 °C 47 % 50 % 1018,7 hPa 0,0 l/m² 0,0 km/h (0 Bft) N 5 ° 0 min 12 W/m² 3,9 °C 14,2 °C 0,0 km/h (0 Bft)
23.03.2026 18:11 22,3 °C 14,1 °C 47 % 52 % 1018,7 hPa 0,0 l/m² 0,0 km/h (0 Bft) N 5 ° 0 min 12 W/m² 4,4 °C 14,1 °C 0,0 km/h (0 Bft)
23.03.2026 18:13 22,3 °C 13,9 °C 47 % 53 % 1018,7 hPa 0,0 l/m² 0,0 km/h (0 Bft) N 5 ° 0 min 11 W/m² 4,5 °C 13,9 °C 0,0 km/h (0 Bft)
23.03.2026 18:15 22,3 °C 13,8 °C 47 % 54 % 1018,7 hPa 0,0 l/m² 0,0 km/h (0 Bft) N 5 ° 0 min 9 W/m² 4,7 °C 13,8 °C 0,0 km/h (0 Bft)
23.03.2026 18:17 22,3 °C 13,7 °C 47 % 54 % 1018,7 hPa 0,0 l/m² 0,0 km/h (0 Bft) N 5 ° 0 min 7 W/m² 4,6 °C 13,7 °C 0,0 km/h (0 Bft)
23.03.2026 18:19 22,3 °C 13,6 °C 47 % 53 % 1018,7 hPa 0,0 l/m² 0,0 km/h (0 Bft) N 5 ° 0 min 7 W/m² 4,2 °C 13,6 °C 0,0 km/h (0 Bft)
23.03.2026 18:21 22,3 °C 13,4 °C 48 % 54 % 1018,7 hPa 0,0 l/m² 0,0 km/h (0 Bft) N 5 ° 0 min 5 W/m² 4,3 °C 13,4 °C 0,0 km/h (0 Bft)
23.03.2026 18:22 22,3 °C 13,3 °C 48 % 54 % 1018,7 hPa 0,0 l/m² 0,0 km/h (0 Bft) N 5 ° 0 min 5 W/m² 4,2 °C 13,3 °C 0,0 km/h (0 Bft)
23.03.2026 18:23 22,3 °C 13,3 °C 48 % 54 % 1018,7 hPa 0,0 l/m² 0,1 km/h (0 Bft) N 5 ° 0 min 5 W/m² 4,2 °C 13,3 °C 1,6 km/h (1 Bft)
23.03.2026 18:26 22,4 °C 13,1 °C 48 % 53 % 1018,8 hPa 0,0 l/m² 0,0 km/h (0 Bft) N 5 ° 0 min 0 W/m² 3,7 °C 13,1 °C 1,6 km/h (1 Bft)
23.03.2026 18:28 22,3 °C 13,0 °C 48 % 53 % 1018,8 hPa 0,0 l/m² 0,3 km/h (0 Bft) N 5 ° 0 min 0 W/m² 3,6 °C 13,0 °C 1,6 km/h (1 Bft)
23.03.2026 18:30 22,3 °C 12,8 °C 48 % 54 % 1018,8 hPa 0,0 l/m² 0,0 km/h (0 Bft) N 5 ° 0 min 0 W/m² 3,7 °C 12,8 °C 0,0 km/h (0 Bft)
23.03.2026 18:31 22,3 °C 12,7 °C 48 % 54 % 1018,9 hPa 0,0 l/m² 0,0 km/h (0 Bft) N 5 ° 0 min 0 W/m² 3,6 °C 12,7 °C 0,0 km/h (0 Bft)
23.03.2026 18:33 22,3 °C 12,6 °C 48 % 55 % 1018,9 hPa 0,0 l/m² 0,0 km/h (0 Bft) N 5 ° 0 min 0 W/m² 3,8 °C 12,6 °C 0,0 km/h (0 Bft)
23.03.2026 18:35 22,3 °C 12,4 °C 48 % 56 % 1018,9 hPa 0,0 l/m² 0,0 km/h (0 Bft) N 5 ° 0 min 0 W/m² 3,9 °C 12,4 °C 0,0 km/h (0 Bft)
23.03.2026 18:37 22,3 °C 12,2 °C 48 % 57 % 1019,0 hPa 0,0 l/m² 0,0 km/h (0 Bft) N 5 ° 0 min 0 W/m² 3,9 °C 12,2 °C 0,0 km/h (0 Bft)
23.03.2026 18:39 22,3 °C 11,9 °C 48 % 58 % 1019,1 hPa 0,0 l/m² 0,0 km/h (0 Bft) N 5 ° 0 min 0 W/m² 3,9 °C 11,9 °C 0,0 km/h (0 Bft)
23.03.2026 18:41 22,3 °C 11,7 °C 48 % 59 % 1019,2 hPa 0,0 l/m² 0,0 km/h (0 Bft) N 5 ° 0 min 0 W/m² 4,0 °C 11,7 °C 0,0 km/h (0 Bft)
23.03.2026 18:42 22,3 °C 11,6 °C 48 % 59 % 1019,1 hPa 0,0 l/m² 0,0 km/h (0 Bft) N 5 ° 0 min 0 W/m² 3,9 °C 11,6 °C 0,0 km/h (0 Bft)
23.03.2026 18:43 22,3 °C 11,5 °C 48 % 60 % 1019,1 hPa 0,0 l/m² 0,0 km/h (0 Bft) N 5 ° 0 min 0 W/m² 4,0 °C 11,5 °C 0,0 km/h (0 Bft)
23.03.2026 18:45 22,3 °C 11,3 °C 48 % 61 % 1019,1 hPa 0,0 l/m² 0,0 km/h (0 Bft) N 5 ° 0 min 0 W/m² 4,1 °C 11,3 °C 0,0 km/h (0 Bft)
23.03.2026 18:48 22,3 °C 11,1 °C 47 % 62 % 1019,2 hPa 0,0 l/m² 0,0 km/h (0 Bft) N 5 ° 0 min 0 W/m² 4,1 °C 11,1 °C 0,0 km/h (0 Bft)
23.03.2026 18:50 22,3 °C 11,0 °C 47 % 63 % 1019,2 hPa 0,0 l/m² 0,0 km/h (0 Bft) N 5 ° 0 min 0 W/m² 4,2 °C 11,0 °C 0,0 km/h (0 Bft)
23.03.2026 18:51 22,3 °C 10,9 °C 47 % 63 % 1019,3 hPa 0,0 l/m² 0,0 km/h (0 Bft) N 5 ° 0 min 0 W/m² 4,1 °C 10,9 °C 0,0 km/h (0 Bft)
23.03.2026 18:52 22,3 °C 10,8 °C 47 % 64 % 1019,3 hPa 0,0 l/m² 0,0 km/h (0 Bft) N 5 ° 0 min 0 W/m² 4,3 °C 10,8 °C 0,0 km/h (0 Bft)
23.03.2026 18:54 22,3 °C 10,7 °C 47 % 64 % 1019,3 hPa 0,0 l/m² 0,0 km/h (0 Bft) N 5 ° 0 min 0 W/m² 4,2 °C 10,7 °C 0,0 km/h (0 Bft)
23.03.2026 18:56 22,3 °C 10,6 °C 47 % 65 % 1019,3 hPa 0,0 l/m² 0,0 km/h (0 Bft) N 5 ° 0 min 0 W/m² 4,3 °C 10,6 °C 0,0 km/h (0 Bft)
23.03.2026 18:58 22,3 °C 10,4 °C 47 % 65 % 1019,4 hPa 0,0 l/m² 0,0 km/h (0 Bft) N 5 ° 0 min 0 W/m² 4,1 °C 10,4 °C 0,0 km/h (0 Bft)
23.03.2026 19:00 22,3 °C 10,3 °C 47 % 66 % 1019,5 hPa 0,0 l/m² 0,0 km/h (0 Bft) N 5 ° 0 min 0 W/m² 4,2 °C 10,3 °C 0,0 km/h (0 Bft)
23.03.2026 19:01 22,3 °C 10,2 °C 47 % 66 % 1019,4 hPa 0,0 l/m² 0,0 km/h (0 Bft) N 5 ° 0 min 0 W/m² 4,1 °C 10,2 °C 0,0 km/h (0 Bft)
23.03.2026 19:02 22,3 °C 10,2 °C 47 % 65 % 1019,4 hPa 0,0 l/m² 0,0 km/h (0 Bft) N 5 ° 0 min 0 W/m² 3,9 °C 10,2 °C 0,0 km/h (0 Bft)
23.03.2026 19:04 22,3 °C 10,1 °C 47 % 66 % 1019,4 hPa 0,0 l/m² 0,0 km/h (0 Bft) N 5 ° 0 min 0 W/m² 4,0 °C 10,1 °C 0,0 km/h (0 Bft)
23.03.2026 19:05 22,3 °C 10,1 °C 47 % 66 % 1019,5 hPa 0,0 l/m² 0,0 km/h (0 Bft) N 5 ° 0 min 0 W/m² 4,0 °C 10,1 °C 0,0 km/h (0 Bft)
23.03.2026 19:07 22,3 °C 9,9 °C 47 % 66 % 1019,6 hPa 0,0 l/m² 0,0 km/h (0 Bft) N 5 ° 0 min 0 W/m² 3,9 °C 9,9 °C 0,0 km/h (0 Bft)
23.03.2026 19:09 22,2 °C 9,8 °C 47 % 66 % 1019,6 hPa 0,0 l/m² 0,0 km/h (0 Bft) N 5 ° 0 min 0 W/m² 3,8 °C 9,8 °C 0,0 km/h (0 Bft)
23.03.2026 19:10 22,2 °C 9,8 °C 47 % 66 % 1019,6 hPa 0,0 l/m² 0,0 km/h (0 Bft) N 5 ° 0 min 0 W/m² 3,8 °C 9,8 °C 0,0 km/h (0 Bft)
23.03.2026 19:11 22,2 °C 9,7 °C 47 % 65 % 1019,7 hPa 0,0 l/m² 0,0 km/h (0 Bft) N 5 ° 0 min 0 W/m² 3,4 °C 9,7 °C 0,0 km/h (0 Bft)
23.03.2026 19:12 22,2 °C 9,6 °C 47 % 65 % 1019,7 hPa 0,0 l/m² 0,0 km/h (0 Bft) N 5 ° 0 min 0 W/m² 3,4 °C 9,6 °C 0,0 km/h (0 Bft)
23.03.2026 19:14 22,2 °C 9,4 °C 47 % 65 % 1019,7 hPa 0,0 l/m² 0,0 km/h (0 Bft) N 5 ° 0 min 0 W/m² 3,2 °C 9,4 °C 0,0 km/h (0 Bft)
23.03.2026 19:16 22,2 °C 9,3 °C 47 % 66 % 1019,6 hPa 0,0 l/m² 0,0 km/h (0 Bft) N 5 ° 0 min 0 W/m² 3,3 °C 9,3 °C 0,0 km/h (0 Bft)
23.03.2026 19:18 22,2 °C 9,1 °C 47 % 67 % 1019,6 hPa 0,0 l/m² 0,0 km/h (0 Bft) N 5 ° 0 min 0 W/m² 3,3 °C 9,1 °C 0,0 km/h (0 Bft)
23.03.2026 19:20 22,2 °C 9,1 °C 47 % 67 % 1019,7 hPa 0,0 l/m² 0,0 km/h (0 Bft) N 5 ° 0 min 0 W/m² 3,3 °C 9,1 °C 0,0 km/h (0 Bft)
23.03.2026 19:21 22,2 °C 8,9 °C 47 % 67 % 1019,6 hPa 0,0 l/m² 0,0 km/h (0 Bft) N 5 ° 0 min 0 W/m² 3,1 °C 8,9 °C 0,0 km/h (0 Bft)
23.03.2026 19:22 22,2 °C 8,9 °C 47 % 67 % 1019,6 hPa 0,0 l/m² 0,0 km/h (0 Bft) N 5 ° 0 min 0 W/m² 3,1 °C 8,9 °C 0,0 km/h (0 Bft)
23.03.2026 19:24 22,2 °C 8,8 °C 47 % 67 % 1019,6 hPa 0,0 l/m² 0,0 km/h (0 Bft) N 5 ° 0 min 0 W/m² 3,0 °C 8,8 °C 0,0 km/h (0 Bft)
23.03.2026 19:26 22,2 °C 8,7 °C 47 % 67 % 1019,7 hPa 0,0 l/m² 0,0 km/h (0 Bft) N 5 ° 0 min 0 W/m² 2,9 °C 8,7 °C 0,0 km/h (0 Bft)
23.03.2026 19:28 22,2 °C 8,6 °C 47 % 68 % 1019,6 hPa 0,0 l/m² 0,0 km/h (0 Bft) N 5 ° 0 min 0 W/m² 3,0 °C 8,6 °C 0,0 km/h (0 Bft)
23.03.2026 19:30 22,2 °C 8,5 °C 47 % 68 % 1019,7 hPa 0,0 l/m² 0,0 km/h (0 Bft) N 5 ° 0 min 0 W/m² 2,9 °C 8,5 °C 0,0 km/h (0 Bft)
23.03.2026 19:31 22,2 °C 8,5 °C 47 % 68 % 1019,7 hPa 0,0 l/m² 0,0 km/h (0 Bft) N 5 ° 0 min 0 W/m² 2,9 °C 8,5 °C 0,0 km/h (0 Bft)
23.03.2026 19:32 22,2 °C 8,4 °C 47 % 68 % 1019,7 hPa 0,0 l/m² 0,0 km/h (0 Bft) N 5 ° 0 min 0 W/m² 2,8 °C 8,4 °C 0,0 km/h (0 Bft)
23.03.2026 19:34 22,2 °C 8,4 °C 47 % 68 % 1019,7 hPa 0,0 l/m² 0,0 km/h (0 Bft) N 5 ° 0 min 0 W/m² 2,8 °C 8,4 °C 0,0 km/h (0 Bft)
23.03.2026 19:36 22,2 °C 8,3 °C 47 % 68 % 1019,7 hPa 0,0 l/m² 0,0 km/h (0 Bft) N 5 ° 0 min 0 W/m² 2,7 °C 8,3 °C 0,0 km/h (0 Bft)
23.03.2026 19:38 22,2 °C 8,2 °C 47 % 68 % 1019,8 hPa 0,0 l/m² 0,0 km/h (0 Bft) N 5 ° 0 min 0 W/m² 2,7 °C 8,2 °C 0,0 km/h (0 Bft)
23.03.2026 19:40 22,2 °C 8,1 °C 47 % 68 % 1019,8 hPa 0,0 l/m² 0,0 km/h (0 Bft) N 5 ° 0 min 0 W/m² 2,6 °C 8,1 °C 0,0 km/h (0 Bft)
23.03.2026 19:41 22,2 °C 8,0 °C 47 % 68 % 1019,8 hPa 0,0 l/m² 0,0 km/h (0 Bft) N 5 ° 0 min 0 W/m² 2,5 °C 8,0 °C 0,0 km/h (0 Bft)
23.03.2026 19:42 22,2 °C 8,0 °C 47 % 68 % 1019,8 hPa 0,0 l/m² 0,0 km/h (0 Bft) N 5 ° 0 min 0 W/m² 2,5 °C 8,0 °C 0,0 km/h (0 Bft)
23.03.2026 19:44 22,2 °C 7,9 °C 47 % 69 % 1019,8 hPa 0,0 l/m² 0,0 km/h (0 Bft) N 5 ° 0 min 0 W/m² 2,6 °C 7,9 °C 0,0 km/h (0 Bft)
23.03.2026 19:46 22,2 °C 7,9 °C 47 % 69 % 1019,9 hPa 0,0 l/m² 0,0 km/h (0 Bft) N 5 ° 0 min 0 W/m² 2,6 °C 7,9 °C 0,0 km/h (0 Bft)
23.03.2026 19:48 22,2 °C 7,8 °C 47 % 69 % 1019,9 hPa 0,0 l/m² 0,0 km/h (0 Bft) N 5 ° 0 min 0 W/m² 2,5 °C 7,8 °C 0,0 km/h (0 Bft)
23.03.2026 19:50 22,2 °C 7,7 °C 47 % 69 % 1019,9 hPa 0,0 l/m² 0,0 km/h (0 Bft) N 5 ° 0 min 0 W/m² 2,4 °C 7,7 °C 0,0 km/h (0 Bft)
23.03.2026 19:51 22,2 °C 7,6 °C 47 % 69 % 1019,9 hPa 0,0 l/m² 0,0 km/h (0 Bft) N 5 ° 0 min 0 W/m² 2,3 °C 7,6 °C 0,0 km/h (0 Bft)
23.03.2026 19:52 22,2 °C 7,6 °C 47 % 69 % 1019,9 hPa 0,0 l/m² 0,0 km/h (0 Bft) N 5 ° 0 min 0 W/m² 2,3 °C 7,6 °C 0,0 km/h (0 Bft)
23.03.2026 19:54 22,2 °C 7,4 °C 47 % 69 % 1019,9 hPa 0,0 l/m² 0,0 km/h (0 Bft) N 5 ° 0 min 0 W/m² 2,1 °C 7,4 °C 0,0 km/h (0 Bft)
23.03.2026 19:56 22,2 °C 7,3 °C 47 % 70 % 1019,9 hPa 0,0 l/m² 0,0 km/h (0 Bft) N 5 ° 0 min 0 W/m² 2,2 °C 7,3 °C 0,0 km/h (0 Bft)
23.03.2026 19:58 22,2 °C 7,3 °C 47 % 70 % 1019,9 hPa 0,0 l/m² 0,0 km/h (0 Bft) N 5 ° 0 min 0 W/m² 2,2 °C 7,3 °C 0,0 km/h (0 Bft)
23.03.2026 20:00 22,1 °C 7,1 °C 47 % 70 % 1019,9 hPa 0,0 l/m² 0,0 km/h (0 Bft) N 5 ° 0 min 0 W/m² 2,0 °C 7,1 °C 0,0 km/h (0 Bft)
23.03.2026 20:01 22,1 °C 7,1 °C 47 % 70 % 1020,0 hPa 0,0 l/m² 0,0 km/h (0 Bft) N 5 ° 0 min 0 W/m² 2,0 °C 7,1 °C 0,0 km/h (0 Bft)
23.03.2026 20:02 22,1 °C 7,1 °C 47 % 71 % 1020,0 hPa 0,0 l/m² 0,0 km/h (0 Bft) N 5 ° 0 min 0 W/m² 2,2 °C 7,1 °C 0,0 km/h (0 Bft)
23.03.2026 20:05 22,1 °C 6,9 °C 47 % 71 % 1020,0 hPa 0,0 l/m² 0,0 km/h (0 Bft) N 5 ° 0 min 0 W/m² 2,0 °C 6,9 °C 0,0 km/h (0 Bft)
23.03.2026 20:07 22,2 °C 6,9 °C 47 % 71 % 1020,0 hPa 0,0 l/m² 0,0 km/h (0 Bft) N 5 ° 0 min 0 W/m² 2,0 °C 6,9 °C 0,0 km/h (0 Bft)
23.03.2026 20:09 22,1 °C 6,8 °C 47 % 72 % 1019,9 hPa 0,0 l/m² 0,0 km/h (0 Bft) N 5 ° 0 min 0 W/m² 2,1 °C 6,8 °C 0,0 km/h (0 Bft)
23.03.2026 20:10 22,1 °C 6,7 °C 47 % 72 % 1020,0 hPa 0,0 l/m² 0,0 km/h (0 Bft) N 5 ° 0 min 0 W/m² 2,0 °C 6,7 °C 0,0 km/h (0 Bft)
23.03.2026 20:11 22,1 °C 6,7 °C 47 % 72 % 1019,9 hPa 0,0 l/m² 0,0 km/h (0 Bft) N 5 ° 0 min 0 W/m² 2,0 °C 6,7 °C 0,0 km/h (0 Bft)
23.03.2026 20:12 22,1 °C 6,7 °C 47 % 72 % 1019,9 hPa 0,0 l/m² 0,0 km/h (0 Bft) N 5 ° 0 min 0 W/m² 2,0 °C 6,7 °C 0,0 km/h (0 Bft)
23.03.2026 20:14 22,1 °C 6,6 °C 47 % 72 % 1020,1 hPa 0,0 l/m² 0,0 km/h (0 Bft) N 5 ° 0 min 0 W/m² 1,9 °C 6,6 °C 0,0 km/h (0 Bft)
23.03.2026 20:16 22,1 °C 6,6 °C 47 % 72 % 1020,1 hPa 0,0 l/m² 0,0 km/h (0 Bft) N 5 ° 0 min 0 W/m² 1,9 °C 6,6 °C 0,0 km/h (0 Bft)
23.03.2026 20:18 22,2 °C 6,4 °C 47 % 72 % 1020,1 hPa 0,0 l/m² 0,0 km/h (0 Bft) N 5 ° 0 min 0 W/m² 1,7 °C 6,4 °C 0,0 km/h (0 Bft)
23.03.2026 20:20 22,2 °C 6,4 °C 47 % 72 % 1020,1 hPa 0,0 l/m² 0,0 km/h (0 Bft) N 5 ° 0 min 0 W/m² 1,7 °C 6,4 °C 0,0 km/h (0 Bft)
23.03.2026 20:21 22,2 °C 6,4 °C 47 % 72 % 1020,2 hPa 0,0 l/m² 0,0 km/h (0 Bft) N 5 ° 0 min 0 W/m² 1,7 °C 6,4 °C 0,0 km/h (0 Bft)
23.03.2026 20:22 22,2 °C 6,3 °C 47 % 72 % 1020,2 hPa 0,0 l/m² 0,0 km/h (0 Bft) N 5 ° 0 min 0 W/m² 1,6 °C 6,3 °C 0,0 km/h (0 Bft)
23.03.2026 20:24 22,2 °C 6,3 °C 47 % 73 % 1020,1 hPa 0,0 l/m² 0,0 km/h (0 Bft) N 5 ° 0 min 0 W/m² 1,8 °C 6,3 °C 0,0 km/h (0 Bft)
23.03.2026 20:25 22,2 °C 6,3 °C 47 % 73 % 1020,2 hPa 0,0 l/m² 0,0 km/h (0 Bft) N 5 ° 0 min 0 W/m² 1,8 °C 6,3 °C 0,0 km/h (0 Bft)
23.03.2026 20:27 22,2 °C 6,2 °C 47 % 73 % 1020,2 hPa 0,0 l/m² 0,0 km/h (0 Bft) N 5 ° 0 min 0 W/m² 1,7 °C 6,2 °C 0,0 km/h (0 Bft)
23.03.2026 20:29 22,2 °C 6,2 °C 47 % 73 % 1020,2 hPa 0,0 l/m² 0,0 km/h (0 Bft) N 5 ° 0 min 0 W/m² 1,7 °C 6,2 °C 0,0 km/h (0 Bft)
23.03.2026 20:30 22,2 °C 6,2 °C 47 % 73 % 1020,2 hPa 0,0 l/m² 0,0 km/h (0 Bft) N 5 ° 0 min 0 W/m² 1,7 °C 6,2 °C 0,0 km/h (0 Bft)
23.03.2026 20:31 22,2 °C 6,1 °C 47 % 73 % 1020,3 hPa 0,0 l/m² 0,0 km/h (0 Bft) N 5 ° 0 min 0 W/m² 1,6 °C 6,1 °C 0,0 km/h (0 Bft)
23.03.2026 20:32 22,2 °C 6,1 °C 47 % 73 % 1020,3 hPa 0,0 l/m² 0,0 km/h (0 Bft) N 5 ° 0 min 0 W/m² 1,6 °C 6,1 °C 0,0 km/h (0 Bft)
23.03.2026 20:35 22,2 °C 6,1 °C 47 % 73 % 1020,3 hPa 0,0 l/m² 0,0 km/h (0 Bft) N 5 ° 0 min 0 W/m² 1,6 °C 6,1 °C 0,0 km/h (0 Bft)
23.03.2026 20:37 22,2 °C 5,9 °C 47 % 73 % 1020,4 hPa 0,0 l/m² 0,0 km/h (0 Bft) N 5 ° 0 min 0 W/m² 1,4 °C 5,9 °C 0,0 km/h (0 Bft)
23.03.2026 20:38 22,2 °C 5,9 °C 47 % 73 % 1020,4 hPa 0,0 l/m² 0,0 km/h (0 Bft) N 5 ° 0 min 0 W/m² 1,4 °C 5,9 °C 0,0 km/h (0 Bft)
23.03.2026 20:39 22,2 °C 5,9 °C 47 % 73 % 1020,4 hPa 0,0 l/m² 0,0 km/h (0 Bft) N 5 ° 0 min 0 W/m² 1,4 °C 5,9 °C 0,0 km/h (0 Bft)
23.03.2026 20:41 22,2 °C 5,8 °C 47 % 73 % 1020,4 hPa 0,0 l/m² 0,0 km/h (0 Bft) N 5 ° 0 min 0 W/m² 1,3 °C 5,8 °C 0,0 km/h (0 Bft)
23.03.2026 20:43 22,2 °C 5,8 °C 47 % 73 % 1020,4 hPa 0,0 l/m² 0,0 km/h (0 Bft) N 5 ° 0 min 0 W/m² 1,3 °C 5,8 °C 0,0 km/h (0 Bft)
23.03.2026 20:45 22,2 °C 5,7 °C 47 % 73 % 1020,4 hPa 0,0 l/m² 0,0 km/h (0 Bft) N 5 ° 0 min 0 W/m² 1,2 °C 5,7 °C 0,0 km/h (0 Bft)
23.03.2026 20:47 22,2 °C 5,6 °C 47 % 73 % 1020,4 hPa 0,0 l/m² 0,0 km/h (0 Bft) N 5 ° 0 min 0 W/m² 1,2 °C 5,6 °C 0,0 km/h (0 Bft)
23.03.2026 20:49 22,2 °C 5,6 °C 47 % 73 % 1020,4 hPa 0,0 l/m² 0,0 km/h (0 Bft) N 5 ° 0 min 0 W/m² 1,2 °C 5,6 °C 0,0 km/h (0 Bft)
23.03.2026 20:50 22,2 °C 5,5 °C 47 % 73 % 1020,4 hPa 0,0 l/m² 0,0 km/h (0 Bft) N 5 ° 0 min 0 W/m² 1,1 °C 5,5 °C 0,0 km/h (0 Bft)
23.03.2026 20:51 22,2 °C 5,4 °C 47 % 74 % 1020,5 hPa 0,0 l/m² 0,0 km/h (0 Bft) N 5 ° 0 min 0 W/m² 1,1 °C 5,4 °C 0,0 km/h (0 Bft)
23.03.2026 20:52 22,2 °C 5,4 °C 47 % 74 % 1020,5 hPa 0,0 l/m² 0,0 km/h (0 Bft) N 5 ° 0 min 0 W/m² 1,1 °C 5,4 °C 0,0 km/h (0 Bft)
23.03.2026 20:54 22,2 °C 5,4 °C 47 % 74 % 1020,5 hPa 0,0 l/m² 0,0 km/h (0 Bft) N 5 ° 0 min 0 W/m² 1,1 °C 5,4 °C 0,0 km/h (0 Bft)
23.03.2026 20:56 22,2 °C 5,4 °C 47 % 75 % 1020,4 hPa 0,0 l/m² 0,0 km/h (0 Bft) N 5 ° 0 min 0 W/m² 1,3 °C 5,4 °C 0,0 km/h (0 Bft)
23.03.2026 20:58 22,2 °C 5,3 °C 47 % 75 % 1020,4 hPa 0,0 l/m² 0,0 km/h (0 Bft) N 5 ° 0 min 0 W/m² 1,2 °C 5,3 °C 0,0 km/h (0 Bft)
23.03.2026 21:00 22,2 °C 5,3 °C 47 % 76 % 1020,5 hPa 0,0 l/m² 0,0 km/h (0 Bft) N 5 ° 0 min 0 W/m² 1,4 °C 5,3 °C 0,0 km/h (0 Bft)
23.03.2026 21:01 22,2 °C 5,3 °C 47 % 76 % 1020,5 hPa 0,0 l/m² 0,0 km/h (0 Bft) N 5 ° 0 min 0 W/m² 1,4 °C 5,3 °C 0,0 km/h (0 Bft)
23.03.2026 21:02 22,2 °C 5,3 °C 47 % 76 % 1020,5 hPa 0,0 l/m² 0,0 km/h (0 Bft) N 5 ° 0 min 0 W/m² 1,4 °C 5,3 °C 0,0 km/h (0 Bft)
23.03.2026 21:04 22,2 °C 5,2 °C 47 % 76 % 1020,5 hPa 0,0 l/m² 0,0 km/h (0 Bft) N 5 ° 0 min 0 W/m² 1,3 °C 5,2 °C 0,0 km/h (0 Bft)
23.03.2026 21:06 22,2 °C 5,2 °C 47 % 76 % 1020,6 hPa 0,0 l/m² 0,5 km/h (0 Bft) N 5 ° 0 min 0 W/m² 1,3 °C 5,2 °C 1,6 km/h (1 Bft)
23.03.2026 21:07 22,2 °C 5,2 °C 47 % 77 % 1020,6 hPa 0,0 l/m² 0,0 km/h (0 Bft) N 5 ° 0 min 0 W/m² 1,5 °C 5,2 °C 0,0 km/h (0 Bft)
23.03.2026 21:09 22,2 °C 5,1 °C 47 % 77 % 1020,6 hPa 0,0 l/m² 0,0 km/h (0 Bft) N 5 ° 0 min 0 W/m² 1,4 °C 5,1 °C 0,0 km/h (0 Bft)
23.03.2026 21:12 22,2 °C 5,1 °C 47 % 77 % 1020,6 hPa 0,0 l/m² 0,0 km/h (0 Bft) N 5 ° 0 min 0 W/m² 1,4 °C 5,1 °C 0,0 km/h (0 Bft)
23.03.2026 21:13 22,2 °C 5,0 °C 47 % 77 % 1020,6 hPa 0,0 l/m² 0,0 km/h (0 Bft) N 5 ° 0 min 0 W/m² 1,3 °C 5,0 °C 0,0 km/h (0 Bft)
23.03.2026 21:14 22,2 °C 5,0 °C 47 % 77 % 1020,6 hPa 0,0 l/m² 0,0 km/h (0 Bft) N 5 ° 0 min 0 W/m² 1,3 °C 5,0 °C 0,0 km/h (0 Bft)
23.03.2026 21:15 22,2 °C 4,9 °C 47 % 77 % 1020,6 hPa 0,0 l/m² 0,0 km/h (0 Bft) N 5 ° 0 min 0 W/m² 1,2 °C 4,9 °C 0,0 km/h (0 Bft)
23.03.2026 21:17 22,2 °C 4,9 °C 47 % 77 % 1020,6 hPa 0,0 l/m² 0,0 km/h (0 Bft) N 5 ° 0 min 0 W/m² 1,2 °C 4,9 °C 0,0 km/h (0 Bft)
23.03.2026 21:19 22,2 °C 4,9 °C 47 % 77 % 1020,6 hPa 0,0 l/m² 0,0 km/h (0 Bft) N 5 ° 0 min 0 W/m² 1,2 °C 4,9 °C 0,0 km/h (0 Bft)
23.03.2026 21:20 22,2 °C 4,8 °C 47 % 77 % 1020,6 hPa 0,0 l/m² 0,0 km/h (0 Bft) N 5 ° 0 min 0 W/m² 1,1 °C 4,8 °C 0,0 km/h (0 Bft)
23.03.2026 21:21 22,2 °C 4,8 °C 47 % 77 % 1020,6 hPa 0,0 l/m² 0,0 km/h (0 Bft) N 5 ° 0 min 0 W/m² 1,1 °C 4,8 °C 0,0 km/h (0 Bft)
23.03.2026 21:22 22,2 °C 4,8 °C 47 % 77 % 1020,7 hPa 0,0 l/m² 0,0 km/h (0 Bft) N 5 ° 0 min 0 W/m² 1,1 °C 4,8 °C 0,0 km/h (0 Bft)
23.03.2026 21:24 22,2 °C 4,7 °C 47 % 77 % 1020,7 hPa 0,0 l/m² 0,0 km/h (0 Bft) N 5 ° 0 min 0 W/m² 1,0 °C 4,7 °C 0,0 km/h (0 Bft)
23.03.2026 21:26 22,2 °C 4,7 °C 47 % 78 % 1020,6 hPa 0,0 l/m² 0,0 km/h (0 Bft) N 5 ° 0 min 0 W/m² 1,2 °C 4,7 °C 0,0 km/h (0 Bft)
23.03.2026 21:28 22,2 °C 4,7 °C 47 % 78 % 1020,7 hPa 0,0 l/m² 0,0 km/h (0 Bft) N 5 ° 0 min 0 W/m² 1,2 °C 4,7 °C 0,0 km/h (0 Bft)
23.03.2026 21:30 22,2 °C 4,7 °C 47 % 77 % 1020,7 hPa 0,0 l/m² 0,0 km/h (0 Bft) N 5 ° 0 min 0 W/m² 1,0 °C 4,7 °C 0,0 km/h (0 Bft)
23.03.2026 21:31 22,2 °C 4,6 °C 47 % 77 % 1020,7 hPa 0,0 l/m² 0,0 km/h (0 Bft) N 5 ° 0 min 0 W/m² 0,9 °C 4,6 °C 0,0 km/h (0 Bft)
23.03.2026 21:32 22,2 °C 4,6 °C 47 % 77 % 1020,7 hPa 0,0 l/m² 0,0 km/h (0 Bft) N 5 ° 0 min 0 W/m² 0,9 °C 4,6 °C 0,0 km/h (0 Bft)
23.03.2026 21:33 22,2 °C 4,6 °C 47 % 77 % 1020,7 hPa 0,0 l/m² 0,0 km/h (0 Bft) N 5 ° 0 min 0 W/m² 0,9 °C 4,6 °C 0,0 km/h (0 Bft)
23.03.2026 21:35 22,1 °C 4,5 °C 47 % 77 % 1020,8 hPa 0,0 l/m² 0,0 km/h (0 Bft) N 5 ° 0 min 0 W/m² 0,8 °C 4,5 °C 0,0 km/h (0 Bft)
23.03.2026 21:37 22,2 °C 4,4 °C 47 % 77 % 1020,7 hPa 0,0 l/m² 0,0 km/h (0 Bft) N 5 ° 0 min 0 W/m² 0,7 °C 4,4 °C 0,0 km/h (0 Bft)
23.03.2026 21:39 22,2 °C 4,4 °C 47 % 77 % 1020,7 hPa 0,0 l/m² 0,0 km/h (0 Bft) N 5 ° 0 min 0 W/m² 0,7 °C 4,4 °C 0,0 km/h (0 Bft)
23.03.2026 21:40 22,1 °C 4,4 °C 47 % 78 % 1020,7 hPa 0,0 l/m² 0,0 km/h (0 Bft) N 5 ° 0 min 0 W/m² 0,9 °C 4,4 °C 0,0 km/h (0 Bft)
23.03.2026 21:41 22,1 °C 4,4 °C 47 % 78 % 1020,7 hPa 0,0 l/m² 0,0 km/h (0 Bft) N 5 ° 0 min 0 W/m² 0,9 °C 4,4 °C 0,0 km/h (0 Bft)
23.03.2026 21:42 22,1 °C 4,4 °C 47 % 78 % 1020,7 hPa 0,0 l/m² 0,0 km/h (0 Bft) N 5 ° 0 min 0 W/m² 0,9 °C 4,4 °C 0,0 km/h (0 Bft)
23.03.2026 21:44 22,1 °C 4,3 °C 47 % 78 % 1020,7 hPa 0,0 l/m² 0,0 km/h (0 Bft) N 5 ° 0 min 0 W/m² 0,8 °C 4,3 °C 0,0 km/h (0 Bft)
23.03.2026 21:45 22,1 °C 4,4 °C 47 % 78 % 1020,7 hPa 0,0 l/m² 0,0 km/h (0 Bft) N 5 ° 0 min 0 W/m² 0,9 °C 4,4 °C 0,0 km/h (0 Bft)
23.03.2026 21:46 22,1 °C 4,3 °C 47 % 78 % 1020,7 hPa 0,0 l/m² 0,0 km/h (0 Bft) N 5 ° 0 min 0 W/m² 0,8 °C 4,3 °C 0,0 km/h (0 Bft)
23.03.2026 21:47 22,1 °C 4,3 °C 47 % 79 % 1020,7 hPa 0,0 l/m² 0,0 km/h (0 Bft) N 5 ° 0 min 0 W/m² 1,0 °C 4,3 °C 0,0 km/h (0 Bft)
23.03.2026 21:49 22,2 °C 4,3 °C 47 % 79 % 1020,7 hPa 0,0 l/m² 0,0 km/h (0 Bft) N 5 ° 0 min 0 W/m² 1,0 °C 4,3 °C 0,0 km/h (0 Bft)
23.03.2026 21:50 22,2 °C 4,3 °C 47 % 79 % 1020,7 hPa 0,0 l/m² 0,0 km/h (0 Bft) N 5 ° 0 min 0 W/m² 1,0 °C 4,3 °C 0,0 km/h (0 Bft)
23.03.2026 21:51 22,2 °C 4,3 °C 47 % 79 % 1020,7 hPa 0,0 l/m² 0,0 km/h (0 Bft) N 5 ° 0 min 0 W/m² 1,0 °C 4,3 °C 0,0 km/h (0 Bft)
23.03.2026 21:52 22,2 °C 4,3 °C 47 % 79 % 1020,7 hPa 0,0 l/m² 0,0 km/h (0 Bft) N 5 ° 0 min 0 W/m² 1,0 °C 4,3 °C 0,0 km/h (0 Bft)
23.03.2026 21:54 22,2 °C 4,3 °C 47 % 80 % 1020,8 hPa 0,0 l/m² 0,0 km/h (0 Bft) N 5 ° 0 min 0 W/m² 1,2 °C 4,3 °C 0,0 km/h (0 Bft)
23.03.2026 21:56 22,2 °C 4,3 °C 47 % 80 % 1020,7 hPa 0,0 l/m² 0,0 km/h (0 Bft) N 5 ° 0 min 0 W/m² 1,2 °C 4,3 °C 0,0 km/h (0 Bft)
23.03.2026 21:58 22,2 °C 4,2 °C 47 % 80 % 1020,7 hPa 0,0 l/m² 0,0 km/h (0 Bft) N 5 ° 0 min 0 W/m² 1,1 °C 4,2 °C 0,0 km/h (0 Bft)
23.03.2026 22:00 22,2 °C 4,2 °C 47 % 80 % 1020,7 hPa 0,0 l/m² 0,0 km/h (0 Bft) N 5 ° 0 min 0 W/m² 1,1 °C 4,2 °C 0,0 km/h (0 Bft)
23.03.2026 22:01 22,2 °C 4,2 °C 47 % 80 % 1020,7 hPa 0,0 l/m² 0,0 km/h (0 Bft) N 5 ° 0 min 0 W/m² 1,1 °C 4,2 °C 0,0 km/h (0 Bft)
23.03.2026 22:02 22,2 °C 4,2 °C 47 % 80 % 1020,7 hPa 0,0 l/m² 0,0 km/h (0 Bft) N 5 ° 0 min 0 W/m² 1,1 °C 4,2 °C 0,0 km/h (0 Bft)
23.03.2026 22:03 22,2 °C 4,2 °C 47 % 80 % 1020,6 hPa 0,0 l/m² 0,0 km/h (0 Bft) N 5 ° 0 min 0 W/m² 1,1 °C 4,2 °C 0,0 km/h (0 Bft)
23.03.2026 22:05 22,2 °C 4,1 °C 47 % 80 % 1020,6 hPa 0,0 l/m² 0,0 km/h (0 Bft) N 5 ° 0 min 0 W/m² 1,0 °C 4,1 °C 0,0 km/h (0 Bft)
23.03.2026 22:07 22,2 °C 4,1 °C 47 % 80 % 1020,6 hPa 0,0 l/m² 0,0 km/h (0 Bft) N 5 ° 0 min 0 W/m² 1,0 °C 4,1 °C 0,0 km/h (0 Bft)
23.03.2026 22:09 22,2 °C 4,0 °C 47 % 80 % 1020,7 hPa 0,0 l/m² 0,0 km/h (0 Bft) N 5 ° 0 min 0 W/m² 0,9 °C 4,0 °C 0,0 km/h (0 Bft)
23.03.2026 22:10 22,2 °C 4,0 °C 47 % 80 % 1020,6 hPa 0,0 l/m² 0,0 km/h (0 Bft) N 5 ° 0 min 0 W/m² 0,9 °C 4,0 °C 0,0 km/h (0 Bft)
23.03.2026 22:11 22,2 °C 4,0 °C 47 % 79 % 1020,6 hPa 0,0 l/m² 0,0 km/h (0 Bft) N 5 ° 0 min 0 W/m² 0,7 °C 4,0 °C 0,0 km/h (0 Bft)
23.03.2026 22:12 22,2 °C 3,9 °C 47 % 79 % 1020,6 hPa 0,0 l/m² 0,0 km/h (0 Bft) N 5 ° 0 min 0 W/m² 0,6 °C 3,9 °C 0,0 km/h (0 Bft)
23.03.2026 22:14 22,2 °C 3,9 °C 47 % 79 % 1020,7 hPa 0,0 l/m² 0,0 km/h (0 Bft) N 5 ° 0 min 0 W/m² 0,6 °C 3,9 °C 0,0 km/h (0 Bft)
23.03.2026 22:16 22,2 °C 3,8 °C 47 % 79 % 1020,6 hPa 0,0 l/m² 0,0 km/h (0 Bft) N 5 ° 0 min 0 W/m² 0,5 °C 3,8 °C 0,0 km/h (0 Bft)
23.03.2026 22:18 22,2 °C 3,8 °C 47 % 79 % 1020,7 hPa 0,0 l/m² 0,0 km/h (0 Bft) N 5 ° 0 min 0 W/m² 0,5 °C 3,8 °C 0,0 km/h (0 Bft)
23.03.2026 22:20 22,2 °C 3,8 °C 47 % 79 % 1020,6 hPa 0,0 l/m² 0,0 km/h (0 Bft) N 5 ° 0 min 0 W/m² 0,5 °C 3,8 °C 0,0 km/h (0 Bft)
23.03.2026 22:21 22,2 °C 3,7 °C 47 % 79 % 1020,6 hPa 0,0 l/m² 0,0 km/h (0 Bft) N 5 ° 0 min 0 W/m² 0,4 °C 3,7 °C 0,0 km/h (0 Bft)
23.03.2026 22:22 22,2 °C 3,7 °C 47 % 79 % 1020,6 hPa 0,0 l/m² 0,0 km/h (0 Bft) N 5 ° 0 min 0 W/m² 0,4 °C 3,7 °C 0,0 km/h (0 Bft)
23.03.2026 22:23 22,2 °C 3,7 °C 47 % 79 % 1020,7 hPa 0,0 l/m² 0,0 km/h (0 Bft) N 5 ° 0 min 0 W/m² 0,4 °C 3,7 °C 0,0 km/h (0 Bft)
23.03.2026 22:25 22,2 °C 3,7 °C 47 % 79 % 1020,6 hPa 0,0 l/m² 0,0 km/h (0 Bft) N 5 ° 0 min 0 W/m² 0,4 °C 3,7 °C 0,0 km/h (0 Bft)
23.03.2026 22:27 22,2 °C 3,6 °C 47 % 79 % 1020,6 hPa 0,0 l/m² 0,0 km/h (0 Bft) N 5 ° 0 min 0 W/m² 0,3 °C 3,6 °C 0,0 km/h (0 Bft)
23.03.2026 22:29 22,2 °C 3,6 °C 47 % 79 % 1020,5 hPa 0,0 l/m² 0,0 km/h (0 Bft) N 5 ° 0 min 0 W/m² 0,3 °C 3,6 °C 0,0 km/h (0 Bft)
23.03.2026 22:31 22,2 °C 3,6 °C 47 % 79 % 1020,5 hPa 0,0 l/m² 0,0 km/h (0 Bft) N 5 ° 0 min 0 W/m² 0,3 °C 3,6 °C 0,0 km/h (0 Bft)
23.03.2026 22:32 22,2 °C 3,6 °C 47 % 79 % 1020,4 hPa 0,0 l/m² 0,0 km/h (0 Bft) N 5 ° 0 min 0 W/m² 0,3 °C 3,6 °C 0,0 km/h (0 Bft)
23.03.2026 22:33 22,2 °C 3,6 °C 47 % 79 % 1020,4 hPa 0,0 l/m² 0,0 km/h (0 Bft) N 5 ° 0 min 0 W/m² 0,3 °C 3,6 °C 0,0 km/h (0 Bft)
23.03.2026 22:34 22,3 °C 3,5 °C 47 % 79 % 1020,5 hPa 0,0 l/m² 0,0 km/h (0 Bft) N 5 ° 0 min 0 W/m² 0,2 °C 3,5 °C 0,0 km/h (0 Bft)
23.03.2026 22:36 22,2 °C 3,5 °C 47 % 79 % 1020,5 hPa 0,0 l/m² 0,0 km/h (0 Bft) N 5 ° 0 min 0 W/m² 0,2 °C 3,5 °C 0,0 km/h (0 Bft)
23.03.2026 22:38 22,2 °C 3,4 °C 47 % 79 % 1020,5 hPa 0,0 l/m² 0,0 km/h (0 Bft) N 5 ° 0 min 0 W/m² 0,1 °C 3,4 °C 0,0 km/h (0 Bft)
23.03.2026 22:40 22,3 °C 3,4 °C 47 % 79 % 1020,5 hPa 0,0 l/m² 0,0 km/h (0 Bft) N 5 ° 0 min 0 W/m² 0,1 °C 3,4 °C 0,0 km/h (0 Bft)
23.03.2026 22:41 22,3 °C 3,4 °C 47 % 79 % 1020,5 hPa 0,0 l/m² 0,0 km/h (0 Bft) N 5 ° 0 min 0 W/m² 0,1 °C 3,4 °C 0,0 km/h (0 Bft)
23.03.2026 22:42 22,3 °C 3,3 °C 47 % 79 % 1020,5 hPa 0,0 l/m² 0,0 km/h (0 Bft) N 5 ° 0 min 0 W/m² 0,0 °C 3,3 °C 0,0 km/h (0 Bft)
23.03.2026 22:43 22,3 °C 3,4 °C 47 % 79 % 1020,5 hPa 0,0 l/m² 0,0 km/h (0 Bft) N 5 ° 0 min 0 W/m² 0,1 °C 3,4 °C 0,0 km/h (0 Bft)
23.03.2026 22:45 22,2 °C 3,3 °C 47 % 80 % 1020,4 hPa 0,0 l/m² 0,0 km/h (0 Bft) N 5 ° 0 min 0 W/m² 0,2 °C 3,3 °C 0,0 km/h (0 Bft)
23.03.2026 22:47 22,3 °C 3,3 °C 47 % 80 % 1020,4 hPa 0,0 l/m² 0,0 km/h (0 Bft) N 5 ° 0 min 0 W/m² 0,2 °C 3,3 °C 0,0 km/h (0 Bft)
23.03.2026 22:49 22,2 °C 3,3 °C 47 % 80 % 1020,5 hPa 0,0 l/m² 0,0 km/h (0 Bft) N 5 ° 0 min 0 W/m² 0,2 °C 3,3 °C 0,0 km/h (0 Bft)
23.03.2026 22:50 22,2 °C 3,3 °C 47 % 80 % 1020,5 hPa 0,0 l/m² 0,0 km/h (0 Bft) N 5 ° 0 min 0 W/m² 0,2 °C 3,3 °C 0,0 km/h (0 Bft)
23.03.2026 22:51 22,2 °C 3,3 °C 47 % 80 % 1020,5 hPa 0,0 l/m² 0,0 km/h (0 Bft) N 5 ° 0 min 0 W/m² 0,2 °C 3,3 °C 0,0 km/h (0 Bft)
23.03.2026 22:52 22,3 °C 3,3 °C 47 % 81 % 1020,5 hPa 0,0 l/m² 0,0 km/h (0 Bft) N 5 ° 0 min 0 W/m² 0,4 °C 3,3 °C 0,0 km/h (0 Bft)
23.03.2026 22:54 22,2 °C 3,3 °C 47 % 81 % 1020,4 hPa 0,0 l/m² 0,0 km/h (0 Bft) N 5 ° 0 min 0 W/m² 0,4 °C 3,3 °C 0,0 km/h (0 Bft)
23.03.2026 22:56 22,2 °C 3,2 °C 47 % 81 % 1020,4 hPa 0,0 l/m² 0,0 km/h (0 Bft) N 5 ° 0 min 0 W/m² 0,3 °C 3,2 °C 0,0 km/h (0 Bft)
23.03.2026 22:58 22,2 °C 3,2 °C 47 % 81 % 1020,4 hPa 0,0 l/m² 0,0 km/h (0 Bft) N 5 ° 0 min 0 W/m² 0,3 °C 3,2 °C 0,0 km/h (0 Bft)
23.03.2026 23:00 22,2 °C 3,2 °C 47 % 81 % 1020,4 hPa 0,0 l/m² 0,0 km/h (0 Bft) N 5 ° 0 min 0 W/m² 0,3 °C 3,2 °C 0,0 km/h (0 Bft)
23.03.2026 23:01 22,2 °C 3,2 °C 47 % 81 % 1020,5 hPa 0,0 l/m² 0,0 km/h (0 Bft) N 5 ° 0 min 0 W/m² 0,3 °C 3,2 °C 0,0 km/h (0 Bft)
23.03.2026 23:02 22,2 °C 3,1 °C 47 % 81 % 1020,5 hPa 0,0 l/m² 0,0 km/h (0 Bft) N 5 ° 0 min 0 W/m² 0,2 °C 3,1 °C 0,0 km/h (0 Bft)
23.03.2026 23:03 22,2 °C 3,1 °C 47 % 81 % 1020,5 hPa 0,0 l/m² 0,0 km/h (0 Bft) N 5 ° 0 min 0 W/m² 0,2 °C 3,1 °C 0,0 km/h (0 Bft)
23.03.2026 23:04 22,2 °C 3,1 °C 47 % 81 % 1020,4 hPa 0,0 l/m² 0,0 km/h (0 Bft) N 5 ° 0 min 0 W/m² 0,2 °C 3,1 °C 0,0 km/h (0 Bft)
23.03.2026 23:05 22,2 °C 3,1 °C 47 % 81 % 1020,4 hPa 0,0 l/m² 0,0 km/h (0 Bft) N 5 ° 0 min 0 W/m² 0,2 °C 3,1 °C 0,0 km/h (0 Bft)
23.03.2026 23:06 22,2 °C 3,1 °C 47 % 81 % 1020,5 hPa 0,0 l/m² 0,0 km/h (0 Bft) N 5 ° 0 min 0 W/m² 0,2 °C 3,1 °C 0,0 km/h (0 Bft)
23.03.2026 23:07 22,2 °C 3,1 °C 47 % 81 % 1020,4 hPa 0,0 l/m² 0,0 km/h (0 Bft) N 5 ° 0 min 0 W/m² 0,2 °C 3,1 °C 0,0 km/h (0 Bft)
23.03.2026 23:08 22,2 °C 3,0 °C 47 % 81 % 1020,4 hPa 0,0 l/m² 0,0 km/h (0 Bft) N 5 ° 0 min 0 W/m² 0,1 °C 3,0 °C 0,0 km/h (0 Bft)
23.03.2026 23:09 22,2 °C 2,9 °C 47 % 81 % 1020,4 hPa 0,0 l/m² 0,0 km/h (0 Bft) N 5 ° 0 min 0 W/m² -0,0 °C 2,9 °C 0,0 km/h (0 Bft)
23.03.2026 23:10 22,2 °C 2,9 °C 47 % 81 % 1020,5 hPa 0,0 l/m² 0,0 km/h (0 Bft) N 5 ° 0 min 0 W/m² -0,0 °C 2,9 °C 0,0 km/h (0 Bft)
23.03.2026 23:12 22,2 °C 2,9 °C 47 % 81 % 1020,4 hPa 0,0 l/m² 0,0 km/h (0 Bft) N 5 ° 0 min 0 W/m² -0,0 °C 2,9 °C 0,0 km/h (0 Bft)
23.03.2026 23:13 22,2 °C 2,9 °C 47 % 81 % 1020,5 hPa 0,0 l/m² 0,0 km/h (0 Bft) N 5 ° 0 min 0 W/m² -0,0 °C 2,9 °C 0,0 km/h (0 Bft)
23.03.2026 23:14 22,2 °C 2,9 °C 47 % 81 % 1020,5 hPa 0,0 l/m² 0,0 km/h (0 Bft) N 5 ° 0 min 0 W/m² -0,0 °C 2,9 °C 0,0 km/h (0 Bft)
23.03.2026 23:15 22,2 °C 2,8 °C 47 % 81 % 1020,4 hPa 0,0 l/m² 0,0 km/h (0 Bft) N 5 ° 0 min 0 W/m² -0,1 °C 2,8 °C 0,0 km/h (0 Bft)
23.03.2026 23:16 22,2 °C 2,8 °C 47 % 81 % 1020,4 hPa 0,0 l/m² 0,0 km/h (0 Bft) N 0 ° 0 min 0 W/m² -0,1 °C 2,8 °C 0,0 km/h (0 Bft)
23.03.2026 23:22 22,2 °C 2,7 °C 47 % 81 % 1020,5 hPa 0,0 l/m² 0,0 km/h (0 Bft) N 5 ° 0 min 0 W/m² -0,2 °C 2,7 °C 0,0 km/h (0 Bft)
23.03.2026 23:23 22,2 °C 2,7 °C 47 % 81 % 1020,5 hPa 0,0 l/m² 0,0 km/h (0 Bft) N 5 ° 0 min 0 W/m² -0,2 °C 2,7 °C 0,0 km/h (0 Bft)
23.03.2026 23:25 22,2 °C 2,6 °C 47 % 81 % 1020,6 hPa 0,0 l/m² 0,0 km/h (0 Bft) N 5 ° 0 min 0 W/m² -0,3 °C 2,6 °C 0,0 km/h (0 Bft)
23.03.2026 23:27 22,2 °C 2,6 °C 47 % 81 % 1020,6 hPa 0,0 l/m² 0,0 km/h (0 Bft) N 5 ° 0 min 0 W/m² -0,3 °C 2,6 °C 0,0 km/h (0 Bft)
23.03.2026 23:29 22,2 °C 2,5 °C 47 % 81 % 1020,5 hPa 0,0 l/m² 0,0 km/h (0 Bft) N 5 ° 0 min 0 W/m² -0,4 °C 2,5 °C 0,0 km/h (0 Bft)
23.03.2026 23:30 22,2 °C 2,5 °C 47 % 81 % 1020,5 hPa 0,0 l/m² 0,0 km/h (0 Bft) N 5 ° 0 min 0 W/m² -0,4 °C 2,5 °C 0,0 km/h (0 Bft)
23.03.2026 23:31 22,2 °C 2,5 °C 47 % 81 % 1020,5 hPa 0,0 l/m² 0,0 km/h (0 Bft) N 5 ° 0 min 0 W/m² -0,4 °C 2,5 °C 0,0 km/h (0 Bft)
23.03.2026 23:32 22,2 °C 2,4 °C 47 % 81 % 1020,5 hPa 0,0 l/m² 0,0 km/h (0 Bft) N 5 ° 0 min 0 W/m² -0,5 °C 2,4 °C 0,0 km/h (0 Bft)
23.03.2026 23:34 22,2 °C 2,4 °C 47 % 81 % 1020,5 hPa 0,0 l/m² 0,0 km/h (0 Bft) N 5 ° 0 min 0 W/m² -0,5 °C 2,4 °C 0,0 km/h (0 Bft)
23.03.2026 23:36 22,2 °C 2,4 °C 47 % 81 % 1020,4 hPa 0,0 l/m² 0,0 km/h (0 Bft) N 5 ° 0 min 0 W/m² -0,5 °C 2,4 °C 0,0 km/h (0 Bft)
23.03.2026 23:38 22,2 °C 2,4 °C 47 % 82 % 1020,4 hPa 0,0 l/m² 0,0 km/h (0 Bft) N 5 ° 0 min 0 W/m² -0,4 °C 2,4 °C 0,0 km/h (0 Bft)
23.03.2026 23:40 22,2 °C 2,4 °C 47 % 82 % 1020,4 hPa 0,0 l/m² 0,0 km/h (0 Bft) N 5 ° 0 min 0 W/m² -0,4 °C 2,4 °C 0,0 km/h (0 Bft)
23.03.2026 23:41 22,2 °C 2,4 °C 47 % 82 % 1020,4 hPa 0,0 l/m² 0,0 km/h (0 Bft) N 5 ° 0 min 0 W/m² -0,4 °C 2,4 °C 0,0 km/h (0 Bft)
23.03.2026 23:42 22,2 °C 2,4 °C 47 % 82 % 1020,4 hPa 0,0 l/m² 0,0 km/h (0 Bft) N 5 ° 0 min 0 W/m² -0,4 °C 2,4 °C 0,0 km/h (0 Bft)
23.03.2026 23:44 22,1 °C 2,4 °C 47 % 82 % 1020,4 hPa 0,0 l/m² 0,0 km/h (0 Bft) N 5 ° 0 min 0 W/m² -0,4 °C 2,4 °C 0,0 km/h (0 Bft)
23.03.2026 23:46 22,2 °C 2,4 °C 47 % 82 % 1020,5 hPa 0,0 l/m² 0,0 km/h (0 Bft) N 5 ° 0 min 0 W/m² -0,4 °C 2,4 °C 0,0 km/h (0 Bft)
23.03.2026 23:48 22,2 °C 2,3 °C 47 % 82 % 1020,5 hPa 0,0 l/m² 0,0 km/h (0 Bft) N 5 ° 0 min 0 W/m² -0,4 °C 2,3 °C 0,0 km/h (0 Bft)
23.03.2026 23:50 22,2 °C 2,3 °C 47 % 82 % 1020,4 hPa 0,0 l/m² 0,0 km/h (0 Bft) N 5 ° 0 min 0 W/m² -0,4 °C 2,3 °C 0,0 km/h (0 Bft)
23.03.2026 23:51 22,1 °C 2,3 °C 47 % 82 % 1020,5 hPa 0,0 l/m² 0,0 km/h (0 Bft) N 5 ° 0 min 0 W/m² -0,4 °C 2,3 °C 0,0 km/h (0 Bft)
23.03.2026 23:52 22,2 °C 2,3 °C 47 % 82 % 1020,5 hPa 0,0 l/m² 0,0 km/h (0 Bft) N 5 ° 0 min 0 W/m² -0,4 °C 2,3 °C 0,0 km/h (0 Bft)
23.03.2026 23:54 22,2 °C 2,3 °C 47 % 82 % 1020,4 hPa 0,0 l/m² 0,0 km/h (0 Bft) N 5 ° 0 min 0 W/m² -0,4 °C 2,3 °C 0,0 km/h (0 Bft)
23.03.2026 23:56 22,1 °C 2,2 °C 47 % 82 % 1020,4 hPa 0,0 l/m² 0,0 km/h (0 Bft) N 5 ° 0 min 0 W/m² -0,5 °C 2,2 °C 0,0 km/h (0 Bft)
23.03.2026 23:58 22,2 °C 2,2 °C 47 % 83 % 1020,4 hPa 0,0 l/m² 0,0 km/h (0 Bft) N 5 ° 0 min 0 W/m² -0,4 °C 2,2 °C 0,0 km/h (0 Bft)
_ Min-Zeit 03:41 06:38 07:35 16:37 03:25 - 23:58 - - - - 06:38 06:38 23:58
Minimum _ 21,8 °C -1,9 °C 43 % 36 % 1016,2 hPa - 0,0 km/h (0 Bft) - - - - -3,6 °C -1,9 °C 0,0 km/h (0 Bft)
_ Max-Zeit 13:11 15:15 18:45 08:23 21:54 23:58 13:51 - - 13:25 12:32 10:26 15:15 13:42
Maximum _ 23,1 °C 18,3 °C 48 % 91 % 1020,8 hPa 0,0 l/m² 13,9 km/h
NW (3 Bft)
- - 5 min 703 W/m² 6,1 °C 18,3 °C 20,9 km/h
NW (4 Bft)
Durchschnitt _ 22,3 °C 7,7 °C 46 % 68 % 1018,2 hPa #0,0 l/m² 2,0 km/h (1 Bft) W-SW - #10:42 h 204 W/m² 1,3 °C 7,6 °C 3,7 km/h (1 Bft)
© 2009 Mathias Hoßbach